﻿<?xml version="1.0" encoding="utf-8"?><gpx creator="Garmin Desktop App" version="1.1" xsi:schemaLocation="http://www.topografix.com/GPX/1/1 http://www.topografix.com/GPX/1/1/gpx.xsd http://www.garmin.com/xmlschemas/WaypointExtension/v1 http://www8.garmin.com/xmlschemas/WaypointExtensionv1.xsd http://www.garmin.com/xmlschemas/TrackPointExtension/v1 http://www.garmin.com/xmlschemas/TrackPointExtensionv1.xsd http://www.garmin.com/xmlschemas/GpxExtensions/v3 http://www8.garmin.com/xmlschemas/GpxExtensionsv3.xsd http://www.garmin.com/xmlschemas/ActivityExtension/v1 http://www8.garmin.com/xmlschemas/ActivityExtensionv1.xsd http://www.garmin.com/xmlschemas/AdventuresExtensions/v1 http://www8.garmin.com/xmlschemas/AdventuresExtensionv1.xsd http://www.garmin.com/xmlschemas/PressureExtension/v1 http://www.garmin.com/xmlschemas/PressureExtensionv1.xsd http://www.garmin.com/xmlschemas/TripExtensions/v1 http://www.garmin.com/xmlschemas/TripExtensionsv1.xsd http://www.garmin.com/xmlschemas/TripMetaDataExtensions/v1 http://www.garmin.com/xmlschemas/TripMetaDataExtensionsv1.xsd http://www.garmin.com/xmlschemas/ViaPointTransportationModeExtensions/v1 http://www.garmin.com/xmlschemas/ViaPointTransportationModeExtensionsv1.xsd http://www.garmin.com/xmlschemas/CreationTimeExtension/v1 http://www.garmin.com/xmlschemas/CreationTimeExtensionsv1.xsd http://www.garmin.com/xmlschemas/AccelerationExtension/v1 http://www.garmin.com/xmlschemas/AccelerationExtensionv1.xsd http://www.garmin.com/xmlschemas/PowerExtension/v1 http://www.garmin.com/xmlschemas/PowerExtensionv1.xsd http://www.garmin.com/xmlschemas/VideoExtension/v1 http://www.garmin.com/xmlschemas/VideoExtensionv1.xsd" xmlns="http://www.topografix.com/GPX/1/1" xmlns:xsi="http://www.w3.org/2001/XMLSchema-instance" xmlns:wptx1="http://www.garmin.com/xmlschemas/WaypointExtension/v1" xmlns:gpxtrx="http://www.garmin.com/xmlschemas/GpxExtensions/v3" xmlns:gpxtpx="http://www.garmin.com/xmlschemas/TrackPointExtension/v1" xmlns:gpxx="http://www.garmin.com/xmlschemas/GpxExtensions/v3" xmlns:trp="http://www.garmin.com/xmlschemas/TripExtensions/v1" xmlns:adv="http://www.garmin.com/xmlschemas/AdventuresExtensions/v1" xmlns:prs="http://www.garmin.com/xmlschemas/PressureExtension/v1" xmlns:tmd="http://www.garmin.com/xmlschemas/TripMetaDataExtensions/v1" xmlns:vptm="http://www.garmin.com/xmlschemas/ViaPointTransportationModeExtensions/v1" xmlns:ctx="http://www.garmin.com/xmlschemas/CreationTimeExtension/v1" xmlns:gpxacc="http://www.garmin.com/xmlschemas/AccelerationExtension/v1" xmlns:gpxpx="http://www.garmin.com/xmlschemas/PowerExtension/v1" xmlns:vidx1="http://www.garmin.com/xmlschemas/VideoExtension/v1">

  <metadata>
    <link href="http://www.garmin.com">
      <text>Garmin International</text>
    </link>
    <time>2021-02-19T14:09:07Z</time>
    <bounds maxlat="46.165843354538083" maxlon="8.200003718957305" minlat="46.146520469337702" minlon="8.151580542325974" />
  </metadata>

  <trk>
    <name>Rifugio-garzonera2015-01-31</name>
    <extensions>
      <gpxx:TrackExtension>
        <gpxx:DisplayColor>Yellow</gpxx:DisplayColor>
      </gpxx:TrackExtension>
      <gpxtrkx:TrackStatsExtension xmlns:gpxtrkx="http://www.garmin.com/xmlschemas/TrackStatsExtension/v1">
        <gpxtrkx:Distance>13042</gpxtrkx:Distance>
        <gpxtrkx:TotalElapsedTime>17181</gpxtrkx:TotalElapsedTime>
        <gpxtrkx:MovingTime>12893</gpxtrkx:MovingTime>
        <gpxtrkx:StoppedTime>3933</gpxtrkx:StoppedTime>
        <gpxtrkx:MovingSpeed>1</gpxtrkx:MovingSpeed>
        <gpxtrkx:MaxSpeed>3</gpxtrkx:MaxSpeed>
        <gpxtrkx:MaxElevation>2111</gpxtrkx:MaxElevation>
        <gpxtrkx:MinElevation>1529</gpxtrkx:MinElevation>
        <gpxtrkx:Ascent>657</gpxtrkx:Ascent>
        <gpxtrkx:Descent>671</gpxtrkx:Descent>
        <gpxtrkx:AvgAscentRate>0</gpxtrkx:AvgAscentRate>
        <gpxtrkx:MaxAscentRate>0</gpxtrkx:MaxAscentRate>
        <gpxtrkx:AvgDescentRate>0</gpxtrkx:AvgDescentRate>
        <gpxtrkx:MaxDescentRate>-1</gpxtrkx:MaxDescentRate>
      </gpxtrkx:TrackStatsExtension>
    </extensions>
    <trkseg>
      <trkpt lat="46.147309625521302" lon="8.197399461641908">
        <ele>1540.6500000000001</ele>
        <time>2015-01-31T08:02:58Z</time>
      </trkpt>
      <trkpt lat="46.147309206426144" lon="8.197398036718369">
        <ele>1540.6500000000001</ele>
        <time>2015-01-31T08:02:59Z</time>
      </trkpt>
      <trkpt lat="46.147319348528981" lon="8.197407005354762">
        <ele>1543.53</ele>
        <time>2015-01-31T08:03:06Z</time>
      </trkpt>
      <trkpt lat="46.147328736260533" lon="8.197417231276631">
        <ele>1542.0899999999999</ele>
        <time>2015-01-31T08:03:13Z</time>
      </trkpt>
      <trkpt lat="46.147330496460199" lon="8.197418488562107">
        <ele>1543.53</ele>
        <time>2015-01-31T08:03:28Z</time>
      </trkpt>
      <trkpt lat="46.147333765402436" lon="8.197402227669954">
        <ele>1543.53</ele>
        <time>2015-01-31T08:03:41Z</time>
      </trkpt>
      <trkpt lat="46.147391013801098" lon="8.19737171754241">
        <ele>1544.01</ele>
        <time>2015-01-31T08:03:55Z</time>
      </trkpt>
      <trkpt lat="46.147421021014452" lon="8.197337267920375">
        <ele>1544.98</ele>
        <time>2015-01-31T08:03:59Z</time>
      </trkpt>
      <trkpt lat="46.147523364052176" lon="8.197273816913366">
        <ele>1546.4200000000001</ele>
        <time>2015-01-31T08:04:10Z</time>
      </trkpt>
      <trkpt lat="46.147551108151674" lon="8.1972979567945">
        <ele>1546.9000000000001</ele>
        <time>2015-01-31T08:04:13Z</time>
      </trkpt>
      <trkpt lat="46.147520849481225" lon="8.197456458583474">
        <ele>1547.3800000000001</ele>
        <time>2015-01-31T08:04:23Z</time>
      </trkpt>
      <trkpt lat="46.147420182824135" lon="8.197540696710348">
        <ele>1548.8199999999999</ele>
        <time>2015-01-31T08:04:34Z</time>
      </trkpt>
      <trkpt lat="46.147313229739666" lon="8.197695594280958">
        <ele>1550.74</ele>
        <time>2015-01-31T08:04:49Z</time>
      </trkpt>
      <trkpt lat="46.147255897521973" lon="8.197850324213505">
        <ele>1551.71</ele>
        <time>2015-01-31T08:05:02Z</time>
      </trkpt>
      <trkpt lat="46.147199403494596" lon="8.198074121028185">
        <ele>1553.6300000000001</ele>
        <time>2015-01-31T08:05:19Z</time>
      </trkpt>
      <trkpt lat="46.1471595056355" lon="8.198297414928675">
        <ele>1555.55</ele>
        <time>2015-01-31T08:05:35Z</time>
      </trkpt>
      <trkpt lat="46.147082727402449" lon="8.198452899232507">
        <ele>1557.47</ele>
        <time>2015-01-31T08:05:49Z</time>
      </trkpt>
      <trkpt lat="46.146997231990099" lon="8.198581226170063">
        <ele>1558.9200000000001</ele>
        <time>2015-01-31T08:06:02Z</time>
      </trkpt>
      <trkpt lat="46.14689321257174" lon="8.198717851191759">
        <ele>1560.8399999999999</ele>
        <time>2015-01-31T08:06:17Z</time>
      </trkpt>
      <trkpt lat="46.146827666088939" lon="8.19882195442915">
        <ele>1562.28</ele>
        <time>2015-01-31T08:06:28Z</time>
      </trkpt>
      <trkpt lat="46.146751223132014" lon="8.19898665882647">
        <ele>1563.72</ele>
        <time>2015-01-31T08:06:42Z</time>
      </trkpt>
      <trkpt lat="46.14674317650497" lon="8.199024964123964">
        <ele>1564.2</ele>
        <time>2015-01-31T08:06:45Z</time>
      </trkpt>
      <trkpt lat="46.146738231182098" lon="8.199066370725632">
        <ele>1564.6800000000001</ele>
        <time>2015-01-31T08:06:48Z</time>
      </trkpt>
      <trkpt lat="46.146668493747711" lon="8.199270637705922">
        <ele>1566.1199999999999</ele>
        <time>2015-01-31T08:07:04Z</time>
      </trkpt>
      <trkpt lat="46.146608060225844" lon="8.199463672935963">
        <ele>1568.05</ele>
        <time>2015-01-31T08:07:18Z</time>
      </trkpt>
      <trkpt lat="46.146554667502642" lon="8.199676740914583">
        <ele>1569.97</ele>
        <time>2015-01-31T08:07:34Z</time>
      </trkpt>
      <trkpt lat="46.146520469337702" lon="8.199882181361318">
        <ele>1571.4100000000001</ele>
        <time>2015-01-31T08:07:49Z</time>
      </trkpt>
      <trkpt lat="46.146541507914662" lon="8.199973460286856">
        <ele>1571.8900000000001</ele>
        <time>2015-01-31T08:07:56Z</time>
      </trkpt>
      <trkpt lat="46.146686347201467" lon="8.200003383681178">
        <ele>1573.8199999999999</ele>
        <time>2015-01-31T08:08:11Z</time>
      </trkpt>
      <trkpt lat="46.146700596436858" lon="8.199996007606387">
        <ele>1573.8199999999999</ele>
        <time>2015-01-31T08:08:13Z</time>
      </trkpt>
      <trkpt lat="46.146740913391113" lon="8.199921995401382">
        <ele>1574.78</ele>
        <time>2015-01-31T08:08:20Z</time>
      </trkpt>
      <trkpt lat="46.146771842613816" lon="8.199796434491873">
        <ele>1576.22</ele>
        <time>2015-01-31T08:08:29Z</time>
      </trkpt>
      <trkpt lat="46.146800173446536" lon="8.199689649045467">
        <ele>1577.1800000000001</ele>
        <time>2015-01-31T08:08:36Z</time>
      </trkpt>
      <trkpt lat="46.1468106508255" lon="8.199665006250143">
        <ele>1577.1800000000001</ele>
        <time>2015-01-31T08:08:38Z</time>
      </trkpt>
      <trkpt lat="46.146868569776416" lon="8.199548665434122">
        <ele>1578.6199999999999</ele>
        <time>2015-01-31T08:08:47Z</time>
      </trkpt>
      <trkpt lat="46.146980468183756" lon="8.19940390996635">
        <ele>1580.54</ele>
        <time>2015-01-31T08:09:02Z</time>
      </trkpt>
      <trkpt lat="46.147039225324988" lon="8.199360826984048">
        <ele>1581.51</ele>
        <time>2015-01-31T08:09:09Z</time>
      </trkpt>
      <trkpt lat="46.147184818983078" lon="8.199273319914937">
        <ele>1583.9100000000001</ele>
        <time>2015-01-31T08:09:25Z</time>
      </trkpt>
      <trkpt lat="46.147320605814457" lon="8.199191177263856">
        <ele>1585.3499999999999</ele>
        <time>2015-01-31T08:09:39Z</time>
      </trkpt>
      <trkpt lat="46.147466953843832" lon="8.199117165058851">
        <ele>1587.27</ele>
        <time>2015-01-31T08:09:54Z</time>
      </trkpt>
      <trkpt lat="46.147590251639485" lon="8.199058324098587">
        <ele>1588.72</ele>
        <time>2015-01-31T08:10:08Z</time>
      </trkpt>
      <trkpt lat="46.147621432319283" lon="8.199029909446836">
        <ele>1589.2</ele>
        <time>2015-01-31T08:10:20Z</time>
      </trkpt>
      <trkpt lat="46.147633921355009" lon="8.199018761515617">
        <ele>1589.2</ele>
        <time>2015-01-31T08:10:22Z</time>
      </trkpt>
      <trkpt lat="46.147763840854168" lon="8.198948185890913">
        <ele>1590.6400000000001</ele>
        <time>2015-01-31T08:10:37Z</time>
      </trkpt>
      <trkpt lat="46.147875739261508" lon="8.198866546154022">
        <ele>1592.5599999999999</ele>
        <time>2015-01-31T08:10:50Z</time>
      </trkpt>
      <trkpt lat="46.147961402311921" lon="8.198789432644844">
        <ele>1594</ele>
        <time>2015-01-31T08:11:00Z</time>
      </trkpt>
      <trkpt lat="46.148088974878192" lon="8.198678540065885">
        <ele>1595.45</ele>
        <time>2015-01-31T08:11:15Z</time>
      </trkpt>
      <trkpt lat="46.14822618663311" lon="8.198667811229825">
        <ele>1596.8900000000001</ele>
        <time>2015-01-31T08:11:29Z</time>
      </trkpt>
      <trkpt lat="46.148317214101553" lon="8.19865046069026">
        <ele>1598.3299999999999</ele>
        <time>2015-01-31T08:11:39Z</time>
      </trkpt>
      <trkpt lat="46.148436237126589" lon="8.198560103774071">
        <ele>1599.77</ele>
        <time>2015-01-31T08:11:54Z</time>
      </trkpt>
      <trkpt lat="46.148551320657134" lon="8.198464969173074">
        <ele>1601.6900000000001</ele>
        <time>2015-01-31T08:12:08Z</time>
      </trkpt>
      <trkpt lat="46.148648466914892" lon="8.198385592550039">
        <ele>1603.6199999999999</ele>
        <time>2015-01-31T08:12:20Z</time>
      </trkpt>
      <trkpt lat="46.148671265691519" lon="8.198366649448872">
        <ele>1604.0999999999999</ele>
        <time>2015-01-31T08:12:23Z</time>
      </trkpt>
      <trkpt lat="46.148778051137924" lon="8.198256175965071">
        <ele>1606.02</ele>
        <time>2015-01-31T08:12:37Z</time>
      </trkpt>
      <trkpt lat="46.148786097764969" lon="8.198247374966741">
        <ele>1605.54</ele>
        <time>2015-01-31T08:12:38Z</time>
      </trkpt>
      <trkpt lat="46.148805040866137" lon="8.198225582018495">
        <ele>1606.5</ele>
        <time>2015-01-31T08:12:41Z</time>
      </trkpt>
      <trkpt lat="46.148915346711874" lon="8.198093315586448">
        <ele>1607.9400000000001</ele>
        <time>2015-01-31T08:12:56Z</time>
      </trkpt>
      <trkpt lat="46.14901777356863" lon="8.197977477684617">
        <ele>1609.8599999999999</ele>
        <time>2015-01-31T08:13:10Z</time>
      </trkpt>
      <trkpt lat="46.149119362235069" lon="8.197869434952736">
        <ele>1611.79</ele>
        <time>2015-01-31T08:13:23Z</time>
      </trkpt>
      <trkpt lat="46.149207036942244" lon="8.197792069986463">
        <ele>1613.23</ele>
        <time>2015-01-31T08:13:36Z</time>
      </trkpt>
      <trkpt lat="46.149184489622712" lon="8.197791567072272">
        <ele>1613.23</ele>
        <time>2015-01-31T08:13:52Z</time>
      </trkpt>
      <trkpt lat="46.149186501279473" lon="8.197781760245562">
        <ele>1613.23</ele>
        <time>2015-01-31T08:14:13Z</time>
      </trkpt>
      <trkpt lat="46.14918583072722" lon="8.197776647284627">
        <ele>1613.71</ele>
        <time>2015-01-31T08:14:41Z</time>
      </trkpt>
      <trkpt lat="46.149225058034062" lon="8.197745718061924">
        <ele>1613.71</ele>
        <time>2015-01-31T08:15:04Z</time>
      </trkpt>
      <trkpt lat="46.14935296587646" lon="8.197646224871278">
        <ele>1615.6300000000001</ele>
        <time>2015-01-31T08:15:18Z</time>
      </trkpt>
      <trkpt lat="46.149495793506503" lon="8.197543462738395">
        <ele>1617.5599999999999</ele>
        <time>2015-01-31T08:15:34Z</time>
      </trkpt>
      <trkpt lat="46.149608613923192" lon="8.197445897385478">
        <ele>1619.48</ele>
        <time>2015-01-31T08:15:46Z</time>
      </trkpt>
      <trkpt lat="46.149628479033709" lon="8.197429133579135">
        <ele>1619.48</ele>
        <time>2015-01-31T08:15:48Z</time>
      </trkpt>
      <trkpt lat="46.149651277810335" lon="8.197398623451591">
        <ele>1619.96</ele>
        <time>2015-01-31T08:15:51Z</time>
      </trkpt>
      <trkpt lat="46.149720512330532" lon="8.197301980108023">
        <ele>1620.9200000000001</ele>
        <time>2015-01-31T08:16:00Z</time>
      </trkpt>
      <trkpt lat="46.149743059650064" lon="8.197268787771463">
        <ele>1621.4000000000001</ele>
        <time>2015-01-31T08:16:03Z</time>
      </trkpt>
      <trkpt lat="46.149838948622346" lon="8.197107436135411">
        <ele>1623.3199999999999</ele>
        <time>2015-01-31T08:16:17Z</time>
      </trkpt>
      <trkpt lat="46.149955205619335" lon="8.196988748386502">
        <ele>1624.28</ele>
        <time>2015-01-31T08:16:31Z</time>
      </trkpt>
      <trkpt lat="46.150059979408979" lon="8.196909623220563">
        <ele>1625.73</ele>
        <time>2015-01-31T08:16:42Z</time>
      </trkpt>
      <trkpt lat="46.150157796218991" lon="8.196861678734422">
        <ele>1626.21</ele>
        <time>2015-01-31T08:16:51Z</time>
      </trkpt>
      <trkpt lat="46.150286458432674" lon="8.196808956563473">
        <ele>1627.6500000000001</ele>
        <time>2015-01-31T08:17:04Z</time>
      </trkpt>
      <trkpt lat="46.150430710986257" lon="8.196744499728084">
        <ele>1629.0899999999999</ele>
        <time>2015-01-31T08:17:18Z</time>
      </trkpt>
      <trkpt lat="46.150590302422643" lon="8.196633020415902">
        <ele>1630.53</ele>
        <time>2015-01-31T08:17:34Z</time>
      </trkpt>
      <trkpt lat="46.150707313790917" lon="8.196502765640616">
        <ele>1631.98</ele>
        <time>2015-01-31T08:17:49Z</time>
      </trkpt>
      <trkpt lat="46.150858104228973" lon="8.196345521137118">
        <ele>1632.9400000000001</ele>
        <time>2015-01-31T08:18:07Z</time>
      </trkpt>
      <trkpt lat="46.1509810667485" lon="8.196206046268344">
        <ele>1634.3800000000001</ele>
        <time>2015-01-31T08:18:22Z</time>
      </trkpt>
      <trkpt lat="46.151103274896741" lon="8.196051986888051">
        <ele>1634.8599999999999</ele>
        <time>2015-01-31T08:18:37Z</time>
      </trkpt>
      <trkpt lat="46.151157086715102" lon="8.195951906964183">
        <ele>1635.3399999999999</ele>
        <time>2015-01-31T08:18:45Z</time>
      </trkpt>
      <trkpt lat="46.151176700368524" lon="8.195914020761848">
        <ele>1635.8199999999999</ele>
        <time>2015-01-31T08:18:48Z</time>
      </trkpt>
      <trkpt lat="46.151189440861344" lon="8.19588971324265">
        <ele>1635.8199999999999</ele>
        <time>2015-01-31T08:18:50Z</time>
      </trkpt>
      <trkpt lat="46.151283401995897" lon="8.195731630548835">
        <ele>1636.78</ele>
        <time>2015-01-31T08:19:04Z</time>
      </trkpt>
      <trkpt lat="46.151418182998896" lon="8.195590730756521">
        <ele>1637.26</ele>
        <time>2015-01-31T08:19:19Z</time>
      </trkpt>
      <trkpt lat="46.151489345356822" lon="8.195535913109779">
        <ele>1637.74</ele>
        <time>2015-01-31T08:19:26Z</time>
      </trkpt>
      <trkpt lat="46.151587497442961" lon="8.195457961410284">
        <ele>1638.7</ele>
        <time>2015-01-31T08:19:39Z</time>
      </trkpt>
      <trkpt lat="46.151659665629268" lon="8.195399204269052">
        <ele>1639.6700000000001</ele>
        <time>2015-01-31T08:19:53Z</time>
      </trkpt>
      <trkpt lat="46.151664024218917" lon="8.195396019145846">
        <ele>1639.1900000000001</ele>
        <time>2015-01-31T08:19:54Z</time>
      </trkpt>
      <trkpt lat="46.151676177978516" lon="8.195379842072725">
        <ele>1639.6700000000001</ele>
        <time>2015-01-31T08:19:56Z</time>
      </trkpt>
      <trkpt lat="46.151836859062314" lon="8.195191249251366">
        <ele>1639.6700000000001</ele>
        <time>2015-01-31T08:20:14Z</time>
      </trkpt>
      <trkpt lat="46.151932999491692" lon="8.195048505440354">
        <ele>1638.7</ele>
        <time>2015-01-31T08:20:26Z</time>
      </trkpt>
      <trkpt lat="46.151948003098369" lon="8.194885058328509">
        <ele>1638.22</ele>
        <time>2015-01-31T08:20:36Z</time>
      </trkpt>
      <trkpt lat="46.151900393888354" lon="8.194658663123846">
        <ele>1638.22</ele>
        <time>2015-01-31T08:20:52Z</time>
      </trkpt>
      <trkpt lat="46.151861920952797" lon="8.194459425285459">
        <ele>1638.7</ele>
        <time>2015-01-31T08:21:06Z</time>
      </trkpt>
      <trkpt lat="46.151814311742783" lon="8.194246022030711">
        <ele>1639.6700000000001</ele>
        <time>2015-01-31T08:21:21Z</time>
      </trkpt>
      <trkpt lat="46.151773910969496" lon="8.194056591019034">
        <ele>1641.1099999999999</ele>
        <time>2015-01-31T08:21:35Z</time>
      </trkpt>
      <trkpt lat="46.151735186576843" lon="8.193884259089828">
        <ele>1643.03</ele>
        <time>2015-01-31T08:21:49Z</time>
      </trkpt>
      <trkpt lat="46.151682380586863" lon="8.193707568570972">
        <ele>1644.47</ele>
        <time>2015-01-31T08:22:02Z</time>
      </trkpt>
      <trkpt lat="46.151595041155815" lon="8.193569770082831">
        <ele>1645.9100000000001</ele>
        <time>2015-01-31T08:22:17Z</time>
      </trkpt>
      <trkpt lat="46.151553047820926" lon="8.193495087325573">
        <ele>1646.4000000000001</ele>
        <time>2015-01-31T08:22:32Z</time>
      </trkpt>
      <trkpt lat="46.151464115828276" lon="8.193313702940941">
        <ele>1646.4000000000001</ele>
        <time>2015-01-31T08:22:47Z</time>
      </trkpt>
      <trkpt lat="46.151413824409246" lon="8.193143717944622">
        <ele>1645.9100000000001</ele>
        <time>2015-01-31T08:23:00Z</time>
      </trkpt>
      <trkpt lat="46.151353558525443" lon="8.192969374358654">
        <ele>1645.9100000000001</ele>
        <time>2015-01-31T08:23:14Z</time>
      </trkpt>
      <trkpt lat="46.151335956528783" lon="8.19278153590858">
        <ele>1646.8800000000001</ele>
        <time>2015-01-31T08:23:28Z</time>
      </trkpt>
      <trkpt lat="46.151341907680035" lon="8.192725544795394">
        <ele>1646.8800000000001</ele>
        <time>2015-01-31T08:23:32Z</time>
      </trkpt>
      <trkpt lat="46.151352552697062" lon="8.192539634183049">
        <ele>1647.3599999999999</ele>
        <time>2015-01-31T08:23:45Z</time>
      </trkpt>
      <trkpt lat="46.151337800547481" lon="8.19231491535902">
        <ele>1647.8399999999999</ele>
        <time>2015-01-31T08:23:59Z</time>
      </trkpt>
      <trkpt lat="46.151331681758165" lon="8.192209722474217">
        <ele>1647.8399999999999</ele>
        <time>2015-01-31T08:24:06Z</time>
      </trkpt>
      <trkpt lat="46.151333190500736" lon="8.192010316997767">
        <ele>1647.8399999999999</ele>
        <time>2015-01-31T08:24:19Z</time>
      </trkpt>
      <trkpt lat="46.151313576847315" lon="8.191786017268896">
        <ele>1648.3199999999999</ele>
        <time>2015-01-31T08:24:33Z</time>
      </trkpt>
      <trkpt lat="46.151280635967851" lon="8.191582085564733">
        <ele>1647.8399999999999</ele>
        <time>2015-01-31T08:24:46Z</time>
      </trkpt>
      <trkpt lat="46.151266973465681" lon="8.19132492877543">
        <ele>1648.3199999999999</ele>
        <time>2015-01-31T08:25:02Z</time>
      </trkpt>
      <trkpt lat="46.15127912722528" lon="8.191092666238546">
        <ele>1648.3199999999999</ele>
        <time>2015-01-31T08:25:18Z</time>
      </trkpt>
      <trkpt lat="46.151252891868353" lon="8.191110687330365">
        <ele>1647.8399999999999</ele>
        <time>2015-01-31T08:25:37Z</time>
      </trkpt>
      <trkpt lat="46.151277618482709" lon="8.19097314029932">
        <ele>1648.3199999999999</ele>
        <time>2015-01-31T08:25:51Z</time>
      </trkpt>
      <trkpt lat="46.151306536048651" lon="8.190806927159429">
        <ele>1648.8</ele>
        <time>2015-01-31T08:26:02Z</time>
      </trkpt>
      <trkpt lat="46.151370322331786" lon="8.190593272447586">
        <ele>1649.76</ele>
        <time>2015-01-31T08:26:17Z</time>
      </trkpt>
      <trkpt lat="46.151419524103403" lon="8.1904630176723">
        <ele>1649.28</ele>
        <time>2015-01-31T08:26:26Z</time>
      </trkpt>
      <trkpt lat="46.151446765288711" lon="8.190368469804525">
        <ele>1650.24</ele>
        <time>2015-01-31T08:26:33Z</time>
      </trkpt>
      <trkpt lat="46.151449531316757" lon="8.190270066261292">
        <ele>1650.24</ele>
        <time>2015-01-31T08:26:39Z</time>
      </trkpt>
      <trkpt lat="46.151446681469679" lon="8.190236622467637">
        <ele>1650.24</ele>
        <time>2015-01-31T08:26:41Z</time>
      </trkpt>
      <trkpt lat="46.151458751410246" lon="8.190146181732416">
        <ele>1650.24</ele>
        <time>2015-01-31T08:26:47Z</time>
      </trkpt>
      <trkpt lat="46.151468809694052" lon="8.190099243074656">
        <ele>1650.24</ele>
        <time>2015-01-31T08:26:50Z</time>
      </trkpt>
      <trkpt lat="46.151535278186202" lon="8.189916349947453">
        <ele>1650.72</ele>
        <time>2015-01-31T08:27:03Z</time>
      </trkpt>
      <trkpt lat="46.151583222672343" lon="8.189805038273335">
        <ele>1651.2</ele>
        <time>2015-01-31T08:27:11Z</time>
      </trkpt>
      <trkpt lat="46.151600489392877" lon="8.189770504832268">
        <ele>1650.72</ele>
        <time>2015-01-31T08:27:14Z</time>
      </trkpt>
      <trkpt lat="46.151616750285029" lon="8.189730690792203">
        <ele>1651.2</ele>
        <time>2015-01-31T08:27:17Z</time>
      </trkpt>
      <trkpt lat="46.151694618165493" lon="8.189590629190207">
        <ele>1651.6800000000001</ele>
        <time>2015-01-31T08:27:29Z</time>
      </trkpt>
      <trkpt lat="46.15175899118185" lon="8.189391475170851">
        <ele>1652.1600000000001</ele>
        <time>2015-01-31T08:27:43Z</time>
      </trkpt>
      <trkpt lat="46.151821436360478" lon="8.18920430727303">
        <ele>1653.1199999999999</ele>
        <time>2015-01-31T08:27:57Z</time>
      </trkpt>
      <trkpt lat="46.151867704465985" lon="8.189016133546829">
        <ele>1655.05</ele>
        <time>2015-01-31T08:28:12Z</time>
      </trkpt>
      <trkpt lat="46.151946578174829" lon="8.188821170479059">
        <ele>1656.97</ele>
        <time>2015-01-31T08:28:29Z</time>
      </trkpt>
      <trkpt lat="46.152046155184507" lon="8.188643977046013">
        <ele>1658.4100000000001</ele>
        <time>2015-01-31T08:28:46Z</time>
      </trkpt>
      <trkpt lat="46.15209024399519" lon="8.188464269042015">
        <ele>1659.3699999999999</ele>
        <time>2015-01-31T08:29:01Z</time>
      </trkpt>
      <trkpt lat="46.152119161561131" lon="8.188279531896114">
        <ele>1660.8099999999999</ele>
        <time>2015-01-31T08:29:16Z</time>
      </trkpt>
      <trkpt lat="46.152136344462633" lon="8.1880765222013">
        <ele>1662.26</ele>
        <time>2015-01-31T08:29:31Z</time>
      </trkpt>
      <trkpt lat="46.152224689722061" lon="8.187878793105483">
        <ele>1663.7</ele>
        <time>2015-01-31T08:29:49Z</time>
      </trkpt>
      <trkpt lat="46.152293756604195" lon="8.187705287709832">
        <ele>1664.1800000000001</ele>
        <time>2015-01-31T08:30:03Z</time>
      </trkpt>
      <trkpt lat="46.1523194052279" lon="8.187501523643732">
        <ele>1663.7</ele>
        <time>2015-01-31T08:30:17Z</time>
      </trkpt>
      <trkpt lat="46.152316806837916" lon="8.187417285516858">
        <ele>1664.1800000000001</ele>
        <time>2015-01-31T08:30:29Z</time>
      </trkpt>
      <trkpt lat="46.152321333065629" lon="8.187357522547245">
        <ele>1664.1800000000001</ele>
        <time>2015-01-31T08:30:33Z</time>
      </trkpt>
      <trkpt lat="46.152329128235579" lon="8.187163565307856">
        <ele>1664.6600000000001</ele>
        <time>2015-01-31T08:30:47Z</time>
      </trkpt>
      <trkpt lat="46.152364416047931" lon="8.186978409066796">
        <ele>1665.1400000000001</ele>
        <time>2015-01-31T08:31:00Z</time>
      </trkpt>
      <trkpt lat="46.152427280321717" lon="8.186872964724898">
        <ele>1665.6199999999999</ele>
        <time>2015-01-31T08:31:11Z</time>
      </trkpt>
      <trkpt lat="46.152500789612532" lon="8.18670691922307">
        <ele>1667.54</ele>
        <time>2015-01-31T08:31:26Z</time>
      </trkpt>
      <trkpt lat="46.152557032182813" lon="8.186587393283844">
        <ele>1669.47</ele>
        <time>2015-01-31T08:31:38Z</time>
      </trkpt>
      <trkpt lat="46.15258620120585" lon="8.186530144885182">
        <ele>1670.4300000000001</ele>
        <time>2015-01-31T08:31:45Z</time>
      </trkpt>
      <trkpt lat="46.15259894169867" lon="8.186511369422078">
        <ele>1670.9100000000001</ele>
        <time>2015-01-31T08:31:47Z</time>
      </trkpt>
      <trkpt lat="46.152716875076294" lon="8.186402069404721">
        <ele>1672.8299999999999</ele>
        <time>2015-01-31T08:32:04Z</time>
      </trkpt>
      <trkpt lat="46.152817290276289" lon="8.186300648376346">
        <ele>1674.75</ele>
        <time>2015-01-31T08:32:19Z</time>
      </trkpt>
      <trkpt lat="46.152819637209177" lon="8.18630182184279">
        <ele>1675.23</ele>
        <time>2015-01-31T08:32:31Z</time>
      </trkpt>
      <trkpt lat="46.152815446257591" lon="8.186323111876845">
        <ele>1675.23</ele>
        <time>2015-01-31T08:32:49Z</time>
      </trkpt>
      <trkpt lat="46.152828522026539" lon="8.186284303665161">
        <ele>1675.23</ele>
        <time>2015-01-31T08:33:11Z</time>
      </trkpt>
      <trkpt lat="46.152856601402164" lon="8.186286566779017">
        <ele>1674.75</ele>
        <time>2015-01-31T08:33:36Z</time>
      </trkpt>
      <trkpt lat="46.152855427935719" lon="8.186275670304894">
        <ele>1675.23</ele>
        <time>2015-01-31T08:33:52Z</time>
      </trkpt>
      <trkpt lat="46.152857020497322" lon="8.186239963397384">
        <ele>1675.23</ele>
        <time>2015-01-31T08:33:55Z</time>
      </trkpt>
      <trkpt lat="46.152851823717356" lon="8.186022536829114">
        <ele>1674.27</ele>
        <time>2015-01-31T08:34:09Z</time>
      </trkpt>
      <trkpt lat="46.15287353284657" lon="8.185828747227788">
        <ele>1674.27</ele>
        <time>2015-01-31T08:34:22Z</time>
      </trkpt>
      <trkpt lat="46.152918124571443" lon="8.185677118599415">
        <ele>1676.2</ele>
        <time>2015-01-31T08:34:36Z</time>
      </trkpt>
      <trkpt lat="46.152938827872276" lon="8.185594137758017">
        <ele>1677.1600000000001</ele>
        <time>2015-01-31T08:34:42Z</time>
      </trkpt>
      <trkpt lat="46.152953077107668" lon="8.185556251555681">
        <ele>1677.1600000000001</ele>
        <time>2015-01-31T08:34:45Z</time>
      </trkpt>
      <trkpt lat="46.152965147048235" lon="8.185515431687236">
        <ele>1677.1600000000001</ele>
        <time>2015-01-31T08:34:48Z</time>
      </trkpt>
      <trkpt lat="46.153027005493641" lon="8.185430187731981">
        <ele>1678.1199999999999</ele>
        <time>2015-01-31T08:34:58Z</time>
      </trkpt>
      <trkpt lat="46.153130773454905" lon="8.18529674783349">
        <ele>1679.0799999999999</ele>
        <time>2015-01-31T08:35:13Z</time>
      </trkpt>
      <trkpt lat="46.153153236955404" lon="8.185225417837501">
        <ele>1679.0799999999999</ele>
        <time>2015-01-31T08:35:18Z</time>
      </trkpt>
      <trkpt lat="46.153153656050563" lon="8.185108071193099">
        <ele>1679.5599999999999</ele>
        <time>2015-01-31T08:35:31Z</time>
      </trkpt>
      <trkpt lat="46.153173353523016" lon="8.184990053996444">
        <ele>1679.5599999999999</ele>
        <time>2015-01-31T08:35:38Z</time>
      </trkpt>
      <trkpt lat="46.1532829888165" lon="8.18481981754303">
        <ele>1680.04</ele>
        <time>2015-01-31T08:35:54Z</time>
      </trkpt>
      <trkpt lat="46.153400000184774" lon="8.184697609394789">
        <ele>1681</ele>
        <time>2015-01-31T08:36:09Z</time>
      </trkpt>
      <trkpt lat="46.153494212776423" lon="8.184534246101975">
        <ele>1681.48</ele>
        <time>2015-01-31T08:36:23Z</time>
      </trkpt>
      <trkpt lat="46.153539223596454" lon="8.184458054602146">
        <ele>1682.9300000000001</ele>
        <time>2015-01-31T08:36:30Z</time>
      </trkpt>
      <trkpt lat="46.153614157810807" lon="8.184227887541056">
        <ele>1682.9300000000001</ele>
        <time>2015-01-31T08:36:46Z</time>
      </trkpt>
      <trkpt lat="46.153623210266232" lon="8.184185978025198">
        <ele>1682.9300000000001</ele>
        <time>2015-01-31T08:36:48Z</time>
      </trkpt>
      <trkpt lat="46.153633520007133" lon="8.184159407392144">
        <ele>1682.9300000000001</ele>
        <time>2015-01-31T08:36:50Z</time>
      </trkpt>
      <trkpt lat="46.153653301298618" lon="8.183936616405845">
        <ele>1681.96</ele>
        <time>2015-01-31T08:37:05Z</time>
      </trkpt>
      <trkpt lat="46.153651373460889" lon="8.183765541762114">
        <ele>1682.4400000000001</ele>
        <time>2015-01-31T08:37:16Z</time>
      </trkpt>
      <trkpt lat="46.153646763414145" lon="8.183753304183483">
        <ele>1682.9300000000001</ele>
        <time>2015-01-31T08:37:17Z</time>
      </trkpt>
      <trkpt lat="46.153607619926333" lon="8.183552138507366">
        <ele>1683.4100000000001</ele>
        <time>2015-01-31T08:37:31Z</time>
      </trkpt>
      <trkpt lat="46.153609296306968" lon="8.183534201234579">
        <ele>1682.9300000000001</ele>
        <time>2015-01-31T08:37:45Z</time>
      </trkpt>
      <trkpt lat="46.1535903532058" lon="8.183498326689005">
        <ele>1682.9300000000001</ele>
        <time>2015-01-31T08:37:59Z</time>
      </trkpt>
      <trkpt lat="46.153543582186103" lon="8.183345776051283">
        <ele>1685.8099999999999</ele>
        <time>2015-01-31T08:38:15Z</time>
      </trkpt>
      <trkpt lat="46.153534026816487" lon="8.183188699185848">
        <ele>1687.73</ele>
        <time>2015-01-31T08:38:30Z</time>
      </trkpt>
      <trkpt lat="46.153525561094284" lon="8.183049308136106">
        <ele>1689.6500000000001</ele>
        <time>2015-01-31T08:38:46Z</time>
      </trkpt>
      <trkpt lat="46.15349899046123" lon="8.182879909873009">
        <ele>1691.0999999999999</ele>
        <time>2015-01-31T08:39:03Z</time>
      </trkpt>
      <trkpt lat="46.153481723740697" lon="8.182745212689042">
        <ele>1691.5799999999999</ele>
        <time>2015-01-31T08:39:16Z</time>
      </trkpt>
      <trkpt lat="46.153462696820498" lon="8.182557458058">
        <ele>1693.02</ele>
        <time>2015-01-31T08:39:32Z</time>
      </trkpt>
      <trkpt lat="46.153439311310649" lon="8.182395938783884">
        <ele>1694.46</ele>
        <time>2015-01-31T08:39:46Z</time>
      </trkpt>
      <trkpt lat="46.153416009619832" lon="8.182218410074711">
        <ele>1695.4200000000001</ele>
        <time>2015-01-31T08:40:02Z</time>
      </trkpt>
      <trkpt lat="46.153397569432855" lon="8.182023949921131">
        <ele>1697.3399999999999</ele>
        <time>2015-01-31T08:40:18Z</time>
      </trkpt>
      <trkpt lat="46.153403269127011" lon="8.18194717168808">
        <ele>1698.3099999999999</ele>
        <time>2015-01-31T08:40:25Z</time>
      </trkpt>
      <trkpt lat="46.153416931629181" lon="8.181862095370889">
        <ele>1699.27</ele>
        <time>2015-01-31T08:40:33Z</time>
      </trkpt>
      <trkpt lat="46.153408465906978" lon="8.181878020986915">
        <ele>1699.27</ele>
        <time>2015-01-31T08:40:46Z</time>
      </trkpt>
      <trkpt lat="46.153393713757396" lon="8.181880787014961">
        <ele>1699.27</ele>
        <time>2015-01-31T08:41:05Z</time>
      </trkpt>
      <trkpt lat="46.153397904708982" lon="8.181858155876398">
        <ele>1698.79</ele>
        <time>2015-01-31T08:41:25Z</time>
      </trkpt>
      <trkpt lat="46.15338901989162" lon="8.181900149211288">
        <ele>1699.27</ele>
        <time>2015-01-31T08:41:45Z</time>
      </trkpt>
      <trkpt lat="46.153372758999467" lon="8.181883972138166">
        <ele>1699.27</ele>
        <time>2015-01-31T08:42:03Z</time>
      </trkpt>
      <trkpt lat="46.153397737070918" lon="8.181847678497434">
        <ele>1698.3099999999999</ele>
        <time>2015-01-31T08:42:16Z</time>
      </trkpt>
      <trkpt lat="46.153397569432855" lon="8.181867711246014">
        <ele>1699.27</ele>
        <time>2015-01-31T08:42:30Z</time>
      </trkpt>
      <trkpt lat="46.153413243591785" lon="8.181811049580574">
        <ele>1699.27</ele>
        <time>2015-01-31T08:42:56Z</time>
      </trkpt>
      <trkpt lat="46.153423637151718" lon="8.181782551109791">
        <ele>1699.27</ele>
        <time>2015-01-31T08:42:58Z</time>
      </trkpt>
      <trkpt lat="46.153441406786442" lon="8.181726979091764">
        <ele>1699.27</ele>
        <time>2015-01-31T08:43:02Z</time>
      </trkpt>
      <trkpt lat="46.153462780639529" lon="8.181614577770233">
        <ele>1700.23</ele>
        <time>2015-01-31T08:43:10Z</time>
      </trkpt>
      <trkpt lat="46.153468647971749" lon="8.181588677689433">
        <ele>1700.23</ele>
        <time>2015-01-31T08:43:12Z</time>
      </trkpt>
      <trkpt lat="46.153505276888609" lon="8.181427242234349">
        <ele>1700.71</ele>
        <time>2015-01-31T08:43:26Z</time>
      </trkpt>
      <trkpt lat="46.153533356264234" lon="8.181353816762567">
        <ele>1702.1500000000001</ele>
        <time>2015-01-31T08:43:40Z</time>
      </trkpt>
      <trkpt lat="46.153544839471579" lon="8.181264298036695">
        <ele>1703.1099999999999</ele>
        <time>2015-01-31T08:44:00Z</time>
      </trkpt>
      <trkpt lat="46.153542408719659" lon="8.181116189807653">
        <ele>1704.0699999999999</ele>
        <time>2015-01-31T08:44:12Z</time>
      </trkpt>
      <trkpt lat="46.153540899977088" lon="8.180970763787627">
        <ele>1704.0699999999999</ele>
        <time>2015-01-31T08:44:23Z</time>
      </trkpt>
      <trkpt lat="46.153572667390108" lon="8.180788792669773">
        <ele>1705.04</ele>
        <time>2015-01-31T08:44:37Z</time>
      </trkpt>
      <trkpt lat="46.153609799221158" lon="8.180672619491816">
        <ele>1705.52</ele>
        <time>2015-01-31T08:44:48Z</time>
      </trkpt>
      <trkpt lat="46.153743155300617" lon="8.180610174313188">
        <ele>1706</ele>
        <time>2015-01-31T08:45:03Z</time>
      </trkpt>
      <trkpt lat="46.15384541451931" lon="8.180530043318868">
        <ele>1707.9200000000001</ele>
        <time>2015-01-31T08:45:18Z</time>
      </trkpt>
      <trkpt lat="46.153926970437169" lon="8.180482601746917">
        <ele>1711.28</ele>
        <time>2015-01-31T08:45:33Z</time>
      </trkpt>
      <trkpt lat="46.153992600739002" lon="8.180463826283813">
        <ele>1712.73</ele>
        <time>2015-01-31T08:45:48Z</time>
      </trkpt>
      <trkpt lat="46.154078096151352" lon="8.180416049435735">
        <ele>1714.6500000000001</ele>
        <time>2015-01-31T08:46:04Z</time>
      </trkpt>
      <trkpt lat="46.154114808887243" lon="8.180317478254437">
        <ele>1717.05</ele>
        <time>2015-01-31T08:46:21Z</time>
      </trkpt>
      <trkpt lat="46.154201226308942" lon="8.180161910131574">
        <ele>1719.46</ele>
        <time>2015-01-31T08:46:39Z</time>
      </trkpt>
      <trkpt lat="46.15426367148757" lon="8.180023189634085">
        <ele>1721.8599999999999</ele>
        <time>2015-01-31T08:46:55Z</time>
      </trkpt>
      <trkpt lat="46.154331900179386" lon="8.179909363389015">
        <ele>1724.74</ele>
        <time>2015-01-31T08:47:12Z</time>
      </trkpt>
      <trkpt lat="46.154322931542993" lon="8.179718423634768">
        <ele>1727.6300000000001</ele>
        <time>2015-01-31T08:47:30Z</time>
      </trkpt>
      <trkpt lat="46.154321758076549" lon="8.179591689258814">
        <ele>1730.03</ele>
        <time>2015-01-31T08:47:46Z</time>
      </trkpt>
      <trkpt lat="46.154320584610105" lon="8.179419357329607">
        <ele>1731.95</ele>
        <time>2015-01-31T08:48:03Z</time>
      </trkpt>
      <trkpt lat="46.154320668429136" lon="8.179305614903569">
        <ele>1733.8800000000001</ele>
        <time>2015-01-31T08:48:17Z</time>
      </trkpt>
      <trkpt lat="46.154305245727301" lon="8.179177707061172">
        <ele>1736.76</ele>
        <time>2015-01-31T08:48:35Z</time>
      </trkpt>
      <trkpt lat="46.154276663437486" lon="8.179068742319942">
        <ele>1739.1600000000001</ele>
        <time>2015-01-31T08:48:51Z</time>
      </trkpt>
      <trkpt lat="46.154251517727971" lon="8.178915437310934">
        <ele>1741.5699999999999</ele>
        <time>2015-01-31T08:49:09Z</time>
      </trkpt>
      <trkpt lat="46.15425830706954" lon="8.178763976320624">
        <ele>1743.97</ele>
        <time>2015-01-31T08:49:27Z</time>
      </trkpt>
      <trkpt lat="46.154281944036484" lon="8.178678564727306">
        <ele>1746.3699999999999</ele>
        <time>2015-01-31T08:49:41Z</time>
      </trkpt>
      <trkpt lat="46.154399709776044" lon="8.178716031834483">
        <ele>1747.8099999999999</ele>
        <time>2015-01-31T08:49:56Z</time>
      </trkpt>
      <trkpt lat="46.154394848272204" lon="8.178664399310947">
        <ele>1749.74</ele>
        <time>2015-01-31T08:50:09Z</time>
      </trkpt>
      <trkpt lat="46.154357381165028" lon="8.178584016859531">
        <ele>1750.7</ele>
        <time>2015-01-31T08:50:27Z</time>
      </trkpt>
      <trkpt lat="46.154331648722291" lon="8.178585106506944">
        <ele>1750.7</ele>
        <time>2015-01-31T08:50:41Z</time>
      </trkpt>
      <trkpt lat="46.154334750026464" lon="8.178588207811117">
        <ele>1750.7</ele>
        <time>2015-01-31T08:51:02Z</time>
      </trkpt>
      <trkpt lat="46.154350508004427" lon="8.178576473146677">
        <ele>1750.22</ele>
        <time>2015-01-31T08:51:17Z</time>
      </trkpt>
      <trkpt lat="46.154338102787733" lon="8.178564822301269">
        <ele>1751.1800000000001</ele>
        <time>2015-01-31T08:51:33Z</time>
      </trkpt>
      <trkpt lat="46.154354447498918" lon="8.178562223911285">
        <ele>1751.6600000000001</ele>
        <time>2015-01-31T08:51:46Z</time>
      </trkpt>
      <trkpt lat="46.154418652877212" lon="8.178568258881569">
        <ele>1752.6199999999999</ele>
        <time>2015-01-31T08:52:00Z</time>
      </trkpt>
      <trkpt lat="46.154452264308929" lon="8.178524002432823">
        <ele>1754.0599999999999</ele>
        <time>2015-01-31T08:52:13Z</time>
      </trkpt>
      <trkpt lat="46.154432231560349" lon="8.178540347144008">
        <ele>1754.54</ele>
        <time>2015-01-31T08:52:28Z</time>
      </trkpt>
      <trkpt lat="46.154436338692904" lon="8.178574629127979">
        <ele>1754.0599999999999</ele>
        <time>2015-01-31T08:52:47Z</time>
      </trkpt>
      <trkpt lat="46.154452683404088" lon="8.178533054888248">
        <ele>1753.5799999999999</ele>
        <time>2015-01-31T08:52:56Z</time>
      </trkpt>
      <trkpt lat="46.154449079185724" lon="8.178479662165046">
        <ele>1753.0999999999999</ele>
        <time>2015-01-31T08:53:00Z</time>
      </trkpt>
      <trkpt lat="46.154480259865522" lon="8.178381761536002">
        <ele>1753.0999999999999</ele>
        <time>2015-01-31T08:53:12Z</time>
      </trkpt>
      <trkpt lat="46.15457003004849" lon="8.1783611420542">
        <ele>1753.5799999999999</ele>
        <time>2015-01-31T08:53:26Z</time>
      </trkpt>
      <trkpt lat="46.154683018103242" lon="8.178274389356375">
        <ele>1754.54</ele>
        <time>2015-01-31T08:53:45Z</time>
      </trkpt>
      <trkpt lat="46.154752671718597" lon="8.178191492334008">
        <ele>1755.99</ele>
        <time>2015-01-31T08:54:01Z</time>
      </trkpt>
      <trkpt lat="46.154807908460498" lon="8.178137512877584">
        <ele>1756.47</ele>
        <time>2015-01-31T08:54:14Z</time>
      </trkpt>
      <trkpt lat="46.154870186001062" lon="8.178046569228172">
        <ele>1755.99</ele>
        <time>2015-01-31T08:54:31Z</time>
      </trkpt>
      <trkpt lat="46.154876472428441" lon="8.178037600591779">
        <ele>1755.5</ele>
        <time>2015-01-31T08:54:50Z</time>
      </trkpt>
      <trkpt lat="46.154940342530608" lon="8.17798487842083">
        <ele>1755.5</ele>
        <time>2015-01-31T08:55:03Z</time>
      </trkpt>
      <trkpt lat="46.154985688626766" lon="8.177843056619167">
        <ele>1757.4300000000001</ele>
        <time>2015-01-31T08:55:19Z</time>
      </trkpt>
      <trkpt lat="46.154992394149303" lon="8.177820425480604">
        <ele>1757.9100000000001</ele>
        <time>2015-01-31T08:55:21Z</time>
      </trkpt>
      <trkpt lat="46.155020976439118" lon="8.177620181813836">
        <ele>1759.3499999999999</ele>
        <time>2015-01-31T08:55:38Z</time>
      </trkpt>
      <trkpt lat="46.155021898448467" lon="8.177475342527032">
        <ele>1760.79</ele>
        <time>2015-01-31T08:55:52Z</time>
      </trkpt>
      <trkpt lat="46.155029693618417" lon="8.177325809374452">
        <ele>1761.27</ele>
        <time>2015-01-31T08:56:05Z</time>
      </trkpt>
      <trkpt lat="46.155079146847129" lon="8.177184825763106">
        <ele>1762.71</ele>
        <time>2015-01-31T08:56:21Z</time>
      </trkpt>
      <trkpt lat="46.155105633661151" lon="8.177054822444916">
        <ele>1765.1199999999999</ele>
        <time>2015-01-31T08:56:36Z</time>
      </trkpt>
      <trkpt lat="46.155096748843789" lon="8.177073765546084">
        <ele>1765.1199999999999</ele>
        <time>2015-01-31T08:56:53Z</time>
      </trkpt>
      <trkpt lat="46.155112087726593" lon="8.177011739462614">
        <ele>1765.1199999999999</ele>
        <time>2015-01-31T08:57:12Z</time>
      </trkpt>
      <trkpt lat="46.155157601460814" lon="8.176947953179479">
        <ele>1767.52</ele>
        <time>2015-01-31T08:57:26Z</time>
      </trkpt>
      <trkpt lat="46.155162462964654" lon="8.176837312057614">
        <ele>1768.96</ele>
        <time>2015-01-31T08:57:39Z</time>
      </trkpt>
      <trkpt lat="46.155232116580009" lon="8.176725162193179">
        <ele>1771.3699999999999</ele>
        <time>2015-01-31T08:57:55Z</time>
      </trkpt>
      <trkpt lat="46.155296573415399" lon="8.17658401094377">
        <ele>1773.29</ele>
        <time>2015-01-31T08:58:13Z</time>
      </trkpt>
      <trkpt lat="46.155285676941276" lon="8.176540592685342">
        <ele>1774.73</ele>
        <time>2015-01-31T08:58:28Z</time>
      </trkpt>
      <trkpt lat="46.155280647799373" lon="8.176582334563136">
        <ele>1774.25</ele>
        <time>2015-01-31T08:58:44Z</time>
      </trkpt>
      <trkpt lat="46.1552653927356" lon="8.176581831648946">
        <ele>1774.25</ele>
        <time>2015-01-31T08:58:59Z</time>
      </trkpt>
      <trkpt lat="46.155263213440776" lon="8.176590548828244">
        <ele>1774.25</ele>
        <time>2015-01-31T08:59:17Z</time>
      </trkpt>
      <trkpt lat="46.155258100479841" lon="8.176588034257293">
        <ele>1773.77</ele>
        <time>2015-01-31T08:59:32Z</time>
      </trkpt>
      <trkpt lat="46.15526245906949" lon="8.176504801958799">
        <ele>1774.25</ele>
        <time>2015-01-31T08:59:48Z</time>
      </trkpt>
      <trkpt lat="46.15529322065413" lon="8.176442608237267">
        <ele>1774.73</ele>
        <time>2015-01-31T09:00:04Z</time>
      </trkpt>
      <trkpt lat="46.155284000560641" lon="8.176428359001875">
        <ele>1774.73</ele>
        <time>2015-01-31T09:00:22Z</time>
      </trkpt>
      <trkpt lat="46.155283581465483" lon="8.176313694566488">
        <ele>1775.6900000000001</ele>
        <time>2015-01-31T09:00:45Z</time>
      </trkpt>
      <trkpt lat="46.155341165140271" lon="8.176211016252637">
        <ele>1777.6099999999999</ele>
        <time>2015-01-31T09:00:59Z</time>
      </trkpt>
      <trkpt lat="46.155366394668818" lon="8.176115043461323">
        <ele>1779.54</ele>
        <time>2015-01-31T09:01:16Z</time>
      </trkpt>
      <trkpt lat="46.155369579792023" lon="8.175964001566172">
        <ele>1781.46</ele>
        <time>2015-01-31T09:01:32Z</time>
      </trkpt>
      <trkpt lat="46.155376955866814" lon="8.175868699327111">
        <ele>1783.3800000000001</ele>
        <time>2015-01-31T09:01:46Z</time>
      </trkpt>
      <trkpt lat="46.15537335164845" lon="8.175744311884046">
        <ele>1785.79</ele>
        <time>2015-01-31T09:01:59Z</time>
      </trkpt>
      <trkpt lat="46.15539045073092" lon="8.175652110949159">
        <ele>1787.23</ele>
        <time>2015-01-31T09:02:14Z</time>
      </trkpt>
      <trkpt lat="46.155376536771655" lon="8.175540212541819">
        <ele>1789.1500000000001</ele>
        <time>2015-01-31T09:02:30Z</time>
      </trkpt>
      <trkpt lat="46.155361952260137" lon="8.175439294427633">
        <ele>1791.0699999999999</ele>
        <time>2015-01-31T09:02:45Z</time>
      </trkpt>
      <trkpt lat="46.155438981950283" lon="8.17538539879024">
        <ele>1793.48</ele>
        <time>2015-01-31T09:03:02Z</time>
      </trkpt>
      <trkpt lat="46.15544811822474" lon="8.175308620557189">
        <ele>1795.8800000000001</ele>
        <time>2015-01-31T09:03:20Z</time>
      </trkpt>
      <trkpt lat="46.155427666381001" lon="8.175197057425976">
        <ele>1797.8</ele>
        <time>2015-01-31T09:03:36Z</time>
      </trkpt>
      <trkpt lat="46.155514670535922" lon="8.175179623067379">
        <ele>1800.21</ele>
        <time>2015-01-31T09:03:50Z</time>
      </trkpt>
      <trkpt lat="46.155634112656116" lon="8.175189094617963">
        <ele>1802.1300000000001</ele>
        <time>2015-01-31T09:04:07Z</time>
      </trkpt>
      <trkpt lat="46.155658923089504" lon="8.175090104341507">
        <ele>1804.53</ele>
        <time>2015-01-31T09:04:23Z</time>
      </trkpt>
      <trkpt lat="46.155609805136919" lon="8.175020115450025">
        <ele>1806.45</ele>
        <time>2015-01-31T09:04:39Z</time>
      </trkpt>
      <trkpt lat="46.155536044389009" lon="8.174916682764888">
        <ele>1808.8599999999999</ele>
        <time>2015-01-31T09:04:55Z</time>
      </trkpt>
      <trkpt lat="46.155615337193012" lon="8.174921376630664">
        <ele>1810.78</ele>
        <time>2015-01-31T09:05:10Z</time>
      </trkpt>
      <trkpt lat="46.155599327757955" lon="8.174850130453706">
        <ele>1812.22</ele>
        <time>2015-01-31T09:05:21Z</time>
      </trkpt>
      <trkpt lat="46.155559848994017" lon="8.174757845699787">
        <ele>1814.1500000000001</ele>
        <time>2015-01-31T09:05:39Z</time>
      </trkpt>
      <trkpt lat="46.155528500676155" lon="8.174660615622997">
        <ele>1816.55</ele>
        <time>2015-01-31T09:05:56Z</time>
      </trkpt>
      <trkpt lat="46.155587760731578" lon="8.174626082181931">
        <ele>1818.47</ele>
        <time>2015-01-31T09:06:11Z</time>
      </trkpt>
      <trkpt lat="46.155704353004694" lon="8.174642845988274">
        <ele>1820.3900000000001</ele>
        <time>2015-01-31T09:06:27Z</time>
      </trkpt>
      <trkpt lat="46.155753973871469" lon="8.174637062475085">
        <ele>1821.8399999999999</ele>
        <time>2015-01-31T09:06:44Z</time>
      </trkpt>
      <trkpt lat="46.155730336904526" lon="8.174613174051046">
        <ele>1821.3499999999999</ele>
        <time>2015-01-31T09:07:05Z</time>
      </trkpt>
      <trkpt lat="46.15571684204042" lon="8.174631698057056">
        <ele>1821.3499999999999</ele>
        <time>2015-01-31T09:07:26Z</time>
      </trkpt>
      <trkpt lat="46.155719859525561" lon="8.174638152122498">
        <ele>1820.8699999999999</ele>
        <time>2015-01-31T09:07:56Z</time>
      </trkpt>
      <trkpt lat="46.155732851475477" lon="8.174604121595621">
        <ele>1821.3499999999999</ele>
        <time>2015-01-31T09:08:16Z</time>
      </trkpt>
      <trkpt lat="46.155728157609701" lon="8.174611246213317">
        <ele>1821.3499999999999</ele>
        <time>2015-01-31T09:08:38Z</time>
      </trkpt>
      <trkpt lat="46.155751124024391" lon="8.174603702500463">
        <ele>1821.3499999999999</ele>
        <time>2015-01-31T09:08:55Z</time>
      </trkpt>
      <trkpt lat="46.155871152877808" lon="8.174637397751212">
        <ele>1823.28</ele>
        <time>2015-01-31T09:09:13Z</time>
      </trkpt>
      <trkpt lat="46.155956229194999" lon="8.174601523205638">
        <ele>1825.2</ele>
        <time>2015-01-31T09:09:28Z</time>
      </trkpt>
      <trkpt lat="46.156031666323543" lon="8.174572605639696">
        <ele>1826.6400000000001</ele>
        <time>2015-01-31T09:09:43Z</time>
      </trkpt>
      <trkpt lat="46.156090339645743" lon="8.174646114930511">
        <ele>1828.0799999999999</ele>
        <time>2015-01-31T09:09:58Z</time>
      </trkpt>
      <trkpt lat="46.15614733658731" lon="8.174648880958557">
        <ele>1830.01</ele>
        <time>2015-01-31T09:10:13Z</time>
      </trkpt>
      <trkpt lat="46.156164687126875" lon="8.174682492390275">
        <ele>1829.53</ele>
        <time>2015-01-31T09:10:26Z</time>
      </trkpt>
      <trkpt lat="46.156218163669109" lon="8.174668997526169">
        <ele>1830.97</ele>
        <time>2015-01-31T09:10:40Z</time>
      </trkpt>
      <trkpt lat="46.156211122870445" lon="8.174615520983934">
        <ele>1832.4100000000001</ele>
        <time>2015-01-31T09:10:59Z</time>
      </trkpt>
      <trkpt lat="46.156216822564602" lon="8.17454494535923">
        <ele>1833.8499999999999</ele>
        <time>2015-01-31T09:11:13Z</time>
      </trkpt>
      <trkpt lat="46.156211458146572" lon="8.174571432173252">
        <ele>1834.3299999999999</ele>
        <time>2015-01-31T09:11:29Z</time>
      </trkpt>
      <trkpt lat="46.156212715432048" lon="8.174488535150886">
        <ele>1833.8499999999999</ele>
        <time>2015-01-31T09:11:44Z</time>
      </trkpt>
      <trkpt lat="46.156288236379623" lon="8.174355514347553">
        <ele>1836.26</ele>
        <time>2015-01-31T09:11:57Z</time>
      </trkpt>
      <trkpt lat="46.156296031549573" lon="8.174347719177604">
        <ele>1836.26</ele>
        <time>2015-01-31T09:12:00Z</time>
      </trkpt>
      <trkpt lat="46.156309191137552" lon="8.174335565418005">
        <ele>1836.26</ele>
        <time>2015-01-31T09:12:02Z</time>
      </trkpt>
      <trkpt lat="46.156332492828369" lon="8.174170861020684">
        <ele>1836.74</ele>
        <time>2015-01-31T09:12:12Z</time>
      </trkpt>
      <trkpt lat="46.156432740390301" lon="8.173995679244399">
        <ele>1836.74</ele>
        <time>2015-01-31T09:12:26Z</time>
      </trkpt>
      <trkpt lat="46.156508680433035" lon="8.173887887969613">
        <ele>1837.22</ele>
        <time>2015-01-31T09:12:41Z</time>
      </trkpt>
      <trkpt lat="46.156515385955572" lon="8.17389409057796">
        <ele>1837.22</ele>
        <time>2015-01-31T09:12:59Z</time>
      </trkpt>
      <trkpt lat="46.156518738716841" lon="8.173908088356257">
        <ele>1836.74</ele>
        <time>2015-01-31T09:13:31Z</time>
      </trkpt>
      <trkpt lat="46.156509015709162" lon="8.173891240730882">
        <ele>1836.74</ele>
        <time>2015-01-31T09:13:48Z</time>
      </trkpt>
      <trkpt lat="46.15647230297327" lon="8.173947734758258">
        <ele>1837.7</ele>
        <time>2015-01-31T09:14:01Z</time>
      </trkpt>
      <trkpt lat="46.156462328508496" lon="8.173934826627374">
        <ele>1837.7</ele>
        <time>2015-01-31T09:14:14Z</time>
      </trkpt>
      <trkpt lat="46.156433578580618" lon="8.173984112218022">
        <ele>1837.7</ele>
        <time>2015-01-31T09:14:25Z</time>
      </trkpt>
      <trkpt lat="46.156421508640051" lon="8.174034235998988">
        <ele>1837.7</ele>
        <time>2015-01-31T09:14:36Z</time>
      </trkpt>
      <trkpt lat="46.156407929956913" lon="8.174032727256417">
        <ele>1836.74</ele>
        <time>2015-01-31T09:15:05Z</time>
      </trkpt>
      <trkpt lat="46.15642293356359" lon="8.174000456929207">
        <ele>1836.74</ele>
        <time>2015-01-31T09:15:07Z</time>
      </trkpt>
      <trkpt lat="46.156474146991968" lon="8.17392636090517">
        <ele>1837.7</ele>
        <time>2015-01-31T09:15:23Z</time>
      </trkpt>
      <trkpt lat="46.156505243852735" lon="8.173915380612016">
        <ele>1838.1800000000001</ele>
        <time>2015-01-31T09:15:49Z</time>
      </trkpt>
      <trkpt lat="46.156476242467761" lon="8.173916302621365">
        <ele>1837.7</ele>
        <time>2015-01-31T09:16:17Z</time>
      </trkpt>
      <trkpt lat="46.156498538330197" lon="8.173833237960935">
        <ele>1837.7</ele>
        <time>2015-01-31T09:16:25Z</time>
      </trkpt>
      <trkpt lat="46.156543716788292" lon="8.173621511086822">
        <ele>1839.1400000000001</ele>
        <time>2015-01-31T09:16:40Z</time>
      </trkpt>
      <trkpt lat="46.156546398997307" lon="8.173604160547257">
        <ele>1839.1400000000001</ele>
        <time>2015-01-31T09:16:41Z</time>
      </trkpt>
      <trkpt lat="46.156557714566588" lon="8.173403078690171">
        <ele>1839.6199999999999</ele>
        <time>2015-01-31T09:16:57Z</time>
      </trkpt>
      <trkpt lat="46.156546985730529" lon="8.173251785337925">
        <ele>1842.5</ele>
        <time>2015-01-31T09:17:10Z</time>
      </trkpt>
      <trkpt lat="46.156536089256406" lon="8.173070820048451">
        <ele>1842.02</ele>
        <time>2015-01-31T09:17:25Z</time>
      </trkpt>
      <trkpt lat="46.156524773687124" lon="8.172832606360316">
        <ele>1842.02</ele>
        <time>2015-01-31T09:17:42Z</time>
      </trkpt>
      <trkpt lat="46.156498286873102" lon="8.172601936385036">
        <ele>1842.02</ele>
        <time>2015-01-31T09:17:58Z</time>
      </trkpt>
      <trkpt lat="46.156479427590966" lon="8.172422647476196">
        <ele>1842.02</ele>
        <time>2015-01-31T09:18:13Z</time>
      </trkpt>
      <trkpt lat="46.156454952433705" lon="8.172240257263184">
        <ele>1842.5</ele>
        <time>2015-01-31T09:18:27Z</time>
      </trkpt>
      <trkpt lat="46.15642293356359" lon="8.172027105465531">
        <ele>1842.5</ele>
        <time>2015-01-31T09:18:41Z</time>
      </trkpt>
      <trkpt lat="46.156460316851735" lon="8.171795262023807">
        <ele>1842.02</ele>
        <time>2015-01-31T09:18:57Z</time>
      </trkpt>
      <trkpt lat="46.156500969082117" lon="8.171663414686918">
        <ele>1842.02</ele>
        <time>2015-01-31T09:19:10Z</time>
      </trkpt>
      <trkpt lat="46.156500801444054" lon="8.171661654487252">
        <ele>1842.02</ele>
        <time>2015-01-31T09:19:13Z</time>
      </trkpt>
      <trkpt lat="46.156501471996307" lon="8.171633826568723">
        <ele>1842.5</ele>
        <time>2015-01-31T09:19:15Z</time>
      </trkpt>
      <trkpt lat="46.156514631584287" lon="8.171528549864888">
        <ele>1842.02</ele>
        <time>2015-01-31T09:19:31Z</time>
      </trkpt>
      <trkpt lat="46.156521001830697" lon="8.171525113284588">
        <ele>1842.02</ele>
        <time>2015-01-31T09:19:39Z</time>
      </trkpt>
      <trkpt lat="46.156574143096805" lon="8.171343393623829">
        <ele>1842.02</ele>
        <time>2015-01-31T09:19:53Z</time>
      </trkpt>
      <trkpt lat="46.156615298241377" lon="8.171097636222839">
        <ele>1842.02</ele>
        <time>2015-01-31T09:20:09Z</time>
      </trkpt>
      <trkpt lat="46.156657375395298" lon="8.170845676213503">
        <ele>1842.5</ele>
        <time>2015-01-31T09:20:25Z</time>
      </trkpt>
      <trkpt lat="46.156694171950221" lon="8.170666471123695">
        <ele>1842.98</ele>
        <time>2015-01-31T09:20:40Z</time>
      </trkpt>
      <trkpt lat="46.156728034839034" lon="8.170468155294657">
        <ele>1843.95</ele>
        <time>2015-01-31T09:20:54Z</time>
      </trkpt>
      <trkpt lat="46.156758377328515" lon="8.170274114236236">
        <ele>1843.95</ele>
        <time>2015-01-31T09:21:08Z</time>
      </trkpt>
      <trkpt lat="46.156799448654056" lon="8.170071858912706">
        <ele>1844.9100000000001</ele>
        <time>2015-01-31T09:21:24Z</time>
      </trkpt>
      <trkpt lat="46.156847393140197" lon="8.169867508113384">
        <ele>1845.8699999999999</ele>
        <time>2015-01-31T09:21:40Z</time>
      </trkpt>
      <trkpt lat="46.15688075311482" lon="8.169680088758469">
        <ele>1847.3099999999999</ele>
        <time>2015-01-31T09:21:55Z</time>
      </trkpt>
      <trkpt lat="46.156889805570245" lon="8.169629964977503">
        <ele>1847.3099999999999</ele>
        <time>2015-01-31T09:21:59Z</time>
      </trkpt>
      <trkpt lat="46.156903048977256" lon="8.169577494263649">
        <ele>1846.8299999999999</ele>
        <time>2015-01-31T09:22:03Z</time>
      </trkpt>
      <trkpt lat="46.1569007858634" lon="8.169369958341122">
        <ele>1847.79</ele>
        <time>2015-01-31T09:22:19Z</time>
      </trkpt>
      <trkpt lat="46.156884524971247" lon="8.169191339984536">
        <ele>1848.75</ele>
        <time>2015-01-31T09:22:33Z</time>
      </trkpt>
      <trkpt lat="46.1568783223629" lon="8.16902537830174">
        <ele>1850.6800000000001</ele>
        <time>2015-01-31T09:22:49Z</time>
      </trkpt>
      <trkpt lat="46.156888464465737" lon="8.169014984741807">
        <ele>1851.1600000000001</ele>
        <time>2015-01-31T09:23:02Z</time>
      </trkpt>
      <trkpt lat="46.156868347898126" lon="8.16891741938889">
        <ele>1852.1199999999999</ele>
        <time>2015-01-31T09:23:17Z</time>
      </trkpt>
      <trkpt lat="46.156851081177592" lon="8.168780878186226">
        <ele>1853.5599999999999</ele>
        <time>2015-01-31T09:23:31Z</time>
      </trkpt>
      <trkpt lat="46.156828282400966" lon="8.168650204315782">
        <ele>1855.48</ele>
        <time>2015-01-31T09:23:46Z</time>
      </trkpt>
      <trkpt lat="46.15678746253252" lon="8.168526906520128">
        <ele>1857.4000000000001</ele>
        <time>2015-01-31T09:24:02Z</time>
      </trkpt>
      <trkpt lat="46.156702805310488" lon="8.168369745835662">
        <ele>1858.3699999999999</ele>
        <time>2015-01-31T09:24:20Z</time>
      </trkpt>
      <trkpt lat="46.156655447557569" lon="8.168249716982245">
        <ele>1860.77</ele>
        <time>2015-01-31T09:24:37Z</time>
      </trkpt>
      <trkpt lat="46.156651256605983" lon="8.16812046803534">
        <ele>1863.1700000000001</ele>
        <time>2015-01-31T09:24:54Z</time>
      </trkpt>
      <trkpt lat="46.156611358746886" lon="8.168035559356213">
        <ele>1865.5799999999999</ele>
        <time>2015-01-31T09:25:08Z</time>
      </trkpt>
      <trkpt lat="46.156533993780613" lon="8.168013263493776">
        <ele>1867.5</ele>
        <time>2015-01-31T09:25:24Z</time>
      </trkpt>
      <trkpt lat="46.156461825594306" lon="8.167960122227669">
        <ele>1869.4200000000001</ele>
        <time>2015-01-31T09:25:40Z</time>
      </trkpt>
      <trkpt lat="46.156463921070099" lon="8.167857611551881">
        <ele>1871.3399999999999</ele>
        <time>2015-01-31T09:25:54Z</time>
      </trkpt>
      <trkpt lat="46.156467273831367" lon="8.167750993743539">
        <ele>1873.27</ele>
        <time>2015-01-31T09:26:09Z</time>
      </trkpt>
      <trkpt lat="46.156459394842386" lon="8.167660050094128">
        <ele>1876.1500000000001</ele>
        <time>2015-01-31T09:26:25Z</time>
      </trkpt>
      <trkpt lat="46.156370295211673" lon="8.167695254087448">
        <ele>1877.5899999999999</ele>
        <time>2015-01-31T09:26:40Z</time>
      </trkpt>
      <trkpt lat="46.156322350725532" lon="8.167685111984611">
        <ele>1879.03</ele>
        <time>2015-01-31T09:26:53Z</time>
      </trkpt>
      <trkpt lat="46.15628857165575" lon="8.167617218568921">
        <ele>1880.48</ele>
        <time>2015-01-31T09:27:08Z</time>
      </trkpt>
      <trkpt lat="46.156278094276786" lon="8.167521664872766">
        <ele>1882.4000000000001</ele>
        <time>2015-01-31T09:27:23Z</time>
      </trkpt>
      <trkpt lat="46.156318243592978" lon="8.167338855564594">
        <ele>1883.8399999999999</ele>
        <time>2015-01-31T09:27:39Z</time>
      </trkpt>
      <trkpt lat="46.156323021277785" lon="8.167316056787968">
        <ele>1884.3199999999999</ele>
        <time>2015-01-31T09:27:41Z</time>
      </trkpt>
      <trkpt lat="46.156344395130873" lon="8.167232824489474">
        <ele>1885.76</ele>
        <time>2015-01-31T09:27:55Z</time>
      </trkpt>
      <trkpt lat="46.156362080946565" lon="8.167200554162264">
        <ele>1886.24</ele>
        <time>2015-01-31T09:28:10Z</time>
      </trkpt>
      <trkpt lat="46.156370546668768" lon="8.167223520576954">
        <ele>1886.72</ele>
        <time>2015-01-31T09:28:36Z</time>
      </trkpt>
      <trkpt lat="46.156374905258417" lon="8.167121596634388">
        <ele>1888.1700000000001</ele>
        <time>2015-01-31T09:28:52Z</time>
      </trkpt>
      <trkpt lat="46.1563257034868" lon="8.16710701212287">
        <ele>1890.0899999999999</ele>
        <time>2015-01-31T09:29:06Z</time>
      </trkpt>
      <trkpt lat="46.156262839213014" lon="8.167128302156925">
        <ele>1892.01</ele>
        <time>2015-01-31T09:29:20Z</time>
      </trkpt>
      <trkpt lat="46.156235262751579" lon="8.167036352679133">
        <ele>1894.4200000000001</ele>
        <time>2015-01-31T09:29:35Z</time>
      </trkpt>
      <trkpt lat="46.156236939132214" lon="8.16689059138298">
        <ele>1896.8199999999999</ele>
        <time>2015-01-31T09:29:50Z</time>
      </trkpt>
      <trkpt lat="46.156278261914849" lon="8.16674399189651">
        <ele>1898.26</ele>
        <time>2015-01-31T09:30:08Z</time>
      </trkpt>
      <trkpt lat="46.156318075954914" lon="8.166659418493509">
        <ele>1899.7</ele>
        <time>2015-01-31T09:30:21Z</time>
      </trkpt>
      <trkpt lat="46.156386975198984" lon="8.166632177308202">
        <ele>1901.1400000000001</ele>
        <time>2015-01-31T09:30:36Z</time>
      </trkpt>
      <trkpt lat="46.156433494761586" lon="8.166598901152611">
        <ele>1903.0699999999999</ele>
        <time>2015-01-31T09:30:51Z</time>
      </trkpt>
      <trkpt lat="46.156412037089467" lon="8.166521955281496">
        <ele>1904.51</ele>
        <time>2015-01-31T09:31:08Z</time>
      </trkpt>
      <trkpt lat="46.156370965763927" lon="8.166436292231083">
        <ele>1907.3900000000001</ele>
        <time>2015-01-31T09:31:26Z</time>
      </trkpt>
      <trkpt lat="46.156370714306831" lon="8.166342582553625">
        <ele>1908.8299999999999</ele>
        <time>2015-01-31T09:31:40Z</time>
      </trkpt>
      <trkpt lat="46.156373312696815" lon="8.166268402710557">
        <ele>1910.76</ele>
        <time>2015-01-31T09:31:53Z</time>
      </trkpt>
      <trkpt lat="46.15632863715291" lon="8.166320202872157">
        <ele>1912.2</ele>
        <time>2015-01-31T09:32:08Z</time>
      </trkpt>
      <trkpt lat="46.156347999349236" lon="8.166198246181011">
        <ele>1914.1199999999999</ele>
        <time>2015-01-31T09:32:24Z</time>
      </trkpt>
      <trkpt lat="46.156418072059751" lon="8.166129849851131">
        <ele>1915.5599999999999</ele>
        <time>2015-01-31T09:32:40Z</time>
      </trkpt>
      <trkpt lat="46.156437853351235" lon="8.16612096503377">
        <ele>1916.53</ele>
        <time>2015-01-31T09:32:54Z</time>
      </trkpt>
      <trkpt lat="46.156424274668097" lon="8.166140159592032">
        <ele>1917.49</ele>
        <time>2015-01-31T09:33:07Z</time>
      </trkpt>
      <trkpt lat="46.156439697369933" lon="8.166125239804387">
        <ele>1917.01</ele>
        <time>2015-01-31T09:33:20Z</time>
      </trkpt>
      <trkpt lat="46.156445983797312" lon="8.166132112964988">
        <ele>1915.5599999999999</ele>
        <time>2015-01-31T09:33:34Z</time>
      </trkpt>
      <trkpt lat="46.156451934948564" lon="8.166125575080514">
        <ele>1915.5599999999999</ele>
        <time>2015-01-31T09:34:05Z</time>
      </trkpt>
      <trkpt lat="46.156419161707163" lon="8.166166814044118">
        <ele>1915.0799999999999</ele>
        <time>2015-01-31T09:34:26Z</time>
      </trkpt>
      <trkpt lat="46.156422011554241" lon="8.166169747710228">
        <ele>1915.5599999999999</ele>
        <time>2015-01-31T09:34:52Z</time>
      </trkpt>
      <trkpt lat="46.156431147828698" lon="8.166119121015072">
        <ele>1915.0799999999999</ele>
        <time>2015-01-31T09:35:17Z</time>
      </trkpt>
      <trkpt lat="46.156428968533874" lon="8.166121719405055">
        <ele>1914.5999999999999</ele>
        <time>2015-01-31T09:35:39Z</time>
      </trkpt>
      <trkpt lat="46.15643517114222" lon="8.166159521788359">
        <ele>1915.0799999999999</ele>
        <time>2015-01-31T09:36:01Z</time>
      </trkpt>
      <trkpt lat="46.156434332951903" lon="8.166148625314236">
        <ele>1914.5999999999999</ele>
        <time>2015-01-31T09:36:25Z</time>
      </trkpt>
      <trkpt lat="46.156445229426026" lon="8.166149044409394">
        <ele>1914.5999999999999</ele>
        <time>2015-01-31T09:36:50Z</time>
      </trkpt>
      <trkpt lat="46.15644053556025" lon="8.166134711354971">
        <ele>1914.1199999999999</ele>
        <time>2015-01-31T09:37:09Z</time>
      </trkpt>
      <trkpt lat="46.156434081494808" lon="8.166105709969997">
        <ele>1914.5999999999999</ele>
        <time>2015-01-31T09:37:29Z</time>
      </trkpt>
      <trkpt lat="46.156442798674107" lon="8.166075367480516">
        <ele>1914.5999999999999</ele>
        <time>2015-01-31T09:37:48Z</time>
      </trkpt>
      <trkpt lat="46.156434584408998" lon="8.1660814024508">
        <ele>1914.5999999999999</ele>
        <time>2015-01-31T09:38:02Z</time>
      </trkpt>
      <trkpt lat="46.156450342386961" lon="8.166031194850802">
        <ele>1916.53</ele>
        <time>2015-01-31T09:38:17Z</time>
      </trkpt>
      <trkpt lat="46.156453527510166" lon="8.165937904268503">
        <ele>1918.9300000000001</ele>
        <time>2015-01-31T09:38:31Z</time>
      </trkpt>
      <trkpt lat="46.156468782573938" lon="8.165838997811079">
        <ele>1921.3299999999999</ele>
        <time>2015-01-31T09:38:45Z</time>
      </trkpt>
      <trkpt lat="46.156477918848395" lon="8.165755430236459">
        <ele>1923.25</ele>
        <time>2015-01-31T09:38:59Z</time>
      </trkpt>
      <trkpt lat="46.156434081494808" lon="8.165672114118934">
        <ele>1925.6600000000001</ele>
        <time>2015-01-31T09:39:16Z</time>
      </trkpt>
      <trkpt lat="46.156392423436046" lon="8.165624840185046">
        <ele>1927.5799999999999</ele>
        <time>2015-01-31T09:39:31Z</time>
      </trkpt>
      <trkpt lat="46.156352357938886" lon="8.165546553209424">
        <ele>1929.02</ele>
        <time>2015-01-31T09:39:46Z</time>
      </trkpt>
      <trkpt lat="46.156305922195315" lon="8.165474385023117">
        <ele>1930.95</ele>
        <time>2015-01-31T09:39:59Z</time>
      </trkpt>
      <trkpt lat="46.156246410682797" lon="8.165418477728963">
        <ele>1932.8699999999999</ele>
        <time>2015-01-31T09:40:15Z</time>
      </trkpt>
      <trkpt lat="46.156198885291815" lon="8.165369443595409">
        <ele>1934.79</ele>
        <time>2015-01-31T09:40:29Z</time>
      </trkpt>
      <trkpt lat="46.156162172555923" lon="8.165297107771039">
        <ele>1936.71</ele>
        <time>2015-01-31T09:40:44Z</time>
      </trkpt>
      <trkpt lat="46.156183211132884" lon="8.165200212970376">
        <ele>1938.1600000000001</ele>
        <time>2015-01-31T09:40:56Z</time>
      </trkpt>
      <trkpt lat="46.156214978545904" lon="8.165123602375388">
        <ele>1939.5999999999999</ele>
        <time>2015-01-31T09:41:07Z</time>
      </trkpt>
      <trkpt lat="46.156227886676788" lon="8.165056379511952">
        <ele>1941.52</ele>
        <time>2015-01-31T09:41:20Z</time>
      </trkpt>
      <trkpt lat="46.156251188367605" lon="8.165004327893257">
        <ele>1942.96</ele>
        <time>2015-01-31T09:41:33Z</time>
      </trkpt>
      <trkpt lat="46.156271388754249" lon="8.16496535204351">
        <ele>1944.4000000000001</ele>
        <time>2015-01-31T09:41:51Z</time>
      </trkpt>
      <trkpt lat="46.156258145347238" lon="8.164874073117971">
        <ele>1946.8099999999999</ele>
        <time>2015-01-31T09:42:07Z</time>
      </trkpt>
      <trkpt lat="46.15627683699131" lon="8.164820177480578">
        <ele>1948.73</ele>
        <time>2015-01-31T09:42:23Z</time>
      </trkpt>
      <trkpt lat="46.156257977709174" lon="8.164823865517974">
        <ele>1948.73</ele>
        <time>2015-01-31T09:42:42Z</time>
      </trkpt>
      <trkpt lat="46.156263677403331" lon="8.16478606313467">
        <ele>1949.6900000000001</ele>
        <time>2015-01-31T09:43:06Z</time>
      </trkpt>
      <trkpt lat="46.156253283843398" lon="8.1647396273911">
        <ele>1952.0899999999999</ele>
        <time>2015-01-31T09:43:20Z</time>
      </trkpt>
      <trkpt lat="46.15619326941669" lon="8.16478556022048">
        <ele>1954.5</ele>
        <time>2015-01-31T09:43:35Z</time>
      </trkpt>
      <trkpt lat="46.156180528923869" lon="8.164782961830497">
        <ele>1954.5</ele>
        <time>2015-01-31T09:43:51Z</time>
      </trkpt>
      <trkpt lat="46.15616980008781" lon="8.164759324863553">
        <ele>1954.98</ele>
        <time>2015-01-31T09:44:09Z</time>
      </trkpt>
      <trkpt lat="46.156147755682468" lon="8.164686653763056">
        <ele>1957.3800000000001</ele>
        <time>2015-01-31T09:44:26Z</time>
      </trkpt>
      <trkpt lat="46.15614197216928" lon="8.164575006812811">
        <ele>1960.27</ele>
        <time>2015-01-31T09:44:41Z</time>
      </trkpt>
      <trkpt lat="46.156128980219364" lon="8.164490684866905">
        <ele>1961.71</ele>
        <time>2015-01-31T09:44:53Z</time>
      </trkpt>
      <trkpt lat="46.156124453991652" lon="8.164404854178429">
        <ele>1963.6300000000001</ele>
        <time>2015-01-31T09:45:06Z</time>
      </trkpt>
      <trkpt lat="46.156126046553254" lon="8.164283819496632">
        <ele>1965.0699999999999</ele>
        <time>2015-01-31T09:45:19Z</time>
      </trkpt>
      <trkpt lat="46.156142139807343" lon="8.164142835885286">
        <ele>1965.55</ele>
        <time>2015-01-31T09:45:35Z</time>
      </trkpt>
      <trkpt lat="46.156103415414691" lon="8.16403990611434">
        <ele>1966.51</ele>
        <time>2015-01-31T09:45:47Z</time>
      </trkpt>
      <trkpt lat="46.156071396544576" lon="8.16393630579114">
        <ele>1967.96</ele>
        <time>2015-01-31T09:46:02Z</time>
      </trkpt>
      <trkpt lat="46.156043652445078" lon="8.163821725174785">
        <ele>1968.9200000000001</ele>
        <time>2015-01-31T09:46:17Z</time>
      </trkpt>
      <trkpt lat="46.155999563634396" lon="8.163722986355424">
        <ele>1971.8</ele>
        <time>2015-01-31T09:46:35Z</time>
      </trkpt>
      <trkpt lat="46.155954468995333" lon="8.163673114031553">
        <ele>1973.24</ele>
        <time>2015-01-31T09:46:48Z</time>
      </trkpt>
      <trkpt lat="46.155897472053766" lon="8.163603292778134">
        <ele>1975.6500000000001</ele>
        <time>2015-01-31T09:47:02Z</time>
      </trkpt>
      <trkpt lat="46.155887749046087" lon="8.163444874808192">
        <ele>1978.53</ele>
        <time>2015-01-31T09:47:19Z</time>
      </trkpt>
      <trkpt lat="46.155860004946589" lon="8.163306573405862">
        <ele>1979.97</ele>
        <time>2015-01-31T09:47:34Z</time>
      </trkpt>
      <trkpt lat="46.155812982469797" lon="8.163220826536417">
        <ele>1982.3800000000001</ele>
        <time>2015-01-31T09:47:49Z</time>
      </trkpt>
      <trkpt lat="46.155808120965958" lon="8.163212444633246">
        <ele>1982.3800000000001</ele>
        <time>2015-01-31T09:47:50Z</time>
      </trkpt>
      <trkpt lat="46.155724553391337" lon="8.16304505802691">
        <ele>1983.8199999999999</ele>
        <time>2015-01-31T09:48:07Z</time>
      </trkpt>
      <trkpt lat="46.155687421560287" lon="8.162828385829926">
        <ele>1981.4100000000001</ele>
        <time>2015-01-31T09:48:22Z</time>
      </trkpt>
      <trkpt lat="46.155668897554278" lon="8.162703411653638">
        <ele>1980.45</ele>
        <time>2015-01-31T09:48:30Z</time>
      </trkpt>
      <trkpt lat="46.155670238658786" lon="8.162483554333448">
        <ele>1980.9300000000001</ele>
        <time>2015-01-31T09:48:46Z</time>
      </trkpt>
      <trkpt lat="46.155669819563627" lon="8.162469975650311">
        <ele>1980.9300000000001</ele>
        <time>2015-01-31T09:48:47Z</time>
      </trkpt>
      <trkpt lat="46.155628832057118" lon="8.162301247939467">
        <ele>1981.4100000000001</ele>
        <time>2015-01-31T09:49:01Z</time>
      </trkpt>
      <trkpt lat="46.155560351908207" lon="8.162118019536138">
        <ele>1981.9000000000001</ele>
        <time>2015-01-31T09:49:16Z</time>
      </trkpt>
      <trkpt lat="46.155521795153618" lon="8.16198131069541">
        <ele>1983.3399999999999</ele>
        <time>2015-01-31T09:49:31Z</time>
      </trkpt>
      <trkpt lat="46.155488351359963" lon="8.161819037050009">
        <ele>1984.78</ele>
        <time>2015-01-31T09:49:49Z</time>
      </trkpt>
      <trkpt lat="46.155483489856124" lon="8.161713927984238">
        <ele>1985.74</ele>
        <time>2015-01-31T09:50:00Z</time>
      </trkpt>
      <trkpt lat="46.155490027740598" lon="8.161524245515466">
        <ele>1985.26</ele>
        <time>2015-01-31T09:50:16Z</time>
      </trkpt>
      <trkpt lat="46.155487345531583" lon="8.161461716517806">
        <ele>1983.8199999999999</ele>
        <time>2015-01-31T09:50:30Z</time>
      </trkpt>
      <trkpt lat="46.155505701899529" lon="8.161442773416638">
        <ele>1983.8199999999999</ele>
        <time>2015-01-31T09:50:44Z</time>
      </trkpt>
      <trkpt lat="46.155507378280163" lon="8.161252252757549">
        <ele>1983.8199999999999</ele>
        <time>2015-01-31T09:51:00Z</time>
      </trkpt>
      <trkpt lat="46.155508970841765" lon="8.161102719604969">
        <ele>1986.22</ele>
        <time>2015-01-31T09:51:16Z</time>
      </trkpt>
      <trkpt lat="46.155522130429745" lon="8.160980427637696">
        <ele>1987.6600000000001</ele>
        <time>2015-01-31T09:51:31Z</time>
      </trkpt>
      <trkpt lat="46.155543504282832" lon="8.160881018266082">
        <ele>1989.0999999999999</ele>
        <time>2015-01-31T09:51:44Z</time>
      </trkpt>
      <trkpt lat="46.155539229512215" lon="8.160822596400976">
        <ele>1990.55</ele>
        <time>2015-01-31T09:52:00Z</time>
      </trkpt>
      <trkpt lat="46.155557250604033" lon="8.160726288333535">
        <ele>1992.47</ele>
        <time>2015-01-31T09:52:14Z</time>
      </trkpt>
      <trkpt lat="46.155576528981328" lon="8.160758558660746">
        <ele>1992.95</ele>
        <time>2015-01-31T09:52:30Z</time>
      </trkpt>
      <trkpt lat="46.155607206746936" lon="8.160761995241046">
        <ele>1992.47</ele>
        <time>2015-01-31T09:52:54Z</time>
      </trkpt>
      <trkpt lat="46.155583905056119" lon="8.16074950620532">
        <ele>1992.47</ele>
        <time>2015-01-31T09:53:18Z</time>
      </trkpt>
      <trkpt lat="46.15558298304677" lon="8.16072503104806">
        <ele>1992.95</ele>
        <time>2015-01-31T09:53:29Z</time>
      </trkpt>
      <trkpt lat="46.155580719932914" lon="8.160619670525193">
        <ele>1994.8699999999999</ele>
        <time>2015-01-31T09:53:42Z</time>
      </trkpt>
      <trkpt lat="46.1556142475456" lon="8.160453122109175">
        <ele>1996.8</ele>
        <time>2015-01-31T09:54:01Z</time>
      </trkpt>
      <trkpt lat="46.155649619176984" lon="8.160317670553923">
        <ele>1998.72</ele>
        <time>2015-01-31T09:54:17Z</time>
      </trkpt>
      <trkpt lat="46.155695971101522" lon="8.160181045532227">
        <ele>2001.5999999999999</ele>
        <time>2015-01-31T09:54:37Z</time>
      </trkpt>
      <trkpt lat="46.155735366046429" lon="8.160086078569293">
        <ele>2003.52</ele>
        <time>2015-01-31T09:54:53Z</time>
      </trkpt>
      <trkpt lat="46.155761433765292" lon="8.160063112154603">
        <ele>2004.97</ele>
        <time>2015-01-31T09:55:07Z</time>
      </trkpt>
      <trkpt lat="46.155783897265792" lon="8.160012988373637">
        <ele>2006.4100000000001</ele>
        <time>2015-01-31T09:55:23Z</time>
      </trkpt>
      <trkpt lat="46.155807953327894" lon="8.159934366121888">
        <ele>2008.3299999999999</ele>
        <time>2015-01-31T09:55:38Z</time>
      </trkpt>
      <trkpt lat="46.15583561360836" lon="8.159966468811035">
        <ele>2008.8099999999999</ele>
        <time>2015-01-31T09:55:56Z</time>
      </trkpt>
      <trkpt lat="46.155836619436741" lon="8.159952471032739">
        <ele>2008.8099999999999</ele>
        <time>2015-01-31T09:56:19Z</time>
      </trkpt>
      <trkpt lat="46.155836284160614" lon="8.159970911219716">
        <ele>2010.25</ele>
        <time>2015-01-31T09:56:45Z</time>
      </trkpt>
      <trkpt lat="46.155841732397676" lon="8.15996621735394">
        <ele>2008.8099999999999</ele>
        <time>2015-01-31T09:57:09Z</time>
      </trkpt>
      <trkpt lat="46.155830584466457" lon="8.159945094957948">
        <ele>2008.3299999999999</ele>
        <time>2015-01-31T09:57:25Z</time>
      </trkpt>
      <trkpt lat="46.155838798731565" lon="8.159944340586662">
        <ele>2008.3299999999999</ele>
        <time>2015-01-31T09:57:48Z</time>
      </trkpt>
      <trkpt lat="46.15584148094058" lon="8.159966468811035">
        <ele>2008.3299999999999</ele>
        <time>2015-01-31T09:58:10Z</time>
      </trkpt>
      <trkpt lat="46.155858160927892" lon="8.159975269809365">
        <ele>2008.3299999999999</ele>
        <time>2015-01-31T09:58:47Z</time>
      </trkpt>
      <trkpt lat="46.155865285545588" lon="8.15997451543808">
        <ele>2007.8499999999999</ele>
        <time>2015-01-31T09:59:11Z</time>
      </trkpt>
      <trkpt lat="46.155848354101181" lon="8.159966133534908">
        <ele>2007.8499999999999</ele>
        <time>2015-01-31T09:59:26Z</time>
      </trkpt>
      <trkpt lat="46.155859334394336" lon="8.15997694619">
        <ele>2007.8499999999999</ele>
        <time>2015-01-31T09:59:51Z</time>
      </trkpt>
      <trkpt lat="46.155850784853101" lon="8.159970659762621">
        <ele>2007.3699999999999</ele>
        <time>2015-01-31T10:00:13Z</time>
      </trkpt>
      <trkpt lat="46.155858663842082" lon="8.159963032230735">
        <ele>2007.8499999999999</ele>
        <time>2015-01-31T10:00:44Z</time>
      </trkpt>
      <trkpt lat="46.155847012996674" lon="8.159920955076814">
        <ele>2007.8499999999999</ele>
        <time>2015-01-31T10:01:09Z</time>
      </trkpt>
      <trkpt lat="46.155853550881147" lon="8.159762704744935">
        <ele>2009.29</ele>
        <time>2015-01-31T10:01:24Z</time>
      </trkpt>
      <trkpt lat="46.155882300809026" lon="8.159621637314558">
        <ele>2010.73</ele>
        <time>2015-01-31T10:01:39Z</time>
      </trkpt>
      <trkpt lat="46.155910212546587" lon="8.159488951787353">
        <ele>2012.1800000000001</ele>
        <time>2015-01-31T10:01:54Z</time>
      </trkpt>
      <trkpt lat="46.155936783179641" lon="8.159318380057812">
        <ele>2012.1800000000001</ele>
        <time>2015-01-31T10:02:12Z</time>
      </trkpt>
      <trkpt lat="46.155965281650424" lon="8.159155435860157">
        <ele>2010.73</ele>
        <time>2015-01-31T10:02:26Z</time>
      </trkpt>
      <trkpt lat="46.155969388782978" lon="8.159133642911911">
        <ele>2010.73</ele>
        <time>2015-01-31T10:02:28Z</time>
      </trkpt>
      <trkpt lat="46.155974753201008" lon="8.159077316522598">
        <ele>2009.77</ele>
        <time>2015-01-31T10:02:33Z</time>
      </trkpt>
      <trkpt lat="46.15600124001503" lon="8.158903559669852">
        <ele>2007.8499999999999</ele>
        <time>2015-01-31T10:02:47Z</time>
      </trkpt>
      <trkpt lat="46.156010795384645" lon="8.158875899389386">
        <ele>2009.29</ele>
        <time>2015-01-31T10:02:49Z</time>
      </trkpt>
      <trkpt lat="46.156023200601339" lon="8.158844383433461">
        <ele>2006.8900000000001</ele>
        <time>2015-01-31T10:02:52Z</time>
      </trkpt>
      <trkpt lat="46.156041221693158" lon="8.158810688182712">
        <ele>2005.9300000000001</ele>
        <time>2015-01-31T10:03:07Z</time>
      </trkpt>
      <trkpt lat="46.15617323666811" lon="8.158737597987056">
        <ele>2003.04</ele>
        <time>2015-01-31T10:03:19Z</time>
      </trkpt>
      <trkpt lat="46.156305419281125" lon="8.158688480034471">
        <ele>2000.6400000000001</ele>
        <time>2015-01-31T10:03:33Z</time>
      </trkpt>
      <trkpt lat="46.156411869451404" lon="8.158663921058178">
        <ele>2001.5999999999999</ele>
        <time>2015-01-31T10:03:48Z</time>
      </trkpt>
      <trkpt lat="46.156450007110834" lon="8.158659730106592">
        <ele>2002.5599999999999</ele>
        <time>2015-01-31T10:04:01Z</time>
      </trkpt>
      <trkpt lat="46.156448498368263" lon="8.158638272434473">
        <ele>2002.5599999999999</ele>
        <time>2015-01-31T10:04:17Z</time>
      </trkpt>
      <trkpt lat="46.156464172527194" lon="8.158649755641818">
        <ele>2002.5599999999999</ele>
        <time>2015-01-31T10:04:36Z</time>
      </trkpt>
      <trkpt lat="46.156512787565589" lon="8.158663501963019">
        <ele>2003.04</ele>
        <time>2015-01-31T10:04:46Z</time>
      </trkpt>
      <trkpt lat="46.156521672382951" lon="8.15867087803781">
        <ele>2002.5599999999999</ele>
        <time>2015-01-31T10:05:08Z</time>
      </trkpt>
      <trkpt lat="46.156491748988628" lon="8.1586679443717">
        <ele>2002.5599999999999</ele>
        <time>2015-01-31T10:05:25Z</time>
      </trkpt>
      <trkpt lat="46.156498873606324" lon="8.158663585782051">
        <ele>2002.0799999999999</ele>
        <time>2015-01-31T10:05:37Z</time>
      </trkpt>
      <trkpt lat="46.156498370692134" lon="8.158671716228128">
        <ele>2002.0799999999999</ele>
        <time>2015-01-31T10:05:54Z</time>
      </trkpt>
      <trkpt lat="46.156487558037043" lon="8.158649252727628">
        <ele>2002.0799999999999</ele>
        <time>2015-01-31T10:06:07Z</time>
      </trkpt>
      <trkpt lat="46.156509183347225" lon="8.158663921058178">
        <ele>2002.0799999999999</ele>
        <time>2015-01-31T10:06:25Z</time>
      </trkpt>
      <trkpt lat="46.156510608270764" lon="8.158686887472868">
        <ele>2002.0799999999999</ele>
        <time>2015-01-31T10:06:39Z</time>
      </trkpt>
      <trkpt lat="46.156509267166257" lon="8.15863030962646">
        <ele>2001.1199999999999</ele>
        <time>2015-01-31T10:06:56Z</time>
      </trkpt>
      <trkpt lat="46.156541369855404" lon="8.15857850946486">
        <ele>1999.6800000000001</ele>
        <time>2015-01-31T10:07:15Z</time>
      </trkpt>
      <trkpt lat="46.156516978517175" lon="8.158556381240487">
        <ele>1999.2</ele>
        <time>2015-01-31T10:07:27Z</time>
      </trkpt>
      <trkpt lat="46.156570538878441" lon="8.15852620638907">
        <ele>2000.1600000000001</ele>
        <time>2015-01-31T10:07:46Z</time>
      </trkpt>
      <trkpt lat="46.156550925225019" lon="8.158565768972039">
        <ele>2000.1600000000001</ele>
        <time>2015-01-31T10:08:20Z</time>
      </trkpt>
      <trkpt lat="46.156541286036372" lon="8.158553196117282">
        <ele>2000.1600000000001</ele>
        <time>2015-01-31T10:08:51Z</time>
      </trkpt>
      <trkpt lat="46.156548410654068" lon="8.158547412604094">
        <ele>1999.6800000000001</ele>
        <time>2015-01-31T10:09:19Z</time>
      </trkpt>
      <trkpt lat="46.156487138941884" lon="8.158484548330307">
        <ele>1999.6800000000001</ele>
        <time>2015-01-31T10:09:28Z</time>
      </trkpt>
      <trkpt lat="46.156544890254736" lon="8.158503575250506">
        <ele>1999.6800000000001</ele>
        <time>2015-01-31T10:09:54Z</time>
      </trkpt>
      <trkpt lat="46.156549667939544" lon="8.158551603555679">
        <ele>1999.6800000000001</ele>
        <time>2015-01-31T10:10:22Z</time>
      </trkpt>
      <trkpt lat="46.156588308513165" lon="8.158524194732308">
        <ele>1999.6800000000001</ele>
        <time>2015-01-31T10:10:50Z</time>
      </trkpt>
      <trkpt lat="46.156543800607324" lon="8.158450350165367">
        <ele>1999.2</ele>
        <time>2015-01-31T10:11:24Z</time>
      </trkpt>
      <trkpt lat="46.156542710959911" lon="8.158482201397419">
        <ele>1998.72</ele>
        <time>2015-01-31T10:11:59Z</time>
      </trkpt>
      <trkpt lat="46.156597025692463" lon="8.158579934388399">
        <ele>1998.72</ele>
        <time>2015-01-31T10:12:30Z</time>
      </trkpt>
      <trkpt lat="46.156571879982948" lon="8.158573061227799">
        <ele>1998.24</ele>
        <time>2015-01-31T10:12:59Z</time>
      </trkpt>
      <trkpt lat="46.156551260501146" lon="8.158536516129971">
        <ele>1998.24</ele>
        <time>2015-01-31T10:13:29Z</time>
      </trkpt>
      <trkpt lat="46.156556708738208" lon="8.158540120348334">
        <ele>1997.76</ele>
        <time>2015-01-31T10:13:56Z</time>
      </trkpt>
      <trkpt lat="46.156562576070428" lon="8.15854774788022">
        <ele>1997.76</ele>
        <time>2015-01-31T10:14:21Z</time>
      </trkpt>
      <trkpt lat="46.156691992655396" lon="8.158586556091905">
        <ele>1997.28</ele>
        <time>2015-01-31T10:14:50Z</time>
      </trkpt>
      <trkpt lat="46.156616304069757" lon="8.158536683768034">
        <ele>1997.28</ele>
        <time>2015-01-31T10:15:17Z</time>
      </trkpt>
      <trkpt lat="46.156679755076766" lon="8.15857607871294">
        <ele>1997.28</ele>
        <time>2015-01-31T10:15:43Z</time>
      </trkpt>
      <trkpt lat="46.156594678759575" lon="8.15858194604516">
        <ele>1997.28</ele>
        <time>2015-01-31T10:16:08Z</time>
      </trkpt>
      <trkpt lat="46.156567269936204" lon="8.158485637977719">
        <ele>1997.28</ele>
        <time>2015-01-31T10:16:36Z</time>
      </trkpt>
      <trkpt lat="46.156525276601315" lon="8.158554872497916">
        <ele>1996.8</ele>
        <time>2015-01-31T10:17:04Z</time>
      </trkpt>
      <trkpt lat="46.156515385955572" lon="8.158500222489238">
        <ele>1996.3199999999999</ele>
        <time>2015-01-31T10:17:30Z</time>
      </trkpt>
      <trkpt lat="46.156497951596975" lon="8.158461162820458">
        <ele>1996.3199999999999</ele>
        <time>2015-01-31T10:17:54Z</time>
      </trkpt>
      <trkpt lat="46.156458808109164" lon="8.158526290208101">
        <ele>1995.8299999999999</ele>
        <time>2015-01-31T10:18:19Z</time>
      </trkpt>
      <trkpt lat="46.156480265781283" lon="8.158528050407767">
        <ele>1995.3499999999999</ele>
        <time>2015-01-31T10:18:49Z</time>
      </trkpt>
      <trkpt lat="46.156426034867764" lon="8.158605499193072">
        <ele>1995.3499999999999</ele>
        <time>2015-01-31T10:19:19Z</time>
      </trkpt>
      <trkpt lat="46.156403068453074" lon="8.158684205263853">
        <ele>1994.8699999999999</ele>
        <time>2015-01-31T10:19:47Z</time>
      </trkpt>
      <trkpt lat="46.156420167535543" lon="8.158627459779382">
        <ele>1994.8699999999999</ele>
        <time>2015-01-31T10:20:13Z</time>
      </trkpt>
      <trkpt lat="46.156531143933535" lon="8.158646402880549">
        <ele>1994.8699999999999</ele>
        <time>2015-01-31T10:20:33Z</time>
      </trkpt>
      <trkpt lat="46.156535921618342" lon="8.158653443679214">
        <ele>1994.8699999999999</ele>
        <time>2015-01-31T10:20:43Z</time>
      </trkpt>
      <trkpt lat="46.156238950788975" lon="8.15847298130393">
        <ele>1993.9100000000001</ele>
        <time>2015-01-31T10:27:00Z</time>
      </trkpt>
      <trkpt lat="46.156278932467103" lon="8.158488990738988">
        <ele>1994.3900000000001</ele>
        <time>2015-01-31T10:27:31Z</time>
      </trkpt>
      <trkpt lat="46.15630466490984" lon="8.158496366813779">
        <ele>1993.9100000000001</ele>
        <time>2015-01-31T10:28:03Z</time>
      </trkpt>
      <trkpt lat="46.156437350437045" lon="8.158537857234478">
        <ele>1993.9100000000001</ele>
        <time>2015-01-31T10:28:27Z</time>
      </trkpt>
      <trkpt lat="46.156576154753566" lon="8.158561829477549">
        <ele>1993.9100000000001</ele>
        <time>2015-01-31T10:28:51Z</time>
      </trkpt>
      <trkpt lat="46.156613035127521" lon="8.158567445352674">
        <ele>1994.3900000000001</ele>
        <time>2015-01-31T10:29:06Z</time>
      </trkpt>
      <trkpt lat="46.156643461436033" lon="8.15845781005919">
        <ele>1995.3499999999999</ele>
        <time>2015-01-31T10:29:29Z</time>
      </trkpt>
      <trkpt lat="46.156584369018674" lon="8.158332835882902">
        <ele>1994.8699999999999</ele>
        <time>2015-01-31T10:29:58Z</time>
      </trkpt>
      <trkpt lat="46.156471632421017" lon="8.158685797825456">
        <ele>1996.3199999999999</ele>
        <time>2015-01-31T10:30:15Z</time>
      </trkpt>
      <trkpt lat="46.156487558037043" lon="8.158639278262854">
        <ele>1996.3199999999999</ele>
        <time>2015-01-31T10:30:25Z</time>
      </trkpt>
      <trkpt lat="46.156476745381951" lon="8.158693592995405">
        <ele>1993.4300000000001</ele>
        <time>2015-01-31T10:30:33Z</time>
      </trkpt>
      <trkpt lat="46.156468447297812" lon="8.158690072596073">
        <ele>1996.3199999999999</ele>
        <time>2015-01-31T10:30:50Z</time>
      </trkpt>
      <trkpt lat="46.156477248296142" lon="8.158669536933303">
        <ele>1994.8699999999999</ele>
        <time>2015-01-31T10:31:03Z</time>
      </trkpt>
      <trkpt lat="46.156489988788962" lon="8.158666854724288">
        <ele>1994.3900000000001</ele>
        <time>2015-01-31T10:31:07Z</time>
      </trkpt>
      <trkpt lat="46.156503148376942" lon="8.15865084528923">
        <ele>1995.3499999999999</ele>
        <time>2015-01-31T10:31:33Z</time>
      </trkpt>
      <trkpt lat="46.156508680433035" lon="8.158648163080216">
        <ele>1995.3499999999999</ele>
        <time>2015-01-31T10:31:45Z</time>
      </trkpt>
      <trkpt lat="46.156508177518845" lon="8.158672135323286">
        <ele>1994.8699999999999</ele>
        <time>2015-01-31T10:32:05Z</time>
      </trkpt>
      <trkpt lat="46.156503483653069" lon="8.158656964078546">
        <ele>1995.8299999999999</ele>
        <time>2015-01-31T10:32:19Z</time>
      </trkpt>
      <trkpt lat="46.156485294923186" lon="8.158684289082885">
        <ele>1995.8299999999999</ele>
        <time>2015-01-31T10:32:39Z</time>
      </trkpt>
      <trkpt lat="46.156492168083787" lon="8.158682277426124">
        <ele>1994.8699999999999</ele>
        <time>2015-01-31T10:33:01Z</time>
      </trkpt>
      <trkpt lat="46.15649183280766" lon="8.15867573954165">
        <ele>1994.8699999999999</ele>
        <time>2015-01-31T10:33:09Z</time>
      </trkpt>
      <trkpt lat="46.156523348763585" lon="8.158637685701251">
        <ele>1994.3900000000001</ele>
        <time>2015-01-31T10:33:23Z</time>
      </trkpt>
      <trkpt lat="46.156515385955572" lon="8.158642463386059">
        <ele>1994.3900000000001</ele>
        <time>2015-01-31T10:33:42Z</time>
      </trkpt>
      <trkpt lat="46.156477332115173" lon="8.158692670986056">
        <ele>1995.3499999999999</ele>
        <time>2015-01-31T10:33:55Z</time>
      </trkpt>
      <trkpt lat="46.156485630199313" lon="8.158673895522952">
        <ele>1995.8299999999999</ele>
        <time>2015-01-31T10:34:04Z</time>
      </trkpt>
      <trkpt lat="46.156506920233369" lon="8.158683869987726">
        <ele>1995.8299999999999</ele>
        <time>2015-01-31T10:34:17Z</time>
      </trkpt>
      <trkpt lat="46.156507255509496" lon="8.158675823360682">
        <ele>1995.8299999999999</ele>
        <time>2015-01-31T10:34:35Z</time>
      </trkpt>
      <trkpt lat="46.15650306455791" lon="8.158674649894238">
        <ele>1995.8299999999999</ele>
        <time>2015-01-31T10:34:56Z</time>
      </trkpt>
      <trkpt lat="46.156514547765255" lon="8.15867867320776">
        <ele>1996.3199999999999</ele>
        <time>2015-01-31T10:35:18Z</time>
      </trkpt>
      <trkpt lat="46.156508680433035" lon="8.158681523054838">
        <ele>1996.3199999999999</ele>
        <time>2015-01-31T10:35:37Z</time>
      </trkpt>
      <trkpt lat="46.156508345156908" lon="8.158677080646157">
        <ele>1996.3199999999999</ele>
        <time>2015-01-31T10:35:59Z</time>
      </trkpt>
      <trkpt lat="46.156510775908828" lon="8.158693173900247">
        <ele>1996.3199999999999</ele>
        <time>2015-01-31T10:36:25Z</time>
      </trkpt>
      <trkpt lat="46.156505662947893" lon="8.158704489469528">
        <ele>1996.3199999999999</ele>
        <time>2015-01-31T10:36:45Z</time>
      </trkpt>
      <trkpt lat="46.156530054286122" lon="8.158690324053168">
        <ele>1996.3199999999999</ele>
        <time>2015-01-31T10:36:54Z</time>
      </trkpt>
      <trkpt lat="46.156585374847054" lon="8.158659897744656">
        <ele>1996.3199999999999</ele>
        <time>2015-01-31T10:37:00Z</time>
      </trkpt>
      <trkpt lat="46.156603647395968" lon="8.158623855561018">
        <ele>1996.3199999999999</ele>
        <time>2015-01-31T10:37:03Z</time>
      </trkpt>
      <trkpt lat="46.156742954626679" lon="8.158472143113613">
        <ele>1998.72</ele>
        <time>2015-01-31T10:37:20Z</time>
      </trkpt>
      <trkpt lat="46.156783690676093" lon="8.158423276618123">
        <ele>2000.6400000000001</ele>
        <time>2015-01-31T10:37:34Z</time>
      </trkpt>
      <trkpt lat="46.156836412847042" lon="8.158377595245838">
        <ele>2002.0799999999999</ele>
        <time>2015-01-31T10:37:46Z</time>
      </trkpt>
      <trkpt lat="46.156920818611979" lon="8.158304253593087">
        <ele>2004.01</ele>
        <time>2015-01-31T10:37:58Z</time>
      </trkpt>
      <trkpt lat="46.156925009563565" lon="8.158306684345007">
        <ele>2004.01</ele>
        <time>2015-01-31T10:37:59Z</time>
      </trkpt>
      <trkpt lat="46.157097676768899" lon="8.158250609412789">
        <ele>2002.5599999999999</ele>
        <time>2015-01-31T10:38:16Z</time>
      </trkpt>
      <trkpt lat="46.157302027568221" lon="8.158252537250519">
        <ele>1999.2</ele>
        <time>2015-01-31T10:38:33Z</time>
      </trkpt>
      <trkpt lat="46.157464887946844" lon="8.158265864476562">
        <ele>1999.6800000000001</ele>
        <time>2015-01-31T10:38:47Z</time>
      </trkpt>
      <trkpt lat="46.157633028924465" lon="8.15826871432364">
        <ele>1999.6800000000001</ele>
        <time>2015-01-31T10:39:03Z</time>
      </trkpt>
      <trkpt lat="46.157793123275042" lon="8.158227475360036">
        <ele>2000.6400000000001</ele>
        <time>2015-01-31T10:39:18Z</time>
      </trkpt>
      <trkpt lat="46.157915918156505" lon="8.158163269981742">
        <ele>2001.5999999999999</ele>
        <time>2015-01-31T10:39:32Z</time>
      </trkpt>
      <trkpt lat="46.158050615340471" lon="8.158112224191427">
        <ele>2003.52</ele>
        <time>2015-01-31T10:39:47Z</time>
      </trkpt>
      <trkpt lat="46.158160837367177" lon="8.158046510070562">
        <ele>2004.97</ele>
        <time>2015-01-31T10:39:59Z</time>
      </trkpt>
      <trkpt lat="46.158291175961494" lon="8.157958164811134">
        <ele>2006.4100000000001</ele>
        <time>2015-01-31T10:40:14Z</time>
      </trkpt>
      <trkpt lat="46.158430567011237" lon="8.157864790409803">
        <ele>2008.3299999999999</ele>
        <time>2015-01-31T10:40:30Z</time>
      </trkpt>
      <trkpt lat="46.158559313043952" lon="8.157796729356051">
        <ele>2009.29</ele>
        <time>2015-01-31T10:40:44Z</time>
      </trkpt>
      <trkpt lat="46.158662661910057" lon="8.157754316926003">
        <ele>2009.29</ele>
        <time>2015-01-31T10:40:54Z</time>
      </trkpt>
      <trkpt lat="46.158799454569817" lon="8.157640490680933">
        <ele>2007.3699999999999</ele>
        <time>2015-01-31T10:41:08Z</time>
      </trkpt>
      <trkpt lat="46.158951334655285" lon="8.157547870650888">
        <ele>2005.9300000000001</ele>
        <time>2015-01-31T10:41:23Z</time>
      </trkpt>
      <trkpt lat="46.159160546958447" lon="8.157582823187113">
        <ele>2005.45</ele>
        <time>2015-01-31T10:41:40Z</time>
      </trkpt>
      <trkpt lat="46.159343607723713" lon="8.157602939754725">
        <ele>2006.4100000000001</ele>
        <time>2015-01-31T10:41:56Z</time>
      </trkpt>
      <trkpt lat="46.159459613263607" lon="8.157596401870251">
        <ele>2009.29</ele>
        <time>2015-01-31T10:42:11Z</time>
      </trkpt>
      <trkpt lat="46.159530188888311" lon="8.157543679699302">
        <ele>2010.25</ele>
        <time>2015-01-31T10:42:20Z</time>
      </trkpt>
      <trkpt lat="46.159544521942735" lon="8.157525239512324">
        <ele>2010.73</ele>
        <time>2015-01-31T10:42:22Z</time>
      </trkpt>
      <trkpt lat="46.159706208854914" lon="8.157439827919006">
        <ele>2011.7</ele>
        <time>2015-01-31T10:42:37Z</time>
      </trkpt>
      <trkpt lat="46.159855993464589" lon="8.157363049685955">
        <ele>2010.73</ele>
        <time>2015-01-31T10:42:51Z</time>
      </trkpt>
      <trkpt lat="46.159922461956739" lon="8.157332371920347">
        <ele>2011.22</ele>
        <time>2015-01-31T10:43:02Z</time>
      </trkpt>
      <trkpt lat="46.159927658736706" lon="8.157316613942385">
        <ele>2011.22</ele>
        <time>2015-01-31T10:43:23Z</time>
      </trkpt>
      <trkpt lat="46.159939896315336" lon="8.157298257574439">
        <ele>2011.22</ele>
        <time>2015-01-31T10:43:28Z</time>
      </trkpt>
      <trkpt lat="46.16012622602284" lon="8.157231705263257">
        <ele>2010.73</ele>
        <time>2015-01-31T10:43:46Z</time>
      </trkpt>
      <trkpt lat="46.160177355632186" lon="8.15722449682653">
        <ele>2011.22</ele>
        <time>2015-01-31T10:43:57Z</time>
      </trkpt>
      <trkpt lat="46.160335270687938" lon="8.157129865139723">
        <ele>2011.22</ele>
        <time>2015-01-31T10:44:12Z</time>
      </trkpt>
      <trkpt lat="46.160345580428839" lon="8.15709114074707">
        <ele>2011.7</ele>
        <time>2015-01-31T10:44:27Z</time>
      </trkpt>
      <trkpt lat="46.160420514643192" lon="8.15705006942153">
        <ele>2012.1800000000001</ele>
        <time>2015-01-31T10:44:41Z</time>
      </trkpt>
      <trkpt lat="46.160419173538685" lon="8.157058451324701">
        <ele>2012.1800000000001</ele>
        <time>2015-01-31T10:44:55Z</time>
      </trkpt>
      <trkpt lat="46.160472650080919" lon="8.157036826014519">
        <ele>2013.1400000000001</ele>
        <time>2015-01-31T10:45:14Z</time>
      </trkpt>
      <trkpt lat="46.160567700862885" lon="8.156971279531717">
        <ele>2013.6199999999999</ele>
        <time>2015-01-31T10:45:27Z</time>
      </trkpt>
      <trkpt lat="46.160688987001777" lon="8.156837755814195">
        <ele>2015.54</ele>
        <time>2015-01-31T10:45:43Z</time>
      </trkpt>
      <trkpt lat="46.160696363076568" lon="8.156827026978135">
        <ele>2016.02</ele>
        <time>2015-01-31T10:45:44Z</time>
      </trkpt>
      <trkpt lat="46.160759897902608" lon="8.156726360321045">
        <ele>2016.5</ele>
        <time>2015-01-31T10:45:54Z</time>
      </trkpt>
      <trkpt lat="46.160885291174054" lon="8.156695682555437">
        <ele>2016.98</ele>
        <time>2015-01-31T10:46:08Z</time>
      </trkpt>
      <trkpt lat="46.160903647542" lon="8.156689060851932">
        <ele>2016.98</ele>
        <time>2015-01-31T10:46:23Z</time>
      </trkpt>
      <trkpt lat="46.161098275333643" lon="8.156732730567455">
        <ele>2016.02</ele>
        <time>2015-01-31T10:46:40Z</time>
      </trkpt>
      <trkpt lat="46.161196762695909" lon="8.156978823244572">
        <ele>2013.6199999999999</ele>
        <time>2015-01-31T10:46:55Z</time>
      </trkpt>
      <trkpt lat="46.161193829029799" lon="8.157045710831881">
        <ele>2014.0999999999999</ele>
        <time>2015-01-31T10:47:00Z</time>
      </trkpt>
      <trkpt lat="46.161172371357679" lon="8.157102959230542">
        <ele>2014.5799999999999</ele>
        <time>2015-01-31T10:47:13Z</time>
      </trkpt>
      <trkpt lat="46.161193493753672" lon="8.157087452709675">
        <ele>2014.5799999999999</ele>
        <time>2015-01-31T10:47:31Z</time>
      </trkpt>
      <trkpt lat="46.161224003881216" lon="8.1570999417454">
        <ele>2014.5799999999999</ele>
        <time>2015-01-31T10:47:35Z</time>
      </trkpt>
      <trkpt lat="46.161287622526288" lon="8.157125925645232">
        <ele>2013.1400000000001</ele>
        <time>2015-01-31T10:47:41Z</time>
      </trkpt>
      <trkpt lat="46.161466240882874" lon="8.15723723731935">
        <ele>2009.77</ele>
        <time>2015-01-31T10:47:57Z</time>
      </trkpt>
      <trkpt lat="46.161666652187705" lon="8.157344441860914">
        <ele>2006.8900000000001</ele>
        <time>2015-01-31T10:48:15Z</time>
      </trkpt>
      <trkpt lat="46.161806881427765" lon="8.15750302746892">
        <ele>2004.49</ele>
        <time>2015-01-31T10:48:31Z</time>
      </trkpt>
      <trkpt lat="46.16184962913394" lon="8.157559856772423">
        <ele>2004.49</ele>
        <time>2015-01-31T10:48:44Z</time>
      </trkpt>
      <trkpt lat="46.161929257214069" lon="8.157641747966409">
        <ele>2003.52</ele>
        <time>2015-01-31T10:48:55Z</time>
      </trkpt>
      <trkpt lat="46.161947529762983" lon="8.157627582550049">
        <ele>2003.04</ele>
        <time>2015-01-31T10:48:58Z</time>
      </trkpt>
      <trkpt lat="46.161949289962649" lon="8.157579218968749">
        <ele>2003.52</ele>
        <time>2015-01-31T10:49:01Z</time>
      </trkpt>
      <trkpt lat="46.161991786211729" lon="8.157413089647889">
        <ele>2003.52</ele>
        <time>2015-01-31T10:49:14Z</time>
      </trkpt>
      <trkpt lat="46.162041407078505" lon="8.157273447141051">
        <ele>2004.49</ele>
        <time>2015-01-31T10:49:27Z</time>
      </trkpt>
      <trkpt lat="46.162092452868819" lon="8.157171774655581">
        <ele>2004.97</ele>
        <time>2015-01-31T10:49:39Z</time>
      </trkpt>
      <trkpt lat="46.162179792299867" lon="8.157063396647573">
        <ele>2006.4100000000001</ele>
        <time>2015-01-31T10:49:54Z</time>
      </trkpt>
      <trkpt lat="46.162235364317894" lon="8.156965496018529">
        <ele>2006.8900000000001</ele>
        <time>2015-01-31T10:50:08Z</time>
      </trkpt>
      <trkpt lat="46.162313148379326" lon="8.156867930665612">
        <ele>2008.8099999999999</ele>
        <time>2015-01-31T10:50:24Z</time>
      </trkpt>
      <trkpt lat="46.162385316565633" lon="8.156785620376468">
        <ele>2011.22</ele>
        <time>2015-01-31T10:50:41Z</time>
      </trkpt>
      <trkpt lat="46.162445414811373" lon="8.156689647585154">
        <ele>2013.1400000000001</ele>
        <time>2015-01-31T10:50:57Z</time>
      </trkpt>
      <trkpt lat="46.162462094798684" lon="8.15671538002789">
        <ele>2014.0999999999999</ele>
        <time>2015-01-31T10:51:11Z</time>
      </trkpt>
      <trkpt lat="46.162489503622055" lon="8.156646564602852">
        <ele>2015.0599999999999</ele>
        <time>2015-01-31T10:51:30Z</time>
      </trkpt>
      <trkpt lat="46.162544405087829" lon="8.156523015350103">
        <ele>2016.5</ele>
        <time>2015-01-31T10:51:46Z</time>
      </trkpt>
      <trkpt lat="46.162602743133903" lon="8.156395442783833">
        <ele>2018.4300000000001</ele>
        <time>2015-01-31T10:52:03Z</time>
      </trkpt>
      <trkpt lat="46.162645826116204" lon="8.156284801661968">
        <ele>2019.8699999999999</ele>
        <time>2015-01-31T10:52:18Z</time>
      </trkpt>
      <trkpt lat="46.16271941922605" lon="8.15615932457149">
        <ele>2022.27</ele>
        <time>2015-01-31T10:52:37Z</time>
      </trkpt>
      <trkpt lat="46.162773482501507" lon="8.156094700098038">
        <ele>2024.6700000000001</ele>
        <time>2015-01-31T10:52:54Z</time>
      </trkpt>
      <trkpt lat="46.162750432267785" lon="8.156075002625585">
        <ele>2024.1900000000001</ele>
        <time>2015-01-31T10:53:11Z</time>
      </trkpt>
      <trkpt lat="46.162754036486149" lon="8.156073996797204">
        <ele>2024.1900000000001</ele>
        <time>2015-01-31T10:53:35Z</time>
      </trkpt>
      <trkpt lat="46.162777589634061" lon="8.156014904379845">
        <ele>2026.1199999999999</ele>
        <time>2015-01-31T10:53:47Z</time>
      </trkpt>
      <trkpt lat="46.162834502756596" lon="8.1559325940907">
        <ele>2029</ele>
        <time>2015-01-31T10:54:03Z</time>
      </trkpt>
      <trkpt lat="46.162870544940233" lon="8.155848691239953">
        <ele>2031.4000000000001</ele>
        <time>2015-01-31T10:54:20Z</time>
      </trkpt>
      <trkpt lat="46.162905497476459" lon="8.155762106180191">
        <ele>2033.8099999999999</ele>
        <time>2015-01-31T10:54:38Z</time>
      </trkpt>
      <trkpt lat="46.162946820259094" lon="8.155692536383867">
        <ele>2035.73</ele>
        <time>2015-01-31T10:54:51Z</time>
      </trkpt>
      <trkpt lat="46.163011528551579" lon="8.155652303248644">
        <ele>2037.1700000000001</ele>
        <time>2015-01-31T10:55:06Z</time>
      </trkpt>
      <trkpt lat="46.163038685917854" lon="8.155632019042969">
        <ele>2038.6099999999999</ele>
        <time>2015-01-31T10:55:22Z</time>
      </trkpt>
      <trkpt lat="46.163063580170274" lon="8.155600670725107">
        <ele>2039.5699999999999</ele>
        <time>2015-01-31T10:55:43Z</time>
      </trkpt>
      <trkpt lat="46.163046732544899" lon="8.155499752610922">
        <ele>2041.98</ele>
        <time>2015-01-31T10:55:58Z</time>
      </trkpt>
      <trkpt lat="46.163080846890807" lon="8.155384920537472">
        <ele>2044.8599999999999</ele>
        <time>2015-01-31T10:56:13Z</time>
      </trkpt>
      <trkpt lat="46.163124516606331" lon="8.155312836170197">
        <ele>2048.23</ele>
        <time>2015-01-31T10:56:31Z</time>
      </trkpt>
      <trkpt lat="46.163159804418683" lon="8.155286181718111">
        <ele>2049.6700000000001</ele>
        <time>2015-01-31T10:56:45Z</time>
      </trkpt>
      <trkpt lat="46.163184782490134" lon="8.155240081250668">
        <ele>2050.6300000000001</ele>
        <time>2015-01-31T10:57:05Z</time>
      </trkpt>
      <trkpt lat="46.163218477740884" lon="8.155141174793243">
        <ele>2052.5500000000002</ele>
        <time>2015-01-31T10:57:19Z</time>
      </trkpt>
      <trkpt lat="46.163274804130197" lon="8.155112257227302">
        <ele>2054.96</ele>
        <time>2015-01-31T10:57:34Z</time>
      </trkpt>
      <trkpt lat="46.163267763331532" lon="8.155148550868034">
        <ele>2054.96</ele>
        <time>2015-01-31T10:57:57Z</time>
      </trkpt>
      <trkpt lat="46.163258627057076" lon="8.155136816203594">
        <ele>2054.96</ele>
        <time>2015-01-31T10:58:14Z</time>
      </trkpt>
      <trkpt lat="46.163258878514171" lon="8.155141845345497">
        <ele>2054.96</ele>
        <time>2015-01-31T10:58:31Z</time>
      </trkpt>
      <trkpt lat="46.163248820230365" lon="8.155144779011607">
        <ele>2055.4400000000001</ele>
        <time>2015-01-31T10:58:50Z</time>
      </trkpt>
      <trkpt lat="46.163297519087791" lon="8.15510043874383">
        <ele>2055.9200000000001</ele>
        <time>2015-01-31T10:59:05Z</time>
      </trkpt>
      <trkpt lat="46.163297519087791" lon="8.1551209744066">
        <ele>2056.4000000000001</ele>
        <time>2015-01-31T10:59:19Z</time>
      </trkpt>
      <trkpt lat="46.163287544623017" lon="8.155113011598587">
        <ele>2056.4000000000001</ele>
        <time>2015-01-31T10:59:46Z</time>
      </trkpt>
      <trkpt lat="46.16333020851016" lon="8.155081998556852">
        <ele>2057.3600000000001</ele>
        <time>2015-01-31T11:00:04Z</time>
      </trkpt>
      <trkpt lat="46.163391480222344" lon="8.155015278607607">
        <ele>2060.7199999999998</ele>
        <time>2015-01-31T11:00:20Z</time>
      </trkpt>
      <trkpt lat="46.163414865732193" lon="8.154994575306773">
        <ele>2062.6500000000001</ele>
        <time>2015-01-31T11:00:33Z</time>
      </trkpt>
      <trkpt lat="46.163432551547885" lon="8.154970016330481">
        <ele>2063.6100000000001</ele>
        <time>2015-01-31T11:00:52Z</time>
      </trkpt>
      <trkpt lat="46.163416290655732" lon="8.154960293322802">
        <ele>2064.0900000000001</ele>
        <time>2015-01-31T11:01:05Z</time>
      </trkpt>
      <trkpt lat="46.163467839360237" lon="8.154892819002271">
        <ele>2066.9699999999998</ele>
        <time>2015-01-31T11:01:17Z</time>
      </trkpt>
      <trkpt lat="46.163510754704475" lon="8.154824255034328">
        <ele>2070.3400000000001</ele>
        <time>2015-01-31T11:01:30Z</time>
      </trkpt>
      <trkpt lat="46.163541013374925" lon="8.154744040220976">
        <ele>2073.2199999999998</ele>
        <time>2015-01-31T11:01:43Z</time>
      </trkpt>
      <trkpt lat="46.163577558472753" lon="8.154755104333162">
        <ele>2073.6999999999998</ele>
        <time>2015-01-31T11:01:58Z</time>
      </trkpt>
      <trkpt lat="46.163612259551883" lon="8.154764156788588">
        <ele>2074.6599999999999</ele>
        <time>2015-01-31T11:02:16Z</time>
      </trkpt>
      <trkpt lat="46.163622066378593" lon="8.154798354953528">
        <ele>2074.1799999999998</ele>
        <time>2015-01-31T11:02:32Z</time>
      </trkpt>
      <trkpt lat="46.163685182109475" lon="8.154792739078403">
        <ele>2076.0999999999999</ele>
        <time>2015-01-31T11:02:44Z</time>
      </trkpt>
      <trkpt lat="46.163712171837687" lon="8.15478335134685">
        <ele>2076.5900000000001</ele>
        <time>2015-01-31T11:02:51Z</time>
      </trkpt>
      <trkpt lat="46.163825411349535" lon="8.154673045501113">
        <ele>2078.9899999999998</ele>
        <time>2015-01-31T11:03:06Z</time>
      </trkpt>
      <trkpt lat="46.163840750232339" lon="8.154699113219976">
        <ele>2079.9499999999998</ele>
        <time>2015-01-31T11:03:18Z</time>
      </trkpt>
      <trkpt lat="46.163875702768564" lon="8.154656114056706">
        <ele>2079.4699999999998</ele>
        <time>2015-01-31T11:03:23Z</time>
      </trkpt>
      <trkpt lat="46.163888862356544" lon="8.154612611979246">
        <ele>2080.4299999999998</ele>
        <time>2015-01-31T11:03:26Z</time>
      </trkpt>
      <trkpt lat="46.163888862356544" lon="8.154557459056377">
        <ele>2080.9099999999999</ele>
        <time>2015-01-31T11:03:30Z</time>
      </trkpt>
      <trkpt lat="46.163888610899448" lon="8.154332237318158">
        <ele>2080.9099999999999</ele>
        <time>2015-01-31T11:03:45Z</time>
      </trkpt>
      <trkpt lat="46.163815185427666" lon="8.154129395261407">
        <ele>2081.8699999999999</ele>
        <time>2015-01-31T11:04:00Z</time>
      </trkpt>
      <trkpt lat="46.163789955899119" lon="8.154087737202644">
        <ele>2082.8299999999999</ele>
        <time>2015-01-31T11:04:04Z</time>
      </trkpt>
      <trkpt lat="46.163798589259386" lon="8.153951782733202">
        <ele>2083.3099999999999</ele>
        <time>2015-01-31T11:04:19Z</time>
      </trkpt>
      <trkpt lat="46.16383345797658" lon="8.153862180188298">
        <ele>2086.1999999999998</ele>
        <time>2015-01-31T11:04:35Z</time>
      </trkpt>
      <trkpt lat="46.163836475461721" lon="8.153804512694478">
        <ele>2087.6399999999999</ele>
        <time>2015-01-31T11:04:48Z</time>
      </trkpt>
      <trkpt lat="46.163877882063389" lon="8.153732344508171">
        <ele>2090.04</ele>
        <time>2015-01-31T11:05:01Z</time>
      </trkpt>
      <trkpt lat="46.163873858749866" lon="8.153706192970276">
        <ele>2091</ele>
        <time>2015-01-31T11:05:04Z</time>
      </trkpt>
      <trkpt lat="46.163850389420986" lon="8.153659170493484">
        <ele>2092.4499999999998</ele>
        <time>2015-01-31T11:05:12Z</time>
      </trkpt>
      <trkpt lat="46.163894729688764" lon="8.153645424172282">
        <ele>2091.9699999999998</ele>
        <time>2015-01-31T11:05:17Z</time>
      </trkpt>
      <trkpt lat="46.163955330848694" lon="8.153723040595651">
        <ele>2093.4099999999999</ele>
        <time>2015-01-31T11:05:25Z</time>
      </trkpt>
      <trkpt lat="46.163988774642348" lon="8.153735781088471">
        <ele>2091.4899999999998</ele>
        <time>2015-01-31T11:05:28Z</time>
      </trkpt>
      <trkpt lat="46.164047950878739" lon="8.153748102486134">
        <ele>2090.52</ele>
        <time>2015-01-31T11:05:34Z</time>
      </trkpt>
      <trkpt lat="46.164069995284081" lon="8.153731254860759">
        <ele>2090.04</ele>
        <time>2015-01-31T11:05:36Z</time>
      </trkpt>
      <trkpt lat="46.164094721898437" lon="8.153702672570944">
        <ele>2089.5599999999999</ele>
        <time>2015-01-31T11:05:38Z</time>
      </trkpt>
      <trkpt lat="46.164127578958869" lon="8.153656404465437">
        <ele>2089.5599999999999</ele>
        <time>2015-01-31T11:05:50Z</time>
      </trkpt>
      <trkpt lat="46.164205279201269" lon="8.153541153296828">
        <ele>2091</ele>
        <time>2015-01-31T11:06:06Z</time>
      </trkpt>
      <trkpt lat="46.164240231737494" lon="8.153495136648417">
        <ele>2091.4899999999998</ele>
        <time>2015-01-31T11:06:18Z</time>
      </trkpt>
      <trkpt lat="46.164237633347511" lon="8.153515504673123">
        <ele>2091.4899999999998</ele>
        <time>2015-01-31T11:06:33Z</time>
      </trkpt>
      <trkpt lat="46.164241069927812" lon="8.153522629290819">
        <ele>2091.9699999999998</ele>
        <time>2015-01-31T11:06:50Z</time>
      </trkpt>
      <trkpt lat="46.164262276142836" lon="8.153482312336564">
        <ele>2091.9699999999998</ele>
        <time>2015-01-31T11:07:08Z</time>
      </trkpt>
      <trkpt lat="46.164336875081062" lon="8.153372090309858">
        <ele>2092.4499999999998</ele>
        <time>2015-01-31T11:07:20Z</time>
      </trkpt>
      <trkpt lat="46.164442654699087" lon="8.153307549655438">
        <ele>2092.9299999999998</ele>
        <time>2015-01-31T11:07:33Z</time>
      </trkpt>
      <trkpt lat="46.164538795128465" lon="8.153308890759945">
        <ele>2094.8499999999999</ele>
        <time>2015-01-31T11:07:45Z</time>
      </trkpt>
      <trkpt lat="46.164554385468364" lon="8.153311321511865">
        <ele>2095.3299999999999</ele>
        <time>2015-01-31T11:07:47Z</time>
      </trkpt>
      <trkpt lat="46.164694782346487" lon="8.15332816913724">
        <ele>2094.8499999999999</ele>
        <time>2015-01-31T11:08:01Z</time>
      </trkpt>
      <trkpt lat="46.164794778451324" lon="8.153349542990327">
        <ele>2094.8499999999999</ele>
        <time>2015-01-31T11:08:13Z</time>
      </trkpt>
      <trkpt lat="46.164766699075699" lon="8.153396565467119">
        <ele>2094.8499999999999</ele>
        <time>2015-01-31T11:08:28Z</time>
      </trkpt>
      <trkpt lat="46.16476284340024" lon="8.153404360637069">
        <ele>2094.3699999999999</ele>
        <time>2015-01-31T11:08:48Z</time>
      </trkpt>
      <trkpt lat="46.164751276373863" lon="8.153398744761944">
        <ele>2094.3699999999999</ele>
        <time>2015-01-31T11:09:09Z</time>
      </trkpt>
      <trkpt lat="46.164748258888721" lon="8.153422046452761">
        <ele>2094.8499999999999</ele>
        <time>2015-01-31T11:09:28Z</time>
      </trkpt>
      <trkpt lat="46.164753790944815" lon="8.153409138321877">
        <ele>2094.3699999999999</ele>
        <time>2015-01-31T11:09:49Z</time>
      </trkpt>
      <trkpt lat="46.164777092635632" lon="8.153391452506185">
        <ele>2094.3699999999999</ele>
        <time>2015-01-31T11:10:09Z</time>
      </trkpt>
      <trkpt lat="46.164781283587217" lon="8.153402516618371">
        <ele>2094.3699999999999</ele>
        <time>2015-01-31T11:10:29Z</time>
      </trkpt>
      <trkpt lat="46.164774745702744" lon="8.15340394154191">
        <ele>2093.8899999999999</ele>
        <time>2015-01-31T11:10:45Z</time>
      </trkpt>
      <trkpt lat="46.164783714339137" lon="8.153374353423715">
        <ele>2094.3699999999999</ele>
        <time>2015-01-31T11:11:03Z</time>
      </trkpt>
      <trkpt lat="46.164788072928786" lon="8.153392039239407">
        <ele>2093.8899999999999</ele>
        <time>2015-01-31T11:11:21Z</time>
      </trkpt>
      <trkpt lat="46.164771728217602" lon="8.153396900743246">
        <ele>2094.3699999999999</ele>
        <time>2015-01-31T11:11:42Z</time>
      </trkpt>
      <trkpt lat="46.164776254445314" lon="8.153387093916535">
        <ele>2094.3699999999999</ele>
        <time>2015-01-31T11:12:02Z</time>
      </trkpt>
      <trkpt lat="46.164855631068349" lon="8.153380220755935">
        <ele>2094.3699999999999</ele>
        <time>2015-01-31T11:12:17Z</time>
      </trkpt>
      <trkpt lat="46.164872730150819" lon="8.153385668992996">
        <ele>2094.3699999999999</ele>
        <time>2015-01-31T11:12:19Z</time>
      </trkpt>
      <trkpt lat="46.164900474250317" lon="8.153389608487487">
        <ele>2094.3699999999999</ele>
        <time>2015-01-31T11:12:22Z</time>
      </trkpt>
      <trkpt lat="46.164950095117092" lon="8.153350884094834">
        <ele>2093.4099999999999</ele>
        <time>2015-01-31T11:12:28Z</time>
      </trkpt>
      <trkpt lat="46.164988232776523" lon="8.153259186074138">
        <ele>2093.8899999999999</ele>
        <time>2015-01-31T11:12:39Z</time>
      </trkpt>
      <trkpt lat="46.164989909157157" lon="8.153243763372302">
        <ele>2093.8899999999999</ele>
        <time>2015-01-31T11:12:40Z</time>
      </trkpt>
      <trkpt lat="46.165089905261993" lon="8.153094816952944">
        <ele>2095.3299999999999</ele>
        <time>2015-01-31T11:12:55Z</time>
      </trkpt>
      <trkpt lat="46.165164168924093" lon="8.152969758957624">
        <ele>2097.25</ele>
        <time>2015-01-31T11:13:08Z</time>
      </trkpt>
      <trkpt lat="46.165199372917414" lon="8.152870181947947">
        <ele>2098.6999999999998</ele>
        <time>2015-01-31T11:13:21Z</time>
      </trkpt>
      <trkpt lat="46.165255028754473" lon="8.152685863897204">
        <ele>2100.1399999999999</ele>
        <time>2015-01-31T11:13:36Z</time>
      </trkpt>
      <trkpt lat="46.165284449234605" lon="8.152553094550967">
        <ele>2101.0999999999999</ele>
        <time>2015-01-31T11:13:49Z</time>
      </trkpt>
      <trkpt lat="46.165288053452969" lon="8.152523506432772">
        <ele>2101.5799999999999</ele>
        <time>2015-01-31T11:14:02Z</time>
      </trkpt>
      <trkpt lat="46.165293334051967" lon="8.152445135638118">
        <ele>2102.54</ele>
        <time>2015-01-31T11:14:13Z</time>
      </trkpt>
      <trkpt lat="46.165330968797207" lon="8.152350168675184">
        <ele>2104.46</ele>
        <time>2015-01-31T11:14:22Z</time>
      </trkpt>
      <trkpt lat="46.165427528321743" lon="8.152209520339966">
        <ele>2105.4200000000001</ele>
        <time>2015-01-31T11:14:36Z</time>
      </trkpt>
      <trkpt lat="46.165420152246952" lon="8.152205413207412">
        <ele>2104.9400000000001</ele>
        <time>2015-01-31T11:14:46Z</time>
      </trkpt>
      <trkpt lat="46.165409926325083" lon="8.152225278317928">
        <ele>2105.4200000000001</ele>
        <time>2015-01-31T11:15:03Z</time>
      </trkpt>
      <trkpt lat="46.16537312977016" lon="8.152253441512585">
        <ele>2104.9400000000001</ele>
        <time>2015-01-31T11:15:14Z</time>
      </trkpt>
      <trkpt lat="46.165383020415902" lon="8.152248999103904">
        <ele>2104.9400000000001</ele>
        <time>2015-01-31T11:15:26Z</time>
      </trkpt>
      <trkpt lat="46.16547086276114" lon="8.152123522013426">
        <ele>2106.3899999999999</ele>
        <time>2015-01-31T11:15:40Z</time>
      </trkpt>
      <trkpt lat="46.165493242442608" lon="8.152091586962342">
        <ele>2106.8699999999999</ele>
        <time>2015-01-31T11:15:44Z</time>
      </trkpt>
      <trkpt lat="46.165512269362807" lon="8.152042971923947">
        <ele>2107.3499999999999</ele>
        <time>2015-01-31T11:15:49Z</time>
      </trkpt>
      <trkpt lat="46.165578067302704" lon="8.151911711320281">
        <ele>2108.79</ele>
        <time>2015-01-31T11:16:02Z</time>
      </trkpt>
      <trkpt lat="46.165632884949446" lon="8.1518002320081">
        <ele>2109.75</ele>
        <time>2015-01-31T11:16:14Z</time>
      </trkpt>
      <trkpt lat="46.165704131126404" lon="8.151670563966036">
        <ele>2110.23</ele>
        <time>2015-01-31T11:16:27Z</time>
      </trkpt>
      <trkpt lat="46.16572349332273" lon="8.151610130444169">
        <ele>2110.23</ele>
        <time>2015-01-31T11:16:34Z</time>
      </trkpt>
      <trkpt lat="46.165742687880993" lon="8.151586912572384">
        <ele>2108.79</ele>
        <time>2015-01-31T11:16:46Z</time>
      </trkpt>
      <trkpt lat="46.165746711194515" lon="8.151584398001432">
        <ele>2109.75</ele>
        <time>2015-01-31T11:16:48Z</time>
      </trkpt>
      <trkpt lat="46.165753668174148" lon="8.151592528447509">
        <ele>2109.75</ele>
        <time>2015-01-31T11:17:10Z</time>
      </trkpt>
      <trkpt lat="46.165747130289674" lon="8.151621613651514">
        <ele>2108.79</ele>
        <time>2015-01-31T11:17:12Z</time>
      </trkpt>
      <trkpt lat="46.165740676224232" lon="8.151673581451178">
        <ele>2109.27</ele>
        <time>2015-01-31T11:17:24Z</time>
      </trkpt>
      <trkpt lat="46.165739083662629" lon="8.151673078536987">
        <ele>2109.75</ele>
        <time>2015-01-31T11:17:25Z</time>
      </trkpt>
      <trkpt lat="46.165745453909039" lon="8.151594875380397">
        <ele>2109.27</ele>
        <time>2015-01-31T11:17:38Z</time>
      </trkpt>
      <trkpt lat="46.165733551606536" lon="8.151615662500262">
        <ele>2109.27</ele>
        <time>2015-01-31T11:17:56Z</time>
      </trkpt>
      <trkpt lat="46.165753751993179" lon="8.15162387676537">
        <ele>2109.27</ele>
        <time>2015-01-31T11:18:19Z</time>
      </trkpt>
      <trkpt lat="46.165751907974482" lon="8.151617255061865">
        <ele>2109.75</ele>
        <time>2015-01-31T11:18:44Z</time>
      </trkpt>
      <trkpt lat="46.165738832205534" lon="8.15161800943315">
        <ele>2109.75</ele>
        <time>2015-01-31T11:18:57Z</time>
      </trkpt>
      <trkpt lat="46.165735479444265" lon="8.151628319174051">
        <ele>2109.27</ele>
        <time>2015-01-31T11:19:13Z</time>
      </trkpt>
      <trkpt lat="46.165738916024566" lon="8.151635024696589">
        <ele>2109.75</ele>
        <time>2015-01-31T11:19:27Z</time>
      </trkpt>
      <trkpt lat="46.165736736729741" lon="8.151640556752682">
        <ele>2109.27</ele>
        <time>2015-01-31T11:19:51Z</time>
      </trkpt>
      <trkpt lat="46.16574645973742" lon="8.151638880372047">
        <ele>2110.23</ele>
        <time>2015-01-31T11:20:14Z</time>
      </trkpt>
      <trkpt lat="46.165734641253948" lon="8.151636030524969">
        <ele>2109.75</ele>
        <time>2015-01-31T11:20:27Z</time>
      </trkpt>
      <trkpt lat="46.165726091712713" lon="8.151619015261531">
        <ele>2109.27</ele>
        <time>2015-01-31T11:20:56Z</time>
      </trkpt>
      <trkpt lat="46.165727516636252" lon="8.151584984734654">
        <ele>2109.27</ele>
        <time>2015-01-31T11:21:18Z</time>
      </trkpt>
      <trkpt lat="46.165734054520726" lon="8.151588086038828">
        <ele>2109.75</ele>
        <time>2015-01-31T11:21:38Z</time>
      </trkpt>
      <trkpt lat="46.165742604061961" lon="8.151597389951348">
        <ele>2109.27</ele>
        <time>2015-01-31T11:22:01Z</time>
      </trkpt>
      <trkpt lat="46.165738916024566" lon="8.151580542325974">
        <ele>2109.75</ele>
        <time>2015-01-31T11:22:22Z</time>
      </trkpt>
      <trkpt lat="46.165744364261627" lon="8.151585068553686">
        <ele>2109.75</ele>
        <time>2015-01-31T11:22:39Z</time>
      </trkpt>
      <trkpt lat="46.165748136118054" lon="8.151594623923302">
        <ele>2109.75</ele>
        <time>2015-01-31T11:22:54Z</time>
      </trkpt>
      <trkpt lat="46.165737826377153" lon="8.151591857895255">
        <ele>2109.75</ele>
        <time>2015-01-31T11:23:15Z</time>
      </trkpt>
      <trkpt lat="46.16573128849268" lon="8.151609459891915">
        <ele>2109.27</ele>
        <time>2015-01-31T11:23:28Z</time>
      </trkpt>
      <trkpt lat="46.165730617940426" lon="8.151626139879227">
        <ele>2109.27</ele>
        <time>2015-01-31T11:23:49Z</time>
      </trkpt>
      <trkpt lat="46.165733803063631" lon="8.151664696633816">
        <ele>2109.75</ele>
        <time>2015-01-31T11:24:05Z</time>
      </trkpt>
      <trkpt lat="46.165727768093348" lon="8.151674503460527">
        <ele>2110.23</ele>
        <time>2015-01-31T11:24:06Z</time>
      </trkpt>
      <trkpt lat="46.16568686440587" lon="8.151873908936977">
        <ele>2111.1900000000001</ele>
        <time>2015-01-31T11:24:20Z</time>
      </trkpt>
      <trkpt lat="46.165740760043263" lon="8.152158642187715">
        <ele>2109.27</ele>
        <time>2015-01-31T11:24:38Z</time>
      </trkpt>
      <trkpt lat="46.165747046470642" lon="8.152173729613423">
        <ele>2108.79</ele>
        <time>2015-01-31T11:24:39Z</time>
      </trkpt>
      <trkpt lat="46.16577185690403" lon="8.152278671041131">
        <ele>2108.3099999999999</ele>
        <time>2015-01-31T11:24:46Z</time>
      </trkpt>
      <trkpt lat="46.165812760591507" lon="8.152511604130268">
        <ele>2108.3099999999999</ele>
        <time>2015-01-31T11:25:01Z</time>
      </trkpt>
      <trkpt lat="46.165827596560121" lon="8.152655772864819">
        <ele>2107.3499999999999</ele>
        <time>2015-01-31T11:25:16Z</time>
      </trkpt>
      <trkpt lat="46.165792727842927" lon="8.152655437588692">
        <ele>2107.3499999999999</ele>
        <time>2015-01-31T11:25:33Z</time>
      </trkpt>
      <trkpt lat="46.165826003998518" lon="8.1527120154351">
        <ele>2107.8299999999999</ele>
        <time>2015-01-31T11:25:49Z</time>
      </trkpt>
      <trkpt lat="46.165843354538083" lon="8.152923742309213">
        <ele>2106.8699999999999</ele>
        <time>2015-01-31T11:26:03Z</time>
      </trkpt>
      <trkpt lat="46.165799684822559" lon="8.15312834456563">
        <ele>2104.9400000000001</ele>
        <time>2015-01-31T11:26:16Z</time>
      </trkpt>
      <trkpt lat="46.165787111967802" lon="8.153155585750938">
        <ele>2104.46</ele>
        <time>2015-01-31T11:26:18Z</time>
      </trkpt>
      <trkpt lat="46.165739838033915" lon="8.153339987620711">
        <ele>2102.0599999999999</ele>
        <time>2015-01-31T11:26:32Z</time>
      </trkpt>
      <trkpt lat="46.165741430595517" lon="8.153431937098503">
        <ele>2101.0999999999999</ele>
        <time>2015-01-31T11:26:45Z</time>
      </trkpt>
      <trkpt lat="46.165741430595517" lon="8.153439396992326">
        <ele>2101.0999999999999</ele>
        <time>2015-01-31T11:26:46Z</time>
      </trkpt>
      <trkpt lat="46.165727768093348" lon="8.153627654537559">
        <ele>2098.6999999999998</ele>
        <time>2015-01-31T11:27:00Z</time>
      </trkpt>
      <trkpt lat="46.165680829435587" lon="8.153788251802325">
        <ele>2096.29</ele>
        <time>2015-01-31T11:27:14Z</time>
      </trkpt>
      <trkpt lat="46.165661131963134" lon="8.153885565698147">
        <ele>2094.3699999999999</ele>
        <time>2015-01-31T11:27:24Z</time>
      </trkpt>
      <trkpt lat="46.165617629885674" lon="8.154000397771597">
        <ele>2092.4499999999998</ele>
        <time>2015-01-31T11:27:36Z</time>
      </trkpt>
      <trkpt lat="46.165597345679998" lon="8.15402495674789">
        <ele>2091.4899999999998</ele>
        <time>2015-01-31T11:27:53Z</time>
      </trkpt>
      <trkpt lat="46.165580581873655" lon="8.154025627300143">
        <ele>2091</ele>
        <time>2015-01-31T11:28:01Z</time>
      </trkpt>
      <trkpt lat="46.165559375658631" lon="8.154015233740211">
        <ele>2090.52</ele>
        <time>2015-01-31T11:28:03Z</time>
      </trkpt>
      <trkpt lat="46.165566332638264" lon="8.153946921229363">
        <ele>2089.0799999999999</ele>
        <time>2015-01-31T11:28:14Z</time>
      </trkpt>
      <trkpt lat="46.165601620450616" lon="8.15397122874856">
        <ele>2091.4899999999998</ele>
        <time>2015-01-31T11:28:25Z</time>
      </trkpt>
      <trkpt lat="46.165578318759799" lon="8.154094945639372">
        <ele>2090.52</ele>
        <time>2015-01-31T11:28:38Z</time>
      </trkpt>
      <trkpt lat="46.165567087009549" lon="8.154205251485109">
        <ele>2089.5599999999999</ele>
        <time>2015-01-31T11:28:52Z</time>
      </trkpt>
      <trkpt lat="46.165550155565143" lon="8.154278844594955">
        <ele>2089.0799999999999</ele>
        <time>2015-01-31T11:29:10Z</time>
      </trkpt>
      <trkpt lat="46.165524423122406" lon="8.154358556494117">
        <ele>2088.1199999999999</ele>
        <time>2015-01-31T11:29:25Z</time>
      </trkpt>
      <trkpt lat="46.16548259742558" lon="8.154503311961889">
        <ele>2087.1599999999999</ele>
        <time>2015-01-31T11:29:37Z</time>
      </trkpt>
      <trkpt lat="46.165441777557135" lon="8.154683606699109">
        <ele>2086.6799999999998</ele>
        <time>2015-01-31T11:29:51Z</time>
      </trkpt>
      <trkpt lat="46.165388971567154" lon="8.154857363551855">
        <ele>2085.7199999999998</ele>
        <time>2015-01-31T11:30:05Z</time>
      </trkpt>
      <trkpt lat="46.165357874706388" lon="8.154932716861367">
        <ele>2086.6799999999998</ele>
        <time>2015-01-31T11:30:17Z</time>
      </trkpt>
      <trkpt lat="46.165320239961147" lon="8.155098175629973">
        <ele>2085.2399999999998</ele>
        <time>2015-01-31T11:30:29Z</time>
      </trkpt>
      <trkpt lat="46.165245641022921" lon="8.155278135091066">
        <ele>2084.2800000000002</ele>
        <time>2015-01-31T11:30:43Z</time>
      </trkpt>
      <trkpt lat="46.165132652968168" lon="8.155451556667686">
        <ele>2082.8299999999999</ele>
        <time>2015-01-31T11:30:58Z</time>
      </trkpt>
      <trkpt lat="46.165025196969509" lon="8.155638556927443">
        <ele>2081.3899999999999</ele>
        <time>2015-01-31T11:31:12Z</time>
      </trkpt>
      <trkpt lat="46.16497297771275" lon="8.155706953257322">
        <ele>2080.9099999999999</ele>
        <time>2015-01-31T11:31:18Z</time>
      </trkpt>
      <trkpt lat="46.164876753464341" lon="8.155886828899384">
        <ele>2081.8699999999999</ele>
        <time>2015-01-31T11:31:32Z</time>
      </trkpt>
      <trkpt lat="46.164820343255997" lon="8.1560361944139">
        <ele>2082.8299999999999</ele>
        <time>2015-01-31T11:31:46Z</time>
      </trkpt>
      <trkpt lat="46.164802825078368" lon="8.156066369265318">
        <ele>2082.3499999999999</ele>
        <time>2015-01-31T11:31:50Z</time>
      </trkpt>
      <trkpt lat="46.164773153141141" lon="8.156066788360477">
        <ele>2082.8299999999999</ele>
        <time>2015-01-31T11:32:04Z</time>
      </trkpt>
      <trkpt lat="46.164770806208253" lon="8.156065028160811">
        <ele>2082.8299999999999</ele>
        <time>2015-01-31T11:32:21Z</time>
      </trkpt>
      <trkpt lat="46.164761753752828" lon="8.156071314588189">
        <ele>2082.8299999999999</ele>
        <time>2015-01-31T11:32:41Z</time>
      </trkpt>
      <trkpt lat="46.164766363799572" lon="8.156102914363146">
        <ele>2082.8299999999999</ele>
        <time>2015-01-31T11:33:03Z</time>
      </trkpt>
      <trkpt lat="46.164764100685716" lon="8.156110877171159">
        <ele>2082.8299999999999</ele>
        <time>2015-01-31T11:33:19Z</time>
      </trkpt>
      <trkpt lat="46.164769381284714" lon="8.1561070214957">
        <ele>2081.3899999999999</ele>
        <time>2015-01-31T11:33:40Z</time>
      </trkpt>
      <trkpt lat="46.164771225303411" lon="8.156105931848288">
        <ele>2081.3899999999999</ele>
        <time>2015-01-31T11:33:59Z</time>
      </trkpt>
      <trkpt lat="46.16477508097887" lon="8.15608212724328">
        <ele>2081.3899999999999</ele>
        <time>2015-01-31T11:34:17Z</time>
      </trkpt>
      <trkpt lat="46.164762927219272" lon="8.156097298488021">
        <ele>2081.3899999999999</ele>
        <time>2015-01-31T11:34:36Z</time>
      </trkpt>
      <trkpt lat="46.164758652448654" lon="8.156070057302713">
        <ele>2081.3899999999999</ele>
        <time>2015-01-31T11:34:50Z</time>
      </trkpt>
      <trkpt lat="46.164783211424947" lon="8.15615831874311">
        <ele>2080.4299999999998</ele>
        <time>2015-01-31T11:35:01Z</time>
      </trkpt>
      <trkpt lat="46.164755886420608" lon="8.15628438256681">
        <ele>2078.5100000000002</ele>
        <time>2015-01-31T11:35:09Z</time>
      </trkpt>
      <trkpt lat="46.164746414870024" lon="8.156397454440594">
        <ele>2076.0999999999999</ele>
        <time>2015-01-31T11:35:16Z</time>
      </trkpt>
      <trkpt lat="46.164748761802912" lon="8.156425701454282">
        <ele>2075.6199999999999</ele>
        <time>2015-01-31T11:35:18Z</time>
      </trkpt>
      <trkpt lat="46.164746331050992" lon="8.156617395579815">
        <ele>2072.7399999999998</ele>
        <time>2015-01-31T11:35:29Z</time>
      </trkpt>
      <trkpt lat="46.164744319394231" lon="8.156637931242585">
        <ele>2072.2600000000002</ele>
        <time>2015-01-31T11:35:30Z</time>
      </trkpt>
      <trkpt lat="46.164730321615934" lon="8.15672954544425">
        <ele>2069.8600000000001</ele>
        <time>2015-01-31T11:35:44Z</time>
      </trkpt>
      <trkpt lat="46.164713222533464" lon="8.156862985342741">
        <ele>2067.9299999999998</ele>
        <time>2015-01-31T11:35:54Z</time>
      </trkpt>
      <trkpt lat="46.164700984954834" lon="8.157118046656251">
        <ele>2065.0500000000002</ele>
        <time>2015-01-31T11:36:07Z</time>
      </trkpt>
      <trkpt lat="46.164755215868354" lon="8.157353159040213">
        <ele>2064.0900000000001</ele>
        <time>2015-01-31T11:36:21Z</time>
      </trkpt>
      <trkpt lat="46.164789414033294" lon="8.157529681921005">
        <ele>2060.7199999999998</ele>
        <time>2015-01-31T11:36:30Z</time>
      </trkpt>
      <trkpt lat="46.1648288089782" lon="8.157825563102961">
        <ele>2057.8400000000001</ele>
        <time>2015-01-31T11:36:45Z</time>
      </trkpt>
      <trkpt lat="46.164844231680036" lon="8.158022705465555">
        <ele>2055.9200000000001</ele>
        <time>2015-01-31T11:36:55Z</time>
      </trkpt>
      <trkpt lat="46.164808189496398" lon="8.158100740984082">
        <ele>2054.96</ele>
        <time>2015-01-31T11:37:00Z</time>
      </trkpt>
      <trkpt lat="46.164781786501408" lon="8.158255890011787">
        <ele>2053.5100000000002</ele>
        <time>2015-01-31T11:37:10Z</time>
      </trkpt>
      <trkpt lat="46.164793018251657" lon="8.158505419269204">
        <ele>2050.6300000000001</ele>
        <time>2015-01-31T11:37:25Z</time>
      </trkpt>
      <trkpt lat="46.164782624691725" lon="8.158688563853502">
        <ele>2048.23</ele>
        <time>2015-01-31T11:37:38Z</time>
      </trkpt>
      <trkpt lat="46.16479511372745" lon="8.158781100064516">
        <ele>2047.75</ele>
        <time>2015-01-31T11:37:45Z</time>
      </trkpt>
      <trkpt lat="46.164858564734459" lon="8.158944463357329">
        <ele>2046.3</ele>
        <time>2015-01-31T11:37:58Z</time>
      </trkpt>
      <trkpt lat="46.164907179772854" lon="8.159145712852478">
        <ele>2044.8599999999999</ele>
        <time>2015-01-31T11:38:10Z</time>
      </trkpt>
      <trkpt lat="46.164912628009915" lon="8.159169349819422">
        <ele>2044.3800000000001</ele>
        <time>2015-01-31T11:38:16Z</time>
      </trkpt>
      <trkpt lat="46.164923440665007" lon="8.159188041463494">
        <ele>2043.9000000000001</ele>
        <time>2015-01-31T11:38:18Z</time>
      </trkpt>
      <trkpt lat="46.164989154785872" lon="8.15925425849855">
        <ele>2043.4200000000001</ele>
        <time>2015-01-31T11:38:32Z</time>
      </trkpt>
      <trkpt lat="46.165052019059658" lon="8.159431368112564">
        <ele>2040.05</ele>
        <time>2015-01-31T11:38:45Z</time>
      </trkpt>
      <trkpt lat="46.165076745674014" lon="8.15956698730588">
        <ele>2037.6500000000001</ele>
        <time>2015-01-31T11:38:51Z</time>
      </trkpt>
      <trkpt lat="46.165089067071676" lon="8.159642089158297">
        <ele>2036.21</ele>
        <time>2015-01-31T11:38:54Z</time>
      </trkpt>
      <trkpt lat="46.165099712088704" lon="8.159671006724238">
        <ele>2035.73</ele>
        <time>2015-01-31T11:38:56Z</time>
      </trkpt>
      <trkpt lat="46.165188141167164" lon="8.159891366958618">
        <ele>2033.3299999999999</ele>
        <time>2015-01-31T11:39:10Z</time>
      </trkpt>
      <trkpt lat="46.165294926613569" lon="8.160033775493503">
        <ele>2030.4400000000001</ele>
        <time>2015-01-31T11:39:22Z</time>
      </trkpt>
      <trkpt lat="46.165312528610229" lon="8.160194624215365">
        <ele>2028.52</ele>
        <time>2015-01-31T11:39:33Z</time>
      </trkpt>
      <trkpt lat="46.165293250232935" lon="8.160376930609345">
        <ele>2025.1500000000001</ele>
        <time>2015-01-31T11:39:41Z</time>
      </trkpt>
      <trkpt lat="46.165272211655974" lon="8.160526379942894">
        <ele>2021.79</ele>
        <time>2015-01-31T11:39:47Z</time>
      </trkpt>
      <trkpt lat="46.165267769247293" lon="8.160536857321858">
        <ele>2021.3099999999999</ele>
        <time>2015-01-31T11:39:48Z</time>
      </trkpt>
      <trkpt lat="46.165238348767161" lon="8.160652108490467">
        <ele>2020.8299999999999</ele>
        <time>2015-01-31T11:39:59Z</time>
      </trkpt>
      <trkpt lat="46.165185710415244" lon="8.160853609442711">
        <ele>2020.3499999999999</ele>
        <time>2015-01-31T11:40:12Z</time>
      </trkpt>
      <trkpt lat="46.165121672675014" lon="8.161117304116488">
        <ele>2019.3900000000001</ele>
        <time>2015-01-31T11:40:28Z</time>
      </trkpt>
      <trkpt lat="46.165086636319757" lon="8.161339592188597">
        <ele>2017.46</ele>
        <time>2015-01-31T11:40:41Z</time>
      </trkpt>
      <trkpt lat="46.165055790916085" lon="8.161509912461042">
        <ele>2016.02</ele>
        <time>2015-01-31T11:40:51Z</time>
      </trkpt>
      <trkpt lat="46.165045900270343" lon="8.161566406488419">
        <ele>2016.02</ele>
        <time>2015-01-31T11:40:55Z</time>
      </trkpt>
      <trkpt lat="46.165044140070677" lon="8.161611501127482">
        <ele>2015.54</ele>
        <time>2015-01-31T11:40:58Z</time>
      </trkpt>
      <trkpt lat="46.165031567215919" lon="8.161674533039331">
        <ele>2015.0599999999999</ele>
        <time>2015-01-31T11:41:02Z</time>
      </trkpt>
      <trkpt lat="46.165021089836955" lon="8.161863712593913">
        <ele>2013.6199999999999</ele>
        <time>2015-01-31T11:41:14Z</time>
      </trkpt>
      <trkpt lat="46.164996195584536" lon="8.16196957603097">
        <ele>2012.6600000000001</ele>
        <time>2015-01-31T11:41:27Z</time>
      </trkpt>
      <trkpt lat="46.164984712377191" lon="8.161963792517781">
        <ele>2012.6600000000001</ele>
        <time>2015-01-31T11:41:51Z</time>
      </trkpt>
      <trkpt lat="46.164987813681364" lon="8.161983657628298">
        <ele>2013.1400000000001</ele>
        <time>2015-01-31T11:42:09Z</time>
      </trkpt>
      <trkpt lat="46.164991166442633" lon="8.161968905478716">
        <ele>2013.1400000000001</ele>
        <time>2015-01-31T11:42:39Z</time>
      </trkpt>
      <trkpt lat="46.165002901107073" lon="8.161972677335143">
        <ele>2013.1400000000001</ele>
        <time>2015-01-31T11:42:56Z</time>
      </trkpt>
      <trkpt lat="46.164996614679694" lon="8.1619783770293">
        <ele>2012.6600000000001</ele>
        <time>2015-01-31T11:43:23Z</time>
      </trkpt>
      <trkpt lat="46.164990914985538" lon="8.162107206881046">
        <ele>2012.1800000000001</ele>
        <time>2015-01-31T11:43:35Z</time>
      </trkpt>
      <trkpt lat="46.164959399029613" lon="8.162283059209585">
        <ele>2010.73</ele>
        <time>2015-01-31T11:43:49Z</time>
      </trkpt>
      <trkpt lat="46.16491723805666" lon="8.162441728636622">
        <ele>2010.25</ele>
        <time>2015-01-31T11:44:02Z</time>
      </trkpt>
      <trkpt lat="46.164870131760836" lon="8.162643816322088">
        <ele>2009.77</ele>
        <time>2015-01-31T11:44:16Z</time>
      </trkpt>
      <trkpt lat="46.164824450388551" lon="8.162882113829255">
        <ele>2008.3299999999999</ele>
        <time>2015-01-31T11:44:31Z</time>
      </trkpt>
      <trkpt lat="46.164779020473361" lon="8.163083279505372">
        <ele>2007.8499999999999</ele>
        <time>2015-01-31T11:44:44Z</time>
      </trkpt>
      <trkpt lat="46.164729818701744" lon="8.163320906460285">
        <ele>2006.8900000000001</ele>
        <time>2015-01-31T11:44:59Z</time>
      </trkpt>
      <trkpt lat="46.164707439020276" lon="8.163527939468622">
        <ele>2006.4100000000001</ele>
        <time>2015-01-31T11:45:13Z</time>
      </trkpt>
      <trkpt lat="46.164706265553832" lon="8.163717705756426">
        <ele>2006.4100000000001</ele>
        <time>2015-01-31T11:45:26Z</time>
      </trkpt>
      <trkpt lat="46.164702828973532" lon="8.163961619138718">
        <ele>2005.45</ele>
        <time>2015-01-31T11:45:41Z</time>
      </trkpt>
      <trkpt lat="46.164666451513767" lon="8.16415473818779">
        <ele>2002.5599999999999</ele>
        <time>2015-01-31T11:45:53Z</time>
      </trkpt>
      <trkpt lat="46.164615321904421" lon="8.164356909692287">
        <ele>1999.2</ele>
        <time>2015-01-31T11:46:06Z</time>
      </trkpt>
      <trkpt lat="46.164551367983222" lon="8.164632422849536">
        <ele>1996.3199999999999</ele>
        <time>2015-01-31T11:46:21Z</time>
      </trkpt>
      <trkpt lat="46.164485402405262" lon="8.164914892986417">
        <ele>1993.9100000000001</ele>
        <time>2015-01-31T11:46:37Z</time>
      </trkpt>
      <trkpt lat="46.164429746568203" lon="8.165184874087572">
        <ele>1992.95</ele>
        <time>2015-01-31T11:46:52Z</time>
      </trkpt>
      <trkpt lat="46.164368810132146" lon="8.165449323132634">
        <ele>1991.03</ele>
        <time>2015-01-31T11:47:07Z</time>
      </trkpt>
      <trkpt lat="46.164301251992583" lon="8.165666330605745">
        <ele>1987.6600000000001</ele>
        <time>2015-01-31T11:47:20Z</time>
      </trkpt>
      <trkpt lat="46.164225563406944" lon="8.165867161005735">
        <ele>1984.78</ele>
        <time>2015-01-31T11:47:32Z</time>
      </trkpt>
      <trkpt lat="46.164134116843343" lon="8.166070841252804">
        <ele>1981.4100000000001</ele>
        <time>2015-01-31T11:47:45Z</time>
      </trkpt>
      <trkpt lat="46.164023643359542" lon="8.166292710229754">
        <ele>1978.53</ele>
        <time>2015-01-31T11:47:59Z</time>
      </trkpt>
      <trkpt lat="46.163938399404287" lon="8.166538802906871">
        <ele>1975.6500000000001</ele>
        <time>2015-01-31T11:48:14Z</time>
      </trkpt>
      <trkpt lat="46.163892550393939" lon="8.166769053786993">
        <ele>1972.76</ele>
        <time>2015-01-31T11:48:26Z</time>
      </trkpt>
      <trkpt lat="46.163857597857714" lon="8.167009530588985">
        <ele>1970.3599999999999</ele>
        <time>2015-01-31T11:48:39Z</time>
      </trkpt>
      <trkpt lat="46.163825076073408" lon="8.167224442586303">
        <ele>1969.8800000000001</ele>
        <time>2015-01-31T11:48:53Z</time>
      </trkpt>
      <trkpt lat="46.163823148235679" lon="8.16740850917995">
        <ele>1966.51</ele>
        <time>2015-01-31T11:49:03Z</time>
      </trkpt>
      <trkpt lat="46.16381929256022" lon="8.167565753683448">
        <ele>1963.6300000000001</ele>
        <time>2015-01-31T11:49:12Z</time>
      </trkpt>
      <trkpt lat="46.163815855979919" lon="8.167605483904481">
        <ele>1962.1900000000001</ele>
        <time>2015-01-31T11:49:15Z</time>
      </trkpt>
      <trkpt lat="46.163827003911138" lon="8.167771529406309">
        <ele>1958.8199999999999</ele>
        <time>2015-01-31T11:49:25Z</time>
      </trkpt>
      <trkpt lat="46.163830691948533" lon="8.167783180251718">
        <ele>1958.3399999999999</ele>
        <time>2015-01-31T11:49:26Z</time>
      </trkpt>
      <trkpt lat="46.163854328915477" lon="8.167880410328507">
        <ele>1955.46</ele>
        <time>2015-01-31T11:49:33Z</time>
      </trkpt>
      <trkpt lat="46.163874110206962" lon="8.167924247682095">
        <ele>1954.02</ele>
        <time>2015-01-31T11:49:36Z</time>
      </trkpt>
      <trkpt lat="46.163899004459381" lon="8.168027093634009">
        <ele>1950.1700000000001</ele>
        <time>2015-01-31T11:49:41Z</time>
      </trkpt>
      <trkpt lat="46.163903530687094" lon="8.168051904067397">
        <ele>1950.1700000000001</ele>
        <time>2015-01-31T11:49:42Z</time>
      </trkpt>
      <trkpt lat="46.163923060521483" lon="8.168189618736506">
        <ele>1946.8099999999999</ele>
        <time>2015-01-31T11:49:48Z</time>
      </trkpt>
      <trkpt lat="46.163950134068727" lon="8.168292129412293">
        <ele>1944.8800000000001</ele>
        <time>2015-01-31T11:49:54Z</time>
      </trkpt>
      <trkpt lat="46.163991624489427" lon="8.168464712798595">
        <ele>1942</ele>
        <time>2015-01-31T11:50:04Z</time>
      </trkpt>
      <trkpt lat="46.164010483771563" lon="8.168519781902432">
        <ele>1940.5599999999999</ele>
        <time>2015-01-31T11:50:07Z</time>
      </trkpt>
      <trkpt lat="46.164034372195601" lon="8.168665710836649">
        <ele>1936.23</ele>
        <time>2015-01-31T11:50:14Z</time>
      </trkpt>
      <trkpt lat="46.164087262004614" lon="8.168928902596235">
        <ele>1933.8299999999999</ele>
        <time>2015-01-31T11:50:27Z</time>
      </trkpt>
      <trkpt lat="46.164088267832994" lon="8.169004004448652">
        <ele>1934.3099999999999</ele>
        <time>2015-01-31T11:50:40Z</time>
      </trkpt>
      <trkpt lat="46.164075275883079" lon="8.16899654455483">
        <ele>1934.3099999999999</ele>
        <time>2015-01-31T11:50:58Z</time>
      </trkpt>
      <trkpt lat="46.164072426036" lon="8.168987240642309">
        <ele>1933.8299999999999</ele>
        <time>2015-01-31T11:51:09Z</time>
      </trkpt>
      <trkpt lat="46.16405138745904" lon="8.168999562039971">
        <ele>1933.8299999999999</ele>
        <time>2015-01-31T11:51:23Z</time>
      </trkpt>
      <trkpt lat="46.164054740220308" lon="8.16902638413012">
        <ele>1934.3099999999999</ele>
        <time>2015-01-31T11:51:45Z</time>
      </trkpt>
      <trkpt lat="46.164063289761543" lon="8.169040465727449">
        <ele>1933.8299999999999</ele>
        <time>2015-01-31T11:52:08Z</time>
      </trkpt>
      <trkpt lat="46.16406605578959" lon="8.169050188735127">
        <ele>1933.8299999999999</ele>
        <time>2015-01-31T11:52:23Z</time>
      </trkpt>
      <trkpt lat="46.164053147658706" lon="8.169061671942473">
        <ele>1934.3099999999999</ele>
        <time>2015-01-31T11:52:40Z</time>
      </trkpt>
      <trkpt lat="46.16399422287941" lon="8.169258730486035">
        <ele>1932.8699999999999</ele>
        <time>2015-01-31T11:52:52Z</time>
      </trkpt>
      <trkpt lat="46.16389355622232" lon="8.169508846476674">
        <ele>1932.3900000000001</ele>
        <time>2015-01-31T11:53:07Z</time>
      </trkpt>
      <trkpt lat="46.163872601464391" lon="8.169559976086021">
        <ele>1931.4300000000001</ele>
        <time>2015-01-31T11:53:10Z</time>
      </trkpt>
      <trkpt lat="46.163774784654379" lon="8.16979743540287">
        <ele>1928.54</ele>
        <time>2015-01-31T11:53:25Z</time>
      </trkpt>
      <trkpt lat="46.163694905117154" lon="8.170092226937413">
        <ele>1926.1400000000001</ele>
        <time>2015-01-31T11:53:41Z</time>
      </trkpt>
      <trkpt lat="46.163628855720162" lon="8.170335134491324">
        <ele>1924.22</ele>
        <time>2015-01-31T11:53:55Z</time>
      </trkpt>
      <trkpt lat="46.163605386391282" lon="8.170431107282639">
        <ele>1923.25</ele>
        <time>2015-01-31T11:54:01Z</time>
      </trkpt>
      <trkpt lat="46.163549646735191" lon="8.170685581862927">
        <ele>1920.8499999999999</ele>
        <time>2015-01-31T11:54:17Z</time>
      </trkpt>
      <trkpt lat="46.163473455235362" lon="8.170977858826518">
        <ele>1918.9300000000001</ele>
        <time>2015-01-31T11:54:34Z</time>
      </trkpt>
      <trkpt lat="46.16340103559196" lon="8.171246834099293">
        <ele>1915.5599999999999</ele>
        <time>2015-01-31T11:54:49Z</time>
      </trkpt>
      <trkpt lat="46.163322748616338" lon="8.171508349478245">
        <ele>1912.6800000000001</ele>
        <time>2015-01-31T11:55:04Z</time>
      </trkpt>
      <trkpt lat="46.163245048373938" lon="8.171700546517968">
        <ele>1909.8</ele>
        <time>2015-01-31T11:55:16Z</time>
      </trkpt>
      <trkpt lat="46.163170784711838" lon="8.171920487657189">
        <ele>1906.4300000000001</ele>
        <time>2015-01-31T11:55:29Z</time>
      </trkpt>
      <trkpt lat="46.163113033398986" lon="8.172092484310269">
        <ele>1903.55</ele>
        <time>2015-01-31T11:55:39Z</time>
      </trkpt>
      <trkpt lat="46.163055701181293" lon="8.172272695228458">
        <ele>1900.1800000000001</ele>
        <time>2015-01-31T11:55:49Z</time>
      </trkpt>
      <trkpt lat="46.162990070879459" lon="8.172484254464507">
        <ele>1897.3</ele>
        <time>2015-01-31T11:56:01Z</time>
      </trkpt>
      <trkpt lat="46.162929469719529" lon="8.172667315229774">
        <ele>1893.9300000000001</ele>
        <time>2015-01-31T11:56:11Z</time>
      </trkpt>
      <trkpt lat="46.162807261571288" lon="8.17289873957634">
        <ele>1891.05</ele>
        <time>2015-01-31T11:56:25Z</time>
      </trkpt>
      <trkpt lat="46.162722101435065" lon="8.173050200566649">
        <ele>1887.6900000000001</ele>
        <time>2015-01-31T11:56:35Z</time>
      </trkpt>
      <trkpt lat="46.162646161392331" lon="8.173225466161966">
        <ele>1884.3199999999999</ele>
        <time>2015-01-31T11:56:45Z</time>
      </trkpt>
      <trkpt lat="46.162565695121884" lon="8.173438785597682">
        <ele>1881.4400000000001</ele>
        <time>2015-01-31T11:56:57Z</time>
      </trkpt>
      <trkpt lat="46.162491012364626" lon="8.173621008172631">
        <ele>1879.03</ele>
        <time>2015-01-31T11:57:07Z</time>
      </trkpt>
      <trkpt lat="46.162399649620056" lon="8.173886546865106">
        <ele>1875.6700000000001</ele>
        <time>2015-01-31T11:57:22Z</time>
      </trkpt>
      <trkpt lat="46.16238028742373" lon="8.174136662855744">
        <ele>1872.3</ele>
        <time>2015-01-31T11:57:36Z</time>
      </trkpt>
      <trkpt lat="46.162380957975984" lon="8.174377139657736">
        <ele>1868.9400000000001</ele>
        <time>2015-01-31T11:57:49Z</time>
      </trkpt>
      <trkpt lat="46.162331672385335" lon="8.174650054425001">
        <ele>1866.0599999999999</ele>
        <time>2015-01-31T11:58:05Z</time>
      </trkpt>
      <trkpt lat="46.162313232198358" lon="8.174948282539845">
        <ele>1863.6500000000001</ele>
        <time>2015-01-31T11:58:21Z</time>
      </trkpt>
      <trkpt lat="46.162292696535587" lon="8.175264950841665">
        <ele>1861.73</ele>
        <time>2015-01-31T11:58:37Z</time>
      </trkpt>
      <trkpt lat="46.162287583574653" lon="8.175298813730478">
        <ele>1861.25</ele>
        <time>2015-01-31T11:58:39Z</time>
      </trkpt>
      <trkpt lat="46.162281883880496" lon="8.175429403781891">
        <ele>1859.8099999999999</ele>
        <time>2015-01-31T11:58:46Z</time>
      </trkpt>
      <trkpt lat="46.162255899980664" lon="8.175704833120108">
        <ele>1856.4400000000001</ele>
        <time>2015-01-31T11:59:01Z</time>
      </trkpt>
      <trkpt lat="46.162167889997363" lon="8.175931479781866">
        <ele>1853.0799999999999</ele>
        <time>2015-01-31T11:59:14Z</time>
      </trkpt>
      <trkpt lat="46.162094799801707" lon="8.176037259399891">
        <ele>1851.6400000000001</ele>
        <time>2015-01-31T11:59:25Z</time>
      </trkpt>
      <trkpt lat="46.161992959678173" lon="8.176244208589196">
        <ele>1849.23</ele>
        <time>2015-01-31T11:59:40Z</time>
      </trkpt>
      <trkpt lat="46.161889862269163" lon="8.176458952948451">
        <ele>1846.3499999999999</ele>
        <time>2015-01-31T11:59:55Z</time>
      </trkpt>
      <trkpt lat="46.161857172846794" lon="8.176538413390517">
        <ele>1845.3900000000001</ele>
        <time>2015-01-31T12:00:00Z</time>
      </trkpt>
      <trkpt lat="46.161766229197383" lon="8.176723904907703">
        <ele>1842.98</ele>
        <time>2015-01-31T12:00:13Z</time>
      </trkpt>
      <trkpt lat="46.16172599606216" lon="8.176797246560454">
        <ele>1841.54</ele>
        <time>2015-01-31T12:00:18Z</time>
      </trkpt>
      <trkpt lat="46.161622731015086" lon="8.177036633715034">
        <ele>1839.6199999999999</ele>
        <time>2015-01-31T12:00:34Z</time>
      </trkpt>
      <trkpt lat="46.161544695496559" lon="8.177256574854255">
        <ele>1838.1800000000001</ele>
        <time>2015-01-31T12:00:48Z</time>
      </trkpt>
      <trkpt lat="46.161540756002069" lon="8.177526639774442">
        <ele>1836.74</ele>
        <time>2015-01-31T12:01:03Z</time>
      </trkpt>
      <trkpt lat="46.161565901711583" lon="8.177814306691289">
        <ele>1834.3299999999999</ele>
        <time>2015-01-31T12:01:18Z</time>
      </trkpt>
      <trkpt lat="46.161573277786374" lon="8.178081018850207">
        <ele>1832.8900000000001</ele>
        <time>2015-01-31T12:01:32Z</time>
      </trkpt>
      <trkpt lat="46.16157554090023" lon="8.17816567607224">
        <ele>1832.4100000000001</ele>
        <time>2015-01-31T12:01:37Z</time>
      </trkpt>
      <trkpt lat="46.161537738516927" lon="8.178425766527653">
        <ele>1829.05</ele>
        <time>2015-01-31T12:01:51Z</time>
      </trkpt>
      <trkpt lat="46.161535726860166" lon="8.178447475656867">
        <ele>1829.05</ele>
        <time>2015-01-31T12:01:52Z</time>
      </trkpt>
      <trkpt lat="46.161545617505908" lon="8.178499359637499">
        <ele>1828.0799999999999</ele>
        <time>2015-01-31T12:01:56Z</time>
      </trkpt>
      <trkpt lat="46.161592053249478" lon="8.17850723862648">
        <ele>1827.5999999999999</ele>
        <time>2015-01-31T12:02:00Z</time>
      </trkpt>
      <trkpt lat="46.161668496206403" lon="8.178529450669885">
        <ele>1826.6400000000001</ele>
        <time>2015-01-31T12:02:06Z</time>
      </trkpt>
      <trkpt lat="46.161685511469841" lon="8.17858686670661">
        <ele>1826.1600000000001</ele>
        <time>2015-01-31T12:02:18Z</time>
      </trkpt>
      <trkpt lat="46.161684421822429" lon="8.178597679361701">
        <ele>1826.1600000000001</ele>
        <time>2015-01-31T12:02:27Z</time>
      </trkpt>
      <trkpt lat="46.161693390458822" lon="8.178689796477556">
        <ele>1825.2</ele>
        <time>2015-01-31T12:02:33Z</time>
      </trkpt>
      <trkpt lat="46.161538325250149" lon="8.178887441754341">
        <ele>1823.76</ele>
        <time>2015-01-31T12:02:49Z</time>
      </trkpt>
      <trkpt lat="46.161513766273856" lon="8.179147867485881">
        <ele>1822.8</ele>
        <time>2015-01-31T12:03:04Z</time>
      </trkpt>
      <trkpt lat="46.161456182599068" lon="8.179427655413747">
        <ele>1820.3900000000001</ele>
        <time>2015-01-31T12:03:20Z</time>
      </trkpt>
      <trkpt lat="46.161395581439137" lon="8.179652625694871">
        <ele>1818.47</ele>
        <time>2015-01-31T12:03:33Z</time>
      </trkpt>
      <trkpt lat="46.161311594769359" lon="8.179894192144275">
        <ele>1816.0699999999999</ele>
        <time>2015-01-31T12:03:47Z</time>
      </trkpt>
      <trkpt lat="46.161228278651834" lon="8.180120838806033">
        <ele>1813.1800000000001</ele>
        <time>2015-01-31T12:04:01Z</time>
      </trkpt>
      <trkpt lat="46.161105399951339" lon="8.180347569286823">
        <ele>1810.3</ele>
        <time>2015-01-31T12:04:16Z</time>
      </trkpt>
      <trkpt lat="46.161020239815116" lon="8.180589973926544">
        <ele>1807.9000000000001</ele>
        <time>2015-01-31T12:04:30Z</time>
      </trkpt>
      <trkpt lat="46.160977492108941" lon="8.18087755702436">
        <ele>1804.53</ele>
        <time>2015-01-31T12:04:45Z</time>
      </trkpt>
      <trkpt lat="46.160891745239496" lon="8.181168995797634">
        <ele>1802.1300000000001</ele>
        <time>2015-01-31T12:05:01Z</time>
      </trkpt>
      <trkpt lat="46.160801807418466" lon="8.181448867544532">
        <ele>1799.73</ele>
        <time>2015-01-31T12:05:17Z</time>
      </trkpt>
      <trkpt lat="46.160682868212461" lon="8.181743826717138">
        <ele>1797.8</ele>
        <time>2015-01-31T12:05:35Z</time>
      </trkpt>
      <trkpt lat="46.16058312356472" lon="8.181877937167883">
        <ele>1796.3599999999999</ele>
        <time>2015-01-31T12:05:46Z</time>
      </trkpt>
      <trkpt lat="46.160555798560381" lon="8.181915488094091">
        <ele>1795.8800000000001</ele>
        <time>2015-01-31T12:05:50Z</time>
      </trkpt>
      <trkpt lat="46.160544902086258" lon="8.181945746764541">
        <ele>1795.8800000000001</ele>
        <time>2015-01-31T12:05:52Z</time>
      </trkpt>
      <trkpt lat="46.160511374473572" lon="8.181964186951518">
        <ele>1795.4000000000001</ele>
        <time>2015-01-31T12:05:55Z</time>
      </trkpt>
      <trkpt lat="46.160452365875244" lon="8.181974664330483">
        <ele>1795.8800000000001</ele>
        <time>2015-01-31T12:06:00Z</time>
      </trkpt>
      <trkpt lat="46.160332169383764" lon="8.181956727057695">
        <ele>1791.0699999999999</ele>
        <time>2015-01-31T12:06:09Z</time>
      </trkpt>
      <trkpt lat="46.160213397815824" lon="8.181921523064375">
        <ele>1788.1900000000001</ele>
        <time>2015-01-31T12:06:16Z</time>
      </trkpt>
      <trkpt lat="46.160097727552056" lon="8.181935520842671">
        <ele>1784.8199999999999</ele>
        <time>2015-01-31T12:06:23Z</time>
      </trkpt>
      <trkpt lat="46.160081131383777" lon="8.181941891089082">
        <ele>1784.8199999999999</ele>
        <time>2015-01-31T12:06:24Z</time>
      </trkpt>
      <trkpt lat="46.159962778910995" lon="8.181991511955857">
        <ele>1781.46</ele>
        <time>2015-01-31T12:06:32Z</time>
      </trkpt>
      <trkpt lat="46.159763373434544" lon="8.182054879143834">
        <ele>1780.02</ele>
        <time>2015-01-31T12:06:47Z</time>
      </trkpt>
      <trkpt lat="46.159644434228539" lon="8.182101147249341">
        <ele>1778.0999999999999</ele>
        <time>2015-01-31T12:06:56Z</time>
      </trkpt>
      <trkpt lat="46.159598082304001" lon="8.182108104228973">
        <ele>1778.0999999999999</ele>
        <time>2015-01-31T12:07:00Z</time>
      </trkpt>
      <trkpt lat="46.15946413949132" lon="8.182162921875715">
        <ele>1777.1300000000001</ele>
        <time>2015-01-31T12:07:11Z</time>
      </trkpt>
      <trkpt lat="46.159420469775796" lon="8.182178679853678">
        <ele>1776.1700000000001</ele>
        <time>2015-01-31T12:07:15Z</time>
      </trkpt>
      <trkpt lat="46.159243443980813" lon="8.182366183027625">
        <ele>1773.29</ele>
        <time>2015-01-31T12:07:32Z</time>
      </trkpt>
      <trkpt lat="46.159173874184489" lon="8.182500964030623">
        <ele>1769.9200000000001</ele>
        <time>2015-01-31T12:07:40Z</time>
      </trkpt>
      <trkpt lat="46.159106148406863" lon="8.18262392655015">
        <ele>1767.52</ele>
        <time>2015-01-31T12:07:46Z</time>
      </trkpt>
      <trkpt lat="46.159040182828903" lon="8.182781925424933">
        <ele>1763.6800000000001</ele>
        <time>2015-01-31T12:07:51Z</time>
      </trkpt>
      <trkpt lat="46.15902392193675" lon="8.182806903496385">
        <ele>1763.6800000000001</ele>
        <time>2015-01-31T12:07:52Z</time>
      </trkpt>
      <trkpt lat="46.1589608900249" lon="8.182908575981855">
        <ele>1759.3499999999999</ele>
        <time>2015-01-31T12:07:56Z</time>
      </trkpt>
      <trkpt lat="46.158876651898026" lon="8.183023827150464">
        <ele>1755.99</ele>
        <time>2015-01-31T12:08:02Z</time>
      </trkpt>
      <trkpt lat="46.158849075436592" lon="8.183058612048626">
        <ele>1755.02</ele>
        <time>2015-01-31T12:08:04Z</time>
      </trkpt>
      <trkpt lat="46.158743714913726" lon="8.183153159916401">
        <ele>1752.1400000000001</ele>
        <time>2015-01-31T12:08:13Z</time>
      </trkpt>
      <trkpt lat="46.158728795126081" lon="8.183168834075332">
        <ele>1750.22</ele>
        <time>2015-01-31T12:08:15Z</time>
      </trkpt>
      <trkpt lat="46.158624608069658" lon="8.183272769674659">
        <ele>1747.3299999999999</ele>
        <time>2015-01-31T12:08:24Z</time>
      </trkpt>
      <trkpt lat="46.158540369942784" lon="8.18335834890604">
        <ele>1743.49</ele>
        <time>2015-01-31T12:08:30Z</time>
      </trkpt>
      <trkpt lat="46.15852352231741" lon="8.183374525979161">
        <ele>1743.49</ele>
        <time>2015-01-31T12:08:31Z</time>
      </trkpt>
      <trkpt lat="46.158488150686026" lon="8.183408891782165">
        <ele>1742.05</ele>
        <time>2015-01-31T12:08:33Z</time>
      </trkpt>
      <trkpt lat="46.158385891467333" lon="8.183494890108705">
        <ele>1739.1600000000001</ele>
        <time>2015-01-31T12:08:41Z</time>
      </trkpt>
      <trkpt lat="46.158279189839959" lon="8.183603771030903">
        <ele>1735.8</ele>
        <time>2015-01-31T12:08:50Z</time>
      </trkpt>
      <trkpt lat="46.158150024712086" lon="8.183716759085655">
        <ele>1732.9100000000001</ele>
        <time>2015-01-31T12:09:01Z</time>
      </trkpt>
      <trkpt lat="46.158012058585882" lon="8.183826059103012">
        <ele>1730.99</ele>
        <time>2015-01-31T12:09:13Z</time>
      </trkpt>
      <trkpt lat="46.157981632277369" lon="8.183860508725047">
        <ele>1729.55</ele>
        <time>2015-01-31T12:09:16Z</time>
      </trkpt>
      <trkpt lat="46.157878115773201" lon="8.183951200917363">
        <ele>1726.6700000000001</ele>
        <time>2015-01-31T12:09:24Z</time>
      </trkpt>
      <trkpt lat="46.157865123823285" lon="8.183977855369449">
        <ele>1725.22</ele>
        <time>2015-01-31T12:09:26Z</time>
      </trkpt>
      <trkpt lat="46.157824639230967" lon="8.184026805683971">
        <ele>1722.8199999999999</ele>
        <time>2015-01-31T12:09:30Z</time>
      </trkpt>
      <trkpt lat="46.157798990607262" lon="8.184044491499662">
        <ele>1722.3399999999999</ele>
        <time>2015-01-31T12:09:32Z</time>
      </trkpt>
      <trkpt lat="46.157697150483727" lon="8.184170387685299">
        <ele>1718.97</ele>
        <time>2015-01-31T12:09:42Z</time>
      </trkpt>
      <trkpt lat="46.157664712518454" lon="8.184211123734713">
        <ele>1718.01</ele>
        <time>2015-01-31T12:09:45Z</time>
      </trkpt>
      <trkpt lat="46.15763763897121" lon="8.18427599966526">
        <ele>1716.5699999999999</ele>
        <time>2015-01-31T12:09:49Z</time>
      </trkpt>
      <trkpt lat="46.157568152993917" lon="8.184419497847557">
        <ele>1715.1300000000001</ele>
        <time>2015-01-31T12:10:03Z</time>
      </trkpt>
      <trkpt lat="46.157563291490078" lon="8.184398543089628">
        <ele>1713.21</ele>
        <time>2015-01-31T12:10:15Z</time>
      </trkpt>
      <trkpt lat="46.157553233206272" lon="8.184368452057242">
        <ele>1713.21</ele>
        <time>2015-01-31T12:10:32Z</time>
      </trkpt>
      <trkpt lat="46.157537726685405" lon="8.184367027133703">
        <ele>1713.6900000000001</ele>
        <time>2015-01-31T12:10:50Z</time>
      </trkpt>
      <trkpt lat="46.157538145780563" lon="8.184386473149061">
        <ele>1713.6900000000001</ele>
        <time>2015-01-31T12:10:59Z</time>
      </trkpt>
      <trkpt lat="46.157447453588247" lon="8.184663746505976">
        <ele>1710.3199999999999</ele>
        <time>2015-01-31T12:11:14Z</time>
      </trkpt>
      <trkpt lat="46.15731124766171" lon="8.184740273281932">
        <ele>1706.96</ele>
        <time>2015-01-31T12:11:26Z</time>
      </trkpt>
      <trkpt lat="46.157211586833" lon="8.184881927445531">
        <ele>1704.0699999999999</ele>
        <time>2015-01-31T12:11:37Z</time>
      </trkpt>
      <trkpt lat="46.157239247113466" lon="8.185068424791098">
        <ele>1700.71</ele>
        <time>2015-01-31T12:11:48Z</time>
      </trkpt>
      <trkpt lat="46.157243773341179" lon="8.185137826949358">
        <ele>1699.27</ele>
        <time>2015-01-31T12:11:52Z</time>
      </trkpt>
      <trkpt lat="46.157205887138844" lon="8.185189962387085">
        <ele>1698.3099999999999</ele>
        <time>2015-01-31T12:11:57Z</time>
      </trkpt>
      <trkpt lat="46.157170012593269" lon="8.185213096439838">
        <ele>1697.3399999999999</ele>
        <time>2015-01-31T12:12:00Z</time>
      </trkpt>
      <trkpt lat="46.157037662342191" lon="8.185295658186078">
        <ele>1694.46</ele>
        <time>2015-01-31T12:12:13Z</time>
      </trkpt>
      <trkpt lat="46.157048055902123" lon="8.185445526614785">
        <ele>1692.0599999999999</ele>
        <time>2015-01-31T12:12:21Z</time>
      </trkpt>
      <trkpt lat="46.157050067558885" lon="8.185546444728971">
        <ele>1690.6199999999999</ele>
        <time>2015-01-31T12:12:27Z</time>
      </trkpt>
      <trkpt lat="46.157007152214646" lon="8.185787508264184">
        <ele>1687.25</ele>
        <time>2015-01-31T12:12:40Z</time>
      </trkpt>
      <trkpt lat="46.157004805281758" lon="8.18586453795433">
        <ele>1686.29</ele>
        <time>2015-01-31T12:12:44Z</time>
      </trkpt>
      <trkpt lat="46.156973540782928" lon="8.185887839645147">
        <ele>1685.8099999999999</ele>
        <time>2015-01-31T12:12:47Z</time>
      </trkpt>
      <trkpt lat="46.156894667074084" lon="8.185756662860513">
        <ele>1683.4100000000001</ele>
        <time>2015-01-31T12:12:59Z</time>
      </trkpt>
      <trkpt lat="46.156760221347213" lon="8.185588270425797">
        <ele>1680.04</ele>
        <time>2015-01-31T12:13:13Z</time>
      </trkpt>
      <trkpt lat="46.156741697341204" lon="8.185576116666198">
        <ele>1679.5599999999999</ele>
        <time>2015-01-31T12:13:15Z</time>
      </trkpt>
      <trkpt lat="46.156720910221338" lon="8.185580810531974">
        <ele>1678.5999999999999</ele>
        <time>2015-01-31T12:13:17Z</time>
      </trkpt>
      <trkpt lat="46.156675312668085" lon="8.185666054487228">
        <ele>1677.1600000000001</ele>
        <time>2015-01-31T12:13:23Z</time>
      </trkpt>
      <trkpt lat="46.156658045947552" lon="8.185863364487886">
        <ele>1673.79</ele>
        <time>2015-01-31T12:13:34Z</time>
      </trkpt>
      <trkpt lat="46.156639354303479" lon="8.185873590409756">
        <ele>1673.79</ele>
        <time>2015-01-31T12:13:36Z</time>
      </trkpt>
      <trkpt lat="46.156613454222679" lon="8.185871662572026">
        <ele>1672.8299999999999</ele>
        <time>2015-01-31T12:13:38Z</time>
      </trkpt>
      <trkpt lat="46.156560648232698" lon="8.185817766934633">
        <ele>1671.3900000000001</ele>
        <time>2015-01-31T12:13:43Z</time>
      </trkpt>
      <trkpt lat="46.156533993780613" lon="8.185761356726289">
        <ele>1670.4300000000001</ele>
        <time>2015-01-31T12:13:47Z</time>
      </trkpt>
      <trkpt lat="46.156504657119513" lon="8.18554200232029">
        <ele>1667.54</ele>
        <time>2015-01-31T12:14:01Z</time>
      </trkpt>
      <trkpt lat="46.156496778130531" lon="8.185399258509278">
        <ele>1666.0999999999999</ele>
        <time>2015-01-31T12:14:08Z</time>
      </trkpt>
      <trkpt lat="46.15649526938796" lon="8.185381488874555">
        <ele>1666.0999999999999</ele>
        <time>2015-01-31T12:14:09Z</time>
      </trkpt>
      <trkpt lat="46.156466351822019" lon="8.185319295153022">
        <ele>1664.6600000000001</ele>
        <time>2015-01-31T12:14:14Z</time>
      </trkpt>
      <trkpt lat="46.156377336010337" lon="8.185520628467202">
        <ele>1661.3</ele>
        <time>2015-01-31T12:14:28Z</time>
      </trkpt>
      <trkpt lat="46.156355626881123" lon="8.185558430850506">
        <ele>1659.8499999999999</ele>
        <time>2015-01-31T12:14:35Z</time>
      </trkpt>
      <trkpt lat="46.156336599960923" lon="8.185628922656179">
        <ele>1659.3699999999999</ele>
        <time>2015-01-31T12:14:39Z</time>
      </trkpt>
      <trkpt lat="46.156258564442396" lon="8.185860011726618">
        <ele>1656.01</ele>
        <time>2015-01-31T12:14:54Z</time>
      </trkpt>
      <trkpt lat="46.156249595806003" lon="8.185924720019102">
        <ele>1655.05</ele>
        <time>2015-01-31T12:14:58Z</time>
      </trkpt>
      <trkpt lat="46.156230987980962" lon="8.185979453846812">
        <ele>1654.0899999999999</ele>
        <time>2015-01-31T12:15:02Z</time>
      </trkpt>
      <trkpt lat="46.156217576935887" lon="8.186019603163004">
        <ele>1653.5999999999999</ele>
        <time>2015-01-31T12:15:05Z</time>
      </trkpt>
      <trkpt lat="46.156185809522867" lon="8.186090346425772">
        <ele>1652.1600000000001</ele>
        <time>2015-01-31T12:15:10Z</time>
      </trkpt>
      <trkpt lat="46.156118921935558" lon="8.186308275908232">
        <ele>1648.3199999999999</ele>
        <time>2015-01-31T12:15:24Z</time>
      </trkpt>
      <trkpt lat="46.156108696013689" lon="8.186449762433767">
        <ele>1646.8800000000001</ele>
        <time>2015-01-31T12:15:31Z</time>
      </trkpt>
      <trkpt lat="46.156071815639734" lon="8.186624106019735">
        <ele>1643.99</ele>
        <time>2015-01-31T12:15:47Z</time>
      </trkpt>
      <trkpt lat="46.156074497848749" lon="8.186627961695194">
        <ele>1643.99</ele>
        <time>2015-01-31T12:15:52Z</time>
      </trkpt>
      <trkpt lat="46.156027223914862" lon="8.186568869277835">
        <ele>1643.03</ele>
        <time>2015-01-31T12:15:57Z</time>
      </trkpt>
      <trkpt lat="46.155951786786318" lon="8.186311293393374">
        <ele>1640.6300000000001</ele>
        <time>2015-01-31T12:16:12Z</time>
      </trkpt>
      <trkpt lat="46.155894119292498" lon="8.186064781621099">
        <ele>1638.7</ele>
        <time>2015-01-31T12:16:26Z</time>
      </trkpt>
      <trkpt lat="46.155839720740914" lon="8.185794549062848">
        <ele>1635.8199999999999</ele>
        <time>2015-01-31T12:16:41Z</time>
      </trkpt>
      <trkpt lat="46.155827566981316" lon="8.18551174364984">
        <ele>1632.9400000000001</ele>
        <time>2015-01-31T12:16:56Z</time>
      </trkpt>
      <trkpt lat="46.155817592516541" lon="8.18547360599041">
        <ele>1632.9400000000001</ele>
        <time>2015-01-31T12:16:58Z</time>
      </trkpt>
      <trkpt lat="46.155750872567296" lon="8.185502607375383">
        <ele>1631.01</ele>
        <time>2015-01-31T12:17:05Z</time>
      </trkpt>
      <trkpt lat="46.155680045485497" lon="8.185723135247827">
        <ele>1627.6500000000001</ele>
        <time>2015-01-31T12:17:18Z</time>
      </trkpt>
      <trkpt lat="46.155595136806369" lon="8.185931257903576">
        <ele>1624.77</ele>
        <time>2015-01-31T12:17:32Z</time>
      </trkpt>
      <trkpt lat="46.15555708296597" lon="8.186117839068174">
        <ele>1621.8800000000001</ele>
        <time>2015-01-31T12:17:43Z</time>
      </trkpt>
      <trkpt lat="46.155507881194353" lon="8.186354879289866">
        <ele>1618.52</ele>
        <time>2015-01-31T12:17:58Z</time>
      </trkpt>
      <trkpt lat="46.155509725213051" lon="8.186416821554303">
        <ele>1618.52</ele>
        <time>2015-01-31T12:18:02Z</time>
      </trkpt>
      <trkpt lat="46.155498828738928" lon="8.186477841809392">
        <ele>1617.5599999999999</ele>
        <time>2015-01-31T12:18:06Z</time>
      </trkpt>
      <trkpt lat="46.155415009707212" lon="8.186511117964983">
        <ele>1615.6300000000001</ele>
        <time>2015-01-31T12:18:17Z</time>
      </trkpt>
      <trkpt lat="46.155348792672157" lon="8.186298049986363">
        <ele>1612.75</ele>
        <time>2015-01-31T12:18:30Z</time>
      </trkpt>
      <trkpt lat="46.155309649184346" lon="8.186066709458828">
        <ele>1610.3499999999999</ele>
        <time>2015-01-31T12:18:43Z</time>
      </trkpt>
      <trkpt lat="46.155264219269156" lon="8.185840649530292">
        <ele>1607.46</ele>
        <time>2015-01-31T12:18:55Z</time>
      </trkpt>
      <trkpt lat="46.155252987518907" lon="8.185785328969359">
        <ele>1606.02</ele>
        <time>2015-01-31T12:18:58Z</time>
      </trkpt>
      <trkpt lat="46.155242761597037" lon="8.185561029240489">
        <ele>1602.6600000000001</ele>
        <time>2015-01-31T12:19:10Z</time>
      </trkpt>
      <trkpt lat="46.155284671112895" lon="8.18529917858541">
        <ele>1599.29</ele>
        <time>2015-01-31T12:19:24Z</time>
      </trkpt>
      <trkpt lat="46.155321886762977" lon="8.184990473091602">
        <ele>1599.29</ele>
        <time>2015-01-31T12:19:41Z</time>
      </trkpt>
      <trkpt lat="46.155303614214063" lon="8.18494588136673">
        <ele>1599.77</ele>
        <time>2015-01-31T12:19:55Z</time>
      </trkpt>
      <trkpt lat="46.155296321958303" lon="8.184945210814476">
        <ele>1599.77</ele>
        <time>2015-01-31T12:20:19Z</time>
      </trkpt>
      <trkpt lat="46.155276875942945" lon="8.184918304905295">
        <ele>1600.25</ele>
        <time>2015-01-31T12:20:21Z</time>
      </trkpt>
      <trkpt lat="46.155210323631763" lon="8.184883687645197">
        <ele>1600.25</ele>
        <time>2015-01-31T12:20:27Z</time>
      </trkpt>
      <trkpt lat="46.155058862641454" lon="8.184951664879918">
        <ele>1599.77</ele>
        <time>2015-01-31T12:20:41Z</time>
      </trkpt>
      <trkpt lat="46.154952412471175" lon="8.18507730960846">
        <ele>1600.25</ele>
        <time>2015-01-31T12:20:53Z</time>
      </trkpt>
      <trkpt lat="46.154926512390375" lon="8.185128858312964">
        <ele>1600.25</ele>
        <time>2015-01-31T12:20:57Z</time>
      </trkpt>
      <trkpt lat="46.154837915673852" lon="8.185313930734992">
        <ele>1599.77</ele>
        <time>2015-01-31T12:21:12Z</time>
      </trkpt>
      <trkpt lat="46.154788797721267" lon="8.185405544936657">
        <ele>1601.21</ele>
        <time>2015-01-31T12:21:20Z</time>
      </trkpt>
      <trkpt lat="46.154699362814426" lon="8.185556335374713">
        <ele>1603.6199999999999</ele>
        <time>2015-01-31T12:21:35Z</time>
      </trkpt>
      <trkpt lat="46.154691316187382" lon="8.185565304011107">
        <ele>1604.0999999999999</ele>
        <time>2015-01-31T12:21:36Z</time>
      </trkpt>
      <trkpt lat="46.154593080282211" lon="8.185704946517944">
        <ele>1605.0599999999999</ele>
        <time>2015-01-31T12:21:49Z</time>
      </trkpt>
      <trkpt lat="46.154517643153667" lon="8.185893539339304">
        <ele>1605.0599999999999</ele>
        <time>2015-01-31T12:22:02Z</time>
      </trkpt>
      <trkpt lat="46.154421670362353" lon="8.186092022806406">
        <ele>1605.54</ele>
        <time>2015-01-31T12:22:16Z</time>
      </trkpt>
      <trkpt lat="46.15435897372663" lon="8.186286315321922">
        <ele>1606.02</ele>
        <time>2015-01-31T12:22:29Z</time>
      </trkpt>
      <trkpt lat="46.154334833845496" lon="8.186353035271168">
        <ele>1606.98</ele>
        <time>2015-01-31T12:22:34Z</time>
      </trkpt>
      <trkpt lat="46.154319075867534" lon="8.186374576762319">
        <ele>1606.98</ele>
        <time>2015-01-31T12:22:36Z</time>
      </trkpt>
      <trkpt lat="46.154214972630143" lon="8.186521092429757">
        <ele>1607.9400000000001</ele>
        <time>2015-01-31T12:22:49Z</time>
      </trkpt>
      <trkpt lat="46.154161999002099" lon="8.186733070760965">
        <ele>1609.3800000000001</ele>
        <time>2015-01-31T12:23:04Z</time>
      </trkpt>
      <trkpt lat="46.154159987345338" lon="8.18677531555295">
        <ele>1609.3800000000001</ele>
        <time>2015-01-31T12:23:07Z</time>
      </trkpt>
      <trkpt lat="46.154157724231482" lon="8.186849663034082">
        <ele>1609.3800000000001</ele>
        <time>2015-01-31T12:23:12Z</time>
      </trkpt>
      <trkpt lat="46.154093770310283" lon="8.187079327180982">
        <ele>1607.9400000000001</ele>
        <time>2015-01-31T12:23:26Z</time>
      </trkpt>
      <trkpt lat="46.153990253806114" lon="8.187337154522538">
        <ele>1607.46</ele>
        <time>2015-01-31T12:23:43Z</time>
      </trkpt>
      <trkpt lat="46.153947925195098" lon="8.187575116753578">
        <ele>1606.98</ele>
        <time>2015-01-31T12:23:57Z</time>
      </trkpt>
      <trkpt lat="46.15390601567924" lon="8.187812073156238">
        <ele>1607.9400000000001</ele>
        <time>2015-01-31T12:24:11Z</time>
      </trkpt>
      <trkpt lat="46.153854634612799" lon="8.187995972111821">
        <ele>1606.02</ele>
        <time>2015-01-31T12:24:23Z</time>
      </trkpt>
      <trkpt lat="46.153791435062885" lon="8.188262516632676">
        <ele>1605.0599999999999</ele>
        <time>2015-01-31T12:24:38Z</time>
      </trkpt>
      <trkpt lat="46.153763188049197" lon="8.188348179683089">
        <ele>1605.0599999999999</ele>
        <time>2015-01-31T12:24:43Z</time>
      </trkpt>
      <trkpt lat="46.153688505291939" lon="8.188602486625314">
        <ele>1603.1400000000001</ele>
        <time>2015-01-31T12:24:58Z</time>
      </trkpt>
      <trkpt lat="46.15363092161715" lon="8.188906917348504">
        <ele>1601.6900000000001</ele>
        <time>2015-01-31T12:25:14Z</time>
      </trkpt>
      <trkpt lat="46.153571326285601" lon="8.189174719154835">
        <ele>1600.73</ele>
        <time>2015-01-31T12:25:29Z</time>
      </trkpt>
      <trkpt lat="46.15348381921649" lon="8.189400862902403">
        <ele>1600.73</ele>
        <time>2015-01-31T12:25:43Z</time>
      </trkpt>
      <trkpt lat="46.153374770656228" lon="8.189675873145461">
        <ele>1600.73</ele>
        <time>2015-01-31T12:26:00Z</time>
      </trkpt>
      <trkpt lat="46.153303440660238" lon="8.189895814284682">
        <ele>1601.6900000000001</ele>
        <time>2015-01-31T12:26:14Z</time>
      </trkpt>
      <trkpt lat="46.153259100392461" lon="8.190112570300698">
        <ele>1602.6600000000001</ele>
        <time>2015-01-31T12:26:28Z</time>
      </trkpt>
      <trkpt lat="46.15320092998445" lon="8.190309796482325">
        <ele>1604.0999999999999</ele>
        <time>2015-01-31T12:26:42Z</time>
      </trkpt>
      <trkpt lat="46.153147704899311" lon="8.190540298819542">
        <ele>1605.0599999999999</ele>
        <time>2015-01-31T12:26:56Z</time>
      </trkpt>
      <trkpt lat="46.153074195608497" lon="8.190782116726041">
        <ele>1605.0599999999999</ele>
        <time>2015-01-31T12:27:11Z</time>
      </trkpt>
      <trkpt lat="46.153007643297315" lon="8.191048661246896">
        <ele>1604.5799999999999</ele>
        <time>2015-01-31T12:27:26Z</time>
      </trkpt>
      <trkpt lat="46.152937654405832" lon="8.191312775015831">
        <ele>1604.0999999999999</ele>
        <time>2015-01-31T12:27:41Z</time>
      </trkpt>
      <trkpt lat="46.152933882549405" lon="8.191330712288618">
        <ele>1604.0999999999999</ele>
        <time>2015-01-31T12:27:42Z</time>
      </trkpt>
      <trkpt lat="46.152921058237553" lon="8.191400868818164">
        <ele>1604.0999999999999</ele>
        <time>2015-01-31T12:27:46Z</time>
      </trkpt>
      <trkpt lat="46.152888452634215" lon="8.191685266792774">
        <ele>1604.5799999999999</ele>
        <time>2015-01-31T12:28:02Z</time>
      </trkpt>
      <trkpt lat="46.152843357995152" lon="8.191943513229489">
        <ele>1605.0599999999999</ele>
        <time>2015-01-31T12:28:17Z</time>
      </trkpt>
      <trkpt lat="46.152802789583802" lon="8.19216538220644">
        <ele>1605.0599999999999</ele>
        <time>2015-01-31T12:28:30Z</time>
      </trkpt>
      <trkpt lat="46.152763729915023" lon="8.192361434921622">
        <ele>1605.54</ele>
        <time>2015-01-31T12:28:42Z</time>
      </trkpt>
      <trkpt lat="46.152690220624208" lon="8.192616077139974">
        <ele>1605.54</ele>
        <time>2015-01-31T12:28:58Z</time>
      </trkpt>
      <trkpt lat="46.152639342471957" lon="8.192944228649139">
        <ele>1605.54</ele>
        <time>2015-01-31T12:29:16Z</time>
      </trkpt>
      <trkpt lat="46.152615118771791" lon="8.193160146474838">
        <ele>1605.54</ele>
        <time>2015-01-31T12:29:29Z</time>
      </trkpt>
      <trkpt lat="46.152566252276301" lon="8.193322503939271">
        <ele>1606.5</ele>
        <time>2015-01-31T12:29:40Z</time>
      </trkpt>
      <trkpt lat="46.15252610296011" lon="8.193471617996693">
        <ele>1607.9400000000001</ele>
        <time>2015-01-31T12:29:52Z</time>
      </trkpt>
      <trkpt lat="46.152476817369461" lon="8.193626515567303">
        <ele>1609.8599999999999</ele>
        <time>2015-01-31T12:30:06Z</time>
      </trkpt>
      <trkpt lat="46.152463490143418" lon="8.193682255223393">
        <ele>1610.3499999999999</ele>
        <time>2015-01-31T12:30:10Z</time>
      </trkpt>
      <trkpt lat="46.152461729943752" lon="8.193735145032406">
        <ele>1610.8299999999999</ele>
        <time>2015-01-31T12:30:14Z</time>
      </trkpt>
      <trkpt lat="46.152435075491667" lon="8.193937065079808">
        <ele>1613.23</ele>
        <time>2015-01-31T12:30:29Z</time>
      </trkpt>
      <trkpt lat="46.152404146268964" lon="8.1941032782197">
        <ele>1614.6700000000001</ele>
        <time>2015-01-31T12:30:42Z</time>
      </trkpt>
      <trkpt lat="46.152339689433575" lon="8.194302264600992">
        <ele>1617.0699999999999</ele>
        <time>2015-01-31T12:30:58Z</time>
      </trkpt>
      <trkpt lat="46.152265509590507" lon="8.194445427507162">
        <ele>1618.04</ele>
        <time>2015-01-31T12:31:11Z</time>
      </trkpt>
      <trkpt lat="46.152186803519726" lon="8.194589428603649">
        <ele>1619.48</ele>
        <time>2015-01-31T12:31:24Z</time>
      </trkpt>
      <trkpt lat="46.152173392474651" lon="8.194764275103807">
        <ele>1620.4400000000001</ele>
        <time>2015-01-31T12:31:36Z</time>
      </trkpt>
      <trkpt lat="46.152169788256288" lon="8.194887740537524">
        <ele>1620.9200000000001</ele>
        <time>2015-01-31T12:31:43Z</time>
      </trkpt>
      <trkpt lat="46.152075491845608" lon="8.19499452598393">
        <ele>1622.3599999999999</ele>
        <time>2015-01-31T12:31:57Z</time>
      </trkpt>
      <trkpt lat="46.152067109942436" lon="8.194997543469071">
        <ele>1622.8399999999999</ele>
        <time>2015-01-31T12:31:58Z</time>
      </trkpt>
      <trkpt lat="46.151977172121406" lon="8.195044817402959">
        <ele>1624.28</ele>
        <time>2015-01-31T12:32:10Z</time>
      </trkpt>
      <trkpt lat="46.151976585388184" lon="8.195046912878752">
        <ele>1624.28</ele>
        <time>2015-01-31T12:32:11Z</time>
      </trkpt>
      <trkpt lat="46.151959737762809" lon="8.195081697776914">
        <ele>1624.28</ele>
        <time>2015-01-31T12:32:14Z</time>
      </trkpt>
      <trkpt lat="46.151940962299705" lon="8.195152776315808">
        <ele>1624.77</ele>
        <time>2015-01-31T12:32:26Z</time>
      </trkpt>
      <trkpt lat="46.151926377788186" lon="8.195127295330167">
        <ele>1624.77</ele>
        <time>2015-01-31T12:32:41Z</time>
      </trkpt>
      <trkpt lat="46.151919420808554" lon="8.195132073014975">
        <ele>1624.77</ele>
        <time>2015-01-31T12:32:51Z</time>
      </trkpt>
      <trkpt lat="46.151896873489022" lon="8.195182783529162">
        <ele>1624.77</ele>
        <time>2015-01-31T12:33:05Z</time>
      </trkpt>
      <trkpt lat="46.151868458837271" lon="8.195208432152867">
        <ele>1624.77</ele>
        <time>2015-01-31T12:33:08Z</time>
      </trkpt>
      <trkpt lat="46.151783298701048" lon="8.195302141830325">
        <ele>1625.73</ele>
        <time>2015-01-31T12:33:23Z</time>
      </trkpt>
      <trkpt lat="46.151769133284688" lon="8.195384703576565">
        <ele>1626.21</ele>
        <time>2015-01-31T12:33:36Z</time>
      </trkpt>
      <trkpt lat="46.151764858514071" lon="8.195419572293758">
        <ele>1626.6900000000001</ele>
        <time>2015-01-31T12:33:39Z</time>
      </trkpt>
      <trkpt lat="46.151733426377177" lon="8.195458045229316">
        <ele>1626.21</ele>
        <time>2015-01-31T12:33:43Z</time>
      </trkpt>
      <trkpt lat="46.151644997298717" lon="8.195587545633316">
        <ele>1625.25</ele>
        <time>2015-01-31T12:33:59Z</time>
      </trkpt>
      <trkpt lat="46.151635777205229" lon="8.195577654987574">
        <ele>1625.25</ele>
        <time>2015-01-31T12:34:22Z</time>
      </trkpt>
      <trkpt lat="46.15161775611341" lon="8.195621827617288">
        <ele>1624.77</ele>
        <time>2015-01-31T12:34:29Z</time>
      </trkpt>
      <trkpt lat="46.151518430560827" lon="8.195781083777547">
        <ele>1623.3199999999999</ele>
        <time>2015-01-31T12:34:44Z</time>
      </trkpt>
      <trkpt lat="46.151515748351812" lon="8.195748226717114">
        <ele>1623.3199999999999</ele>
        <time>2015-01-31T12:35:05Z</time>
      </trkpt>
      <trkpt lat="46.151498649269342" lon="8.195736911147833">
        <ele>1623.3199999999999</ele>
        <time>2015-01-31T12:35:26Z</time>
      </trkpt>
      <trkpt lat="46.151489848271012" lon="8.1957230810076">
        <ele>1623.3199999999999</ele>
        <time>2015-01-31T12:35:34Z</time>
      </trkpt>
      <trkpt lat="46.151391193270683" lon="8.195644542574883">
        <ele>1623.3199999999999</ele>
        <time>2015-01-31T12:35:45Z</time>
      </trkpt>
      <trkpt lat="46.151349367573857" lon="8.195676142349839">
        <ele>1623.8</ele>
        <time>2015-01-31T12:35:50Z</time>
      </trkpt>
      <trkpt lat="46.151301842182875" lon="8.195735989138484">
        <ele>1622.3599999999999</ele>
        <time>2015-01-31T12:36:03Z</time>
      </trkpt>
      <trkpt lat="46.151299830526114" lon="8.195744622498751">
        <ele>1622.3599999999999</ele>
        <time>2015-01-31T12:36:16Z</time>
      </trkpt>
      <trkpt lat="46.151297986507416" lon="8.195709669962525">
        <ele>1621.4000000000001</ele>
        <time>2015-01-31T12:36:35Z</time>
      </trkpt>
      <trkpt lat="46.151314666494727" lon="8.195691397413611">
        <ele>1622.8399999999999</ele>
        <time>2015-01-31T12:36:53Z</time>
      </trkpt>
      <trkpt lat="46.151304440572858" lon="8.195685110986233">
        <ele>1622.8399999999999</ele>
        <time>2015-01-31T12:37:15Z</time>
      </trkpt>
      <trkpt lat="46.151335369795561" lon="8.195670107379556">
        <ele>1623.3199999999999</ele>
        <time>2015-01-31T12:37:35Z</time>
      </trkpt>
      <trkpt lat="46.151306116953492" lon="8.195690894499421">
        <ele>1623.3199999999999</ele>
        <time>2015-01-31T12:37:47Z</time>
      </trkpt>
      <trkpt lat="46.151279378682375" lon="8.195695169270039">
        <ele>1623.3199999999999</ele>
        <time>2015-01-31T12:38:04Z</time>
      </trkpt>
      <trkpt lat="46.151292119175196" lon="8.195740766823292">
        <ele>1623.3199999999999</ele>
        <time>2015-01-31T12:38:09Z</time>
      </trkpt>
      <trkpt lat="46.151280468329787" lon="8.195800865069032">
        <ele>1623.3199999999999</ele>
        <time>2015-01-31T12:38:13Z</time>
      </trkpt>
      <trkpt lat="46.151164378970861" lon="8.196034887805581">
        <ele>1621.8800000000001</ele>
        <time>2015-01-31T12:38:30Z</time>
      </trkpt>
      <trkpt lat="46.151020461693406" lon="8.196243932470679">
        <ele>1620.4400000000001</ele>
        <time>2015-01-31T12:38:46Z</time>
      </trkpt>
      <trkpt lat="46.150935385376215" lon="8.196335295215249">
        <ele>1619.96</ele>
        <time>2015-01-31T12:38:54Z</time>
      </trkpt>
      <trkpt lat="46.150772189721465" lon="8.196520702913404">
        <ele>1619</ele>
        <time>2015-01-31T12:39:11Z</time>
      </trkpt>
      <trkpt lat="46.150567587465048" lon="8.196728322654963">
        <ele>1616.5899999999999</ele>
        <time>2015-01-31T12:39:29Z</time>
      </trkpt>
      <trkpt lat="46.150346640497446" lon="8.19688213057816">
        <ele>1614.6700000000001</ele>
        <time>2015-01-31T12:39:48Z</time>
      </trkpt>
      <trkpt lat="46.150088561698794" lon="8.196978103369474">
        <ele>1611.79</ele>
        <time>2015-01-31T12:40:07Z</time>
      </trkpt>
      <trkpt lat="46.149889323860407" lon="8.197122104465962">
        <ele>1610.3499999999999</ele>
        <time>2015-01-31T12:40:23Z</time>
      </trkpt>
      <trkpt lat="46.149736018851399" lon="8.197401138022542">
        <ele>1607.46</ele>
        <time>2015-01-31T12:40:41Z</time>
      </trkpt>
      <trkpt lat="46.149540971964598" lon="8.197600124403834">
        <ele>1604.5799999999999</ele>
        <time>2015-01-31T12:40:58Z</time>
      </trkpt>
      <trkpt lat="46.149341817945242" lon="8.197744460776448">
        <ele>1601.6900000000001</ele>
        <time>2015-01-31T12:41:14Z</time>
      </trkpt>
      <trkpt lat="46.14916680380702" lon="8.197887456044555">
        <ele>1598.3299999999999</ele>
        <time>2015-01-31T12:41:28Z</time>
      </trkpt>
      <trkpt lat="46.148972427472472" lon="8.198091890662909">
        <ele>1595.45</ele>
        <time>2015-01-31T12:41:45Z</time>
      </trkpt>
      <trkpt lat="46.148811494931579" lon="8.198272520676255">
        <ele>1592.0799999999999</ele>
        <time>2015-01-31T12:42:00Z</time>
      </trkpt>
      <trkpt lat="46.148603959009051" lon="8.19844719953835">
        <ele>1588.72</ele>
        <time>2015-01-31T12:42:17Z</time>
      </trkpt>
      <trkpt lat="46.148412683978677" lon="8.198623470962048">
        <ele>1585.8299999999999</ele>
        <time>2015-01-31T12:42:33Z</time>
      </trkpt>
      <trkpt lat="46.148206489160657" lon="8.198721120133996">
        <ele>1582.95</ele>
        <time>2015-01-31T12:42:49Z</time>
      </trkpt>
      <trkpt lat="46.147967018187046" lon="8.19880586117506">
        <ele>1580.0599999999999</ele>
        <time>2015-01-31T12:43:06Z</time>
      </trkpt>
      <trkpt lat="46.147755207493901" lon="8.198981294408441">
        <ele>1576.7</ele>
        <time>2015-01-31T12:43:23Z</time>
      </trkpt>
      <trkpt lat="46.147519508376718" lon="8.199132587760687">
        <ele>1573.8199999999999</ele>
        <time>2015-01-31T12:43:41Z</time>
      </trkpt>
      <trkpt lat="46.147292191162705" lon="8.199270218610764">
        <ele>1571.4100000000001</ele>
        <time>2015-01-31T12:43:58Z</time>
      </trkpt>
      <trkpt lat="46.147070238366723" lon="8.199416315183044">
        <ele>1568.05</ele>
        <time>2015-01-31T12:44:15Z</time>
      </trkpt>
      <trkpt lat="46.146877203136683" lon="8.199591329321265">
        <ele>1564.6800000000001</ele>
        <time>2015-01-31T12:44:31Z</time>
      </trkpt>
      <trkpt lat="46.146767903119326" lon="8.199876397848129">
        <ele>1561.8</ele>
        <time>2015-01-31T12:44:47Z</time>
      </trkpt>
      <trkpt lat="46.146567659452558" lon="8.200003718957305">
        <ele>1558.4300000000001</ele>
        <time>2015-01-31T12:45:04Z</time>
      </trkpt>
      <trkpt lat="46.146562378853559" lon="8.1996707059443">
        <ele>1556.03</ele>
        <time>2015-01-31T12:45:20Z</time>
      </trkpt>
      <trkpt lat="46.146664554253221" lon="8.199286814779043">
        <ele>1553.1500000000001</ele>
        <time>2015-01-31T12:45:39Z</time>
      </trkpt>
      <trkpt lat="46.146701518446207" lon="8.199200481176376">
        <ele>1552.1900000000001</ele>
        <time>2015-01-31T12:45:44Z</time>
      </trkpt>
      <trkpt lat="46.146742003038526" lon="8.199073998257518">
        <ele>1551.22</ele>
        <time>2015-01-31T12:45:51Z</time>
      </trkpt>
      <trkpt lat="46.146770752966404" lon="8.198970146477222">
        <ele>1550.26</ele>
        <time>2015-01-31T12:45:57Z</time>
      </trkpt>
      <trkpt lat="46.146900169551373" lon="8.198698740452528">
        <ele>1547.3800000000001</ele>
        <time>2015-01-31T12:46:14Z</time>
      </trkpt>
      <trkpt lat="46.147109130397439" lon="8.198418281972408">
        <ele>1544.01</ele>
        <time>2015-01-31T12:46:33Z</time>
      </trkpt>
      <trkpt lat="46.147200157865882" lon="8.198116030544043">
        <ele>1541.1300000000001</ele>
        <time>2015-01-31T12:46:51Z</time>
      </trkpt>
      <trkpt lat="46.147235613316298" lon="8.197896592319012">
        <ele>1539.6900000000001</ele>
        <time>2015-01-31T12:47:04Z</time>
      </trkpt>
      <trkpt lat="46.14736620336771" lon="8.197635831311345">
        <ele>1536.8</ele>
        <time>2015-01-31T12:47:21Z</time>
      </trkpt>
      <trkpt lat="46.147540044039488" lon="8.197423266246915">
        <ele>1534.4000000000001</ele>
        <time>2015-01-31T12:47:38Z</time>
      </trkpt>
      <trkpt lat="46.147488160058856" lon="8.197285551577807">
        <ele>1532.96</ele>
        <time>2015-01-31T12:47:51Z</time>
      </trkpt>
      <trkpt lat="46.147297890856862" lon="8.197458721697331">
        <ele>1530.5599999999999</ele>
        <time>2015-01-31T12:48:08Z</time>
      </trkpt>
      <trkpt lat="46.147285234183073" lon="8.197458470240235">
        <ele>1530.0799999999999</ele>
        <time>2015-01-31T12:48:21Z</time>
      </trkpt>
      <trkpt lat="46.147284479811788" lon="8.197445478290319">
        <ele>1529.5899999999999</ele>
        <time>2015-01-31T12:48:35Z</time>
      </trkpt>
      <trkpt lat="46.147296885028481" lon="8.197442376986146">
        <ele>1530.5599999999999</ele>
        <time>2015-01-31T12:48:47Z</time>
      </trkpt>
      <trkpt lat="46.14730610512197" lon="8.197415471076965">
        <ele>1529.5899999999999</ele>
        <time>2015-01-31T12:49:09Z</time>
      </trkpt>
    </trkseg>
  </trk>

</gpx>